GFSSGP_925_spd_000.txt.gz
Wind_Speed
9 6 2 3 4 6 3 2 1 1 3 2 2 6 7 3 3 3 3 10 8 12 9 8 7 8 10 11 10 9 7 6 7 6 7 7 7 9 7 4 4 12 16 17 13 8 8 11 11
8 2 3 2 5 5 3 4 3 0 4 3 6 4 7 4 3 7 8 13 11 12 11 10 9 9 11 11 11 10 8 6 5 4 4 5 6 7 8 10 12 15 15 13 10 4 4 7 8
3 4 3 4 4 4 4 1 3 3 2 4 3 4 3 3 3 8 14 17 15 13 12 11 11 11 11 11 10 9 7 5 4 4 3 5 6 7 9 11 13 11 9 7 5 4 5 10 12
2 5 4 6 4 4 3 3 6 4 1 5 3 5 3 2 11 11 21 17 16 15 13 12 12 12 10 9 9 8 8 7 6 5 5 5 5 7 7 7 8 7 7 8 10 10 11 11 10
5 3 5 5 4 3 3 3 7 6 5 2 2 2 3 2 12 24 20 18 18 17 15 14 11 10 8 7 6 6 6 4 4 5 4 3 3 4 5 5 5 6 7 9 9 10 11 13 13
4 3 5 4 1 3 2 1 2 3 3 4 6 4 2 9 24 24 20 18 17 18 17 13 10 7 5 3 3 3 2 1 2 3 2 3 4 5 5 5 5 5 7 7 9 10 11 12 9
6 5 4 4 3 2 1 5 3 4 3 2 7 5 1 9 21 22 18 16 17 16 14 12 10 7 5 3 2 1 2 2 2 2 2 2 3 4 5 4 4 4 6 7 8 9 10 10 8
5 4 3 3 2 1 3 2 3 3 2 3 3 6 4 10 22 21 18 17 15 14 12 10 9 6 5 3 2 0 2 3 3 3 4 4 4 5 5 5 6 7 8 9 10 10 10 9 7
3 5 2 3 4 2 3 2 1 2 5 2 4 7 4 24 23 21 17 15 14 13 11 11 9 7 4 2 2 1 1 2 3 5 6 6 5 5 6 7 8 8 8 8 10 10 9 9 8
5 5 4 3 4 1 2 1 1 3 2 2 1 2 9 25 25 23 20 19 18 16 15 13 11 7 6 4 4 3 3 5 5 6 8 7 7 7 7 8 9 9 10 9 8 8 9 9 8
1 4 3 2 2 2 1 3 1 7 2 6 8 5 8 12 19 21 23 23 25 19 15 13 10 9 8 9 9 8 7 8 8 8 9 10 10 11 10 11 10 11 10 9 8 7 6 6 7
6 4 3 1 3 4 2 1 2 5 7 7 9 10 9 8 13 19 22 26 25 23 18 14 10 9 9 11 14 13 12 11 11 11 11 12 12 13 13 13 13 13 12 11 10 9 9 9 10
4 2 4 1 5 3 2 3 4 7 8 2 8 8 10 9 17 18 22 23 22 23 20 15 12 10 9 10 11 12 13 14 13 14 14 14 14 15 15 16 16 15 13 11 10 10 9 6 4
1 1 1 1 3 1 1 3 2 4 2 3 7 11 10 9 19 12 14 19 24 24 22 17 13 10 9 8 7 8 10 12 13 16 16 16 16 17 17 17 17 16 14 13 11 9 8 7 5
3 5 6 6 5 2 2 6 6 4 4 5 7 8 9 11 13 18 18 21 21 27 22 19 13 9 7 6 7 8 9 11 13 14 15 16 17 17 17 17 17 18 16 14 12 11 10 7 6
6 6 5 6 3 4 4 8 11 2 2 8 8 8 8 7 9 16 16 17 19 24 19 15 11 8 6 6 7 9 10 11 13 14 15 17 18 17 17 18 18 17 18 16 15 13 11 9 8
8 1 2 7 5 5 2 8 9 5 7 10 6 7 5 4 2 6 12 13 17 17 15 15 11 8 5 6 8 10 12 13 13 15 18 20 21 20 21 21 20 19 19 20 19 17 15 13 11
2 2 2 3 5 7 4 8 9 7 7 8 6 6 7 5 2 3 6 11 13 14 15 13 10 8 5 5 9 12 14 15 15 17 20 21 23 25 26 26 26 24 24 25 23 22 20 19 15
0 1 2 3 1 5 4 6 9 9 7 7 4 5 7 5 4 5 7 9 11 12 14 13 10 9 6 8 11 14 16 17 17 19 22 24 26 28 29 32 32 30 30 31 29 27 24 22 18
3 2 4 5 3 0 6 7 6 7 5 5 5 6 6 5 4 8 12 13 15 15 13 12 10 9 11 12 14 13 16 20 23 26 28 29 29 33 37 38 39 38 37 36 34 32 30 28 23
4 2 2 5 6 1 5 4 7 5 5 7 7 4 3 5 6 3 5 11 11 12 11 10 11 12 12 14 17 19 22 24 27 30 30 30 36 37 35 38 44 45 44 42 41 39 36 30 26
4 2 2 4 2 1 4 2 6 6 4 5 4 1 2 2 3 4 7 8 9 6 7 9 11 11 11 12 14 16 18 22 28 31 33 32 30 32 31 30 34 44 48 45 47 43 41 35 24
6 4 2 1 2 3 9 4 6 6 5 2 2 4 2 5 6 4 6 4 3 2 3 9 13 14 17 20 21 21 22 25 29 33 32 30 32 30 30 31 29 33 39 43 41 34 27 25 13
6 3 5 4 2 3 3 3 5 3 4 4 2 1 5 3 8 7 7 9 13 15 16 17 17 18 20 21 21 21 25 30 34 36 36 35 34 29 27 26 24 20 18 18 14 14 15 13 11
9 6 3 5 5 4 3 1 6 6 4 2 3 3 6 8 6 4 8 13 18 20 18 16 16 20 21 18 19 22 27 32 36 38 38 36 33 25 21 15 1 11 16 17 17 15 13 10 13
3 4 4 2 1 5 5 3 2 4 6 5 7 6 7 8 6 7 10 13 15 16 18 18 16 23 24 22 22 22 27 31 35 37 37 33 22 10 1 7 12 13 10 7 8 9 10 14 15
2 4 2 5 2 3 3 4 5 4 8 9 8 8 7 8 8 7 6 9 15 19 21 19 16 20 22 19 20 27 33 37 38 36 32 24 11 9 8 7 5 3 2 5 9 14 16 13 8
6 4 4 4 2 4 5 5 4 6 9 7 5 6 7 7 8 7 8 8 14 16 16 17 19 20 21 18 22 29 34 35 34 34 24 13 9 7 2 2 4 7 8 8 10 8 8 10 13
4 3 5 3 3 3 3 5 5 5 2 7 2 5 6 8 8 7 13 11 12 15 16 17 20 20 20 18 25 31 32 31 30 18 10 10 3 2 4 8 11 15 14 14 10 9 10 11 12
2 3 4 4 4 2 3 6 2 5 4 6 3 5 6 6 8 9 16 16 16 23 23 20 21 21 16 22 28 29 26 26 16 3 5 2 5 6 9 11 10 13 16 14 12 12 12 13 14

GFSSGP_925_spd_003.txt.gz
Wind_Speed
4 2 4 3 2 3 3 2 2 4 2 2 4 4 7 4 1 3 3 7 9 11 10 8 8 8 8 9 7 6 6 7 8 8 9 8 8 7 3 3 6 12 15 15 13 7 6 6 6
2 3 4 2 4 7 3 2 3 3 8 5 7 5 3 4 3 6 7 12 11 12 12 10 9 9 11 11 10 8 6 6 6 7 6 7 7 7 4 7 10 13 13 11 8 9 7 8 8
2 3 2 3 3 5 5 2 8 8 2 2 4 3 3 5 4 11 8 15 14 14 14 12 12 12 11 10 8 8 6 4 2 2 1 1 3 4 5 8 9 9 7 6 6 7 7 8 9
2 3 3 6 7 1 2 8 7 6 3 3 6 7 3 1 12 8 19 16 14 14 14 13 11 9 8 7 6 4 4 3 1 2 3 3 3 5 6 8 8 5 5 5 7 8 9 10 10
5 2 5 7 6 3 2 3 5 3 2 3 1 4 3 1 4 19 18 16 15 15 14 12 10 9 7 5 4 3 2 2 1 1 2 2 3 5 5 4 4 5 6 7 8 8 10 10 7
3 2 6 9 7 2 3 3 4 2 3 3 6 4 2 2 16 20 17 18 16 15 14 12 10 7 5 4 3 2 1 1 1 2 2 2 3 3 3 4 4 4 5 8 9 9 10 11 9
5 4 3 6 7 3 4 2 6 5 5 3 7 4 2 6 14 19 17 16 15 14 12 11 8 6 4 2 1 1 1 1 1 2 3 3 4 4 5 4 5 6 8 9 9 9 9 8 7
4 4 4 2 5 3 1 3 3 3 3 2 2 4 5 10 20 19 16 15 15 14 13 10 7 5 3 2 1 0 1 2 2 3 4 5 6 6 5 5 5 6 8 10 11 10 10 9 6
2 4 3 5 6 4 1 3 1 0 5 2 3 4 0 19 20 16 12 13 14 15 12 11 8 5 4 4 3 2 1 1 2 4 5 5 6 6 6 6 7 8 9 10 11 11 10 8 7
3 4 4 2 2 3 2 1 3 3 2 3 3 1 6 21 21 19 16 16 14 15 16 13 9 7 4 3 3 2 2 3 4 6 7 7 7 9 9 9 10 10 11 12 12 11 9 8 5
2 4 5 2 4 3 2 2 1 6 2 5 7 8 14 18 20 20 18 17 19 15 15 13 11 9 7 7 6 5 5 6 7 8 8 10 11 11 12 13 13 12 11 12 12 11 10 9 8
5 2 3 4 4 3 3 3 1 4 4 2 4 12 18 16 18 20 20 20 17 19 16 14 12 11 8 8 10 10 10 10 10 11 11 12 14 15 14 16 16 15 13 13 11 12 12 11 9
5 1 2 2 4 2 4 1 1 6 8 4 5 13 17 16 19 21 22 18 16 19 17 15 13 11 8 9 10 11 13 13 13 14 14 15 16 16 17 18 18 17 15 13 11 10 10 8 6
2 4 3 4 2 3 1 1 1 1 2 4 7 12 15 16 22 15 16 18 20 20 18 16 13 8 7 7 6 6 8 10 12 13 15 15 16 18 19 20 19 19 17 15 14 11 9 9 7
2 4 2 10 5 3 3 2 4 3 4 2 6 8 12 17 15 20 19 19 20 22 18 16 12 6 6 6 5 6 7 9 11 13 13 14 15 18 20 21 20 20 19 18 17 15 12 10 9
5 5 3 5 7 3 2 5 7 5 6 8 6 6 10 13 16 13 14 16 16 18 19 17 12 8 7 6 6 6 7 9 12 14 14 15 16 18 20 21 22 21 21 20 19 17 16 14 11
8 2 4 5 4 5 4 6 5 13 9 9 5 4 8 10 8 6 9 9 10 15 19 17 12 9 7 6 6 6 7 11 13 15 16 17 18 19 22 24 26 25 24 25 24 22 21 15 14
1 1 1 3 5 5 3 7 12 11 3 4 4 1 6 6 3 4 5 6 8 14 16 13 11 8 8 6 7 8 9 13 14 16 19 21 23 24 25 28 30 30 29 30 30 28 24 24 19
2 2 2 3 2 4 3 5 9 10 10 9 7 5 6 5 4 2 1 7 11 12 12 13 11 8 8 7 10 11 12 17 20 22 22 22 22 24 27 30 33 35 34 38 37 33 28 23 23
2 3 1 3 1 1 5 8 6 10 6 6 8 8 7 6 5 4 5 7 10 11 11 8 3 5 9 11 12 12 14 15 18 19 24 26 27 28 26 25 27 29 29 30 36 34 28 22 22
1 2 2 3 6 2 3 3 9 4 5 7 8 6 6 7 7 5 5 6 5 4 4 6 7 9 11 12 12 13 13 14 14 21 25 28 28 25 27 28 26 26 26 28 31 33 33 32 25
2 2 3 3 1 1 4 3 6 8 5 5 4 4 5 5 4 7 8 9 8 6 7 12 17 16 17 16 16 17 12 13 16 19 21 29 30 29 29 30 29 27 25 26 29 29 31 30 31
2 2 1 1 3 2 6 1 3 5 6 6 7 5 6 8 8 9 11 11 15 18 18 16 15 17 19 19 20 17 15 14 17 21 27 31 32 29 28 26 25 25 24 24 23 24 24 26 28
4 2 3 2 2 1 1 2 2 4 5 5 3 10 10 9 7 8 11 12 13 15 15 14 13 15 18 19 17 16 17 20 23 31 34 33 32 31 27 23 20 18 15 11 6 4 5 1 3
8 3 1 2 3 1 2 1 2 6 6 5 6 8 9 9 10 9 10 10 12 15 16 16 16 16 18 17 17 21 24 28 31 33 29 28 26 22 20 14 8 5 9 13 13 13 13 14 13
4 3 2 1 2 4 3 1 2 4 6 6 7 6 7 8 6 5 4 4 7 10 13 15 15 14 18 20 19 19 23 28 29 26 29 28 23 15 7 4 4 5 5 4 5 7 7 10 9
2 5 1 5 1 2 3 1 6 4 9 8 6 6 7 7 5 2 3 3 5 10 15 21 23 21 18 19 17 18 22 26 27 30 29 23 15 5 1 2 4 4 5 7 8 8 8 10 7
4 4 1 3 3 3 4 4 3 3 4 2 3 3 5 6 9 10 12 11 8 13 15 13 11 13 15 15 15 20 24 24 25 25 21 13 2 3 7 6 6 9 10 10 13 13 8 4 2
2 2 5 3 1 1 3 5 4 4 3 2 6 4 2 6 8 9 14 14 11 9 12 13 12 15 16 14 20 23 22 21 20 14 10 5 6 6 5 7 9 12 12 10 11 8 7 6 4
1 3 3 2 2 1 1 8 3 6 2 3 5 5 4 6 8 11 14 12 8 8 13 14 13 14 13 19 20 17 15 16 12 7 6 7 7 6 6 9 13 15 16 14 11 7 6 8 9

GFSSGP_925_spd_006.txt.gz
Wind_Speed
1 2 3 5 5 3 10 8 7 10 6 2 1 4 8 8 6 5 9 8 9 11 10 7 9 10 9 8 7 6 6 6 5 4 4 4 3 2 3 4 6 8 10 11 9 7 5 2 6
1 3 4 3 5 11 9 9 9 7 10 9 7 4 3 7 6 11 11 9 10 11 10 8 9 9 9 8 6 4 4 4 4 4 3 3 1 3 5 7 10 10 9 9 8 7 5 6 6
3 5 4 3 3 10 11 8 13 12 6 5 4 4 2 6 7 12 10 12 11 10 9 7 8 8 8 8 6 4 2 2 2 2 2 1 1 3 5 7 8 9 8 8 8 9 9 9 9
4 6 4 4 15 7 14 13 14 9 5 2 5 8 6 4 10 7 13 11 11 10 8 8 8 7 7 6 5 4 3 3 2 2 0 1 1 3 5 6 7 7 8 9 9 9 10 9 8
4 4 7 11 15 11 9 12 8 6 6 7 2 5 7 8 7 15 13 11 11 11 8 7 8 6 4 4 3 3 2 1 1 1 0 2 3 3 4 4 4 5 6 7 8 9 9 10 8
5 4 12 13 14 10 8 7 5 3 5 6 6 9 7 5 14 13 13 12 11 11 10 8 7 6 4 3 2 2 2 3 1 1 2 2 3 3 2 3 4 5 5 6 6 7 8 8 7
2 4 13 15 14 11 10 5 7 8 9 6 7 7 4 10 14 13 13 12 10 9 8 7 6 4 2 2 1 1 1 1 1 2 3 4 3 4 4 4 5 6 7 8 9 9 8 8 7
1 4 13 14 11 12 7 7 6 6 6 6 2 6 8 13 17 14 13 11 9 8 7 6 5 5 2 1 1 0 1 1 2 3 4 5 7 6 5 5 5 6 8 9 9 9 9 9 7
2 6 8 9 9 10 8 8 4 1 7 3 4 3 6 20 17 14 11 10 10 8 7 6 4 4 2 1 0 2 3 3 4 5 6 5 3 3 4 6 7 9 10 12 12 11 10 10 9
3 5 6 4 5 11 9 5 7 6 7 6 7 6 10 21 20 17 15 15 12 11 10 8 7 4 3 2 1 1 1 1 2 3 4 5 5 5 6 7 10 10 11 12 13 12 11 8 7
2 8 10 7 8 8 9 7 5 7 8 9 10 11 17 20 18 16 14 12 12 12 11 10 7 5 4 3 1 2 3 4 4 5 6 7 8 8 8 8 9 9 12 9 11 10 9 8 9
10 6 5 7 5 6 7 5 5 7 6 4 3 11 18 17 16 14 14 12 12 11 11 8 7 5 5 3 2 3 4 5 6 7 9 8 9 10 10 11 12 12 12 12 11 11 10 9 7
13 9 8 4 5 3 2 4 2 5 4 4 6 10 14 14 14 14 14 14 13 13 11 9 7 6 5 4 3 4 4 5 6 8 9 9 10 10 11 12 13 13 12 12 12 12 12 9 7
5 7 7 3 4 3 4 3 4 6 2 6 7 11 13 13 14 15 16 14 13 11 12 10 9 8 6 4 3 2 3 4 5 6 8 9 9 10 11 12 13 12 12 12 12 12 12 11 9
7 10 6 6 3 2 4 7 4 4 2 1 6 9 12 14 16 15 15 15 13 10 9 11 11 8 5 4 2 0 2 3 4 5 7 8 9 10 11 13 13 13 13 13 13 12 12 12 11
5 4 6 7 0 2 5 7 8 4 6 8 6 5 12 16 17 14 11 11 11 11 10 11 11 7 4 4 2 2 2 2 4 6 7 9 10 12 14 15 15 15 16 17 16 16 16 15 15
2 2 1 6 3 4 3 1 6 8 8 11 9 6 11 14 16 10 11 13 12 11 12 14 11 7 5 4 3 3 3 3 5 7 8 10 12 13 15 18 19 17 18 18 19 20 19 20 18
2 3 3 1 6 6 3 3 6 9 3 3 4 4 7 11 12 9 7 6 7 6 9 11 9 4 2 3 3 4 4 3 5 6 7 10 12 13 15 18 20 20 20 22 23 23 24 24 24
1 1 2 3 4 7 3 2 8 9 9 8 6 6 8 10 8 4 1 2 4 5 7 6 6 4 2 1 4 5 7 7 6 7 11 13 13 15 17 18 19 20 21 23 24 26 27 28 27
1 2 2 2 1 5 2 5 8 10 11 10 11 11 10 10 10 11 11 11 8 9 8 6 6 6 5 4 4 4 7 7 8 10 14 14 18 18 18 18 20 21 23 23 24 24 26 28 27
2 2 4 4 4 3 4 7 6 6 10 11 12 12 12 12 12 11 13 13 11 10 8 9 11 12 11 9 7 6 6 9 10 15 16 19 21 20 19 19 19 20 21 23 24 24 26 28 28
1 2 8 7 6 4 3 4 5 4 8 9 9 10 10 10 9 9 8 9 9 11 13 13 11 10 9 10 8 9 9 10 12 13 15 20 19 20 20 20 19 19 19 21 22 23 25 26 29
5 8 5 4 6 4 2 6 8 2 7 6 8 9 10 9 9 9 10 12 13 12 11 10 8 9 8 7 9 10 11 11 12 17 20 21 21 20 20 19 18 17 16 17 17 17 17 20 24
6 3 1 1 2 4 2 5 7 2 4 7 9 9 9 8 7 9 10 10 11 10 9 7 7 8 10 10 10 10 12 15 18 21 24 23 26 24 22 19 15 11 10 10 9 7 8 8 7
8 2 2 2 4 1 1 6 7 5 7 7 6 8 8 8 7 5 5 5 6 6 6 6 8 9 12 12 9 9 12 17 20 23 25 28 26 24 21 15 11 9 6 5 4 4 4 4 5
6 6 3 2 2 4 3 2 6 7 6 6 7 6 6 7 7 5 3 4 4 5 7 7 7 9 10 8 11 13 15 18 21 23 25 26 24 20 13 9 9 9 8 8 8 7 11 10 8
3 4 1 3 1 3 1 3 7 7 6 5 5 3 4 3 3 5 6 6 6 6 6 7 9 12 14 13 13 14 16 20 20 22 21 21 18 14 11 10 9 5 5 6 6 6 8 11 11
4 3 1 2 3 4 3 7 7 9 5 2 3 3 2 1 4 7 11 9 8 10 10 11 12 13 12 12 11 13 16 16 16 17 18 17 13 11 10 6 5 5 7 9 11 12 9 8 10
3 2 2 1 2 3 4 5 5 2 3 4 8 9 6 6 8 10 14 14 13 10 9 11 11 10 10 10 13 15 15 13 14 15 14 12 12 10 8 8 9 10 13 16 11 11 13 12 11
2 1 1 2 2 2 4 6 4 1 1 4 12 7 5 7 11 12 13 11 9 7 9 10 10 11 9 12 14 15 13 13 14 14 13 12 12 10 10 11 13 17 13 15 14 15 15 14 15

GFSSGP_925_spd_009.txt.gz
Wind_Speed
7 6 7 10 7 9 9 7 12 11 9 5 6 9 14 14 14 5 13 11 14 14 12 10 9 8 6 6 6 6 5 6 7 6 5 3 2 3 4 6 8 8 8 8 8 8 8 8 9
8 7 10 8 9 9 9 9 13 12 12 9 7 5 9 14 15 14 14 13 14 14 13 11 10 9 8 6 6 5 5 5 5 5 4 2 3 6 7 8 9 10 10 9 7 6 7 7 7
7 11 10 6 13 6 9 8 14 12 8 4 7 11 4 9 10 14 18 14 15 13 12 11 10 9 9 7 5 4 3 4 4 3 2 2 3 5 6 7 8 8 8 8 9 9 10 9 10
8 7 6 10 13 11 10 12 14 10 6 0 7 12 9 14 8 18 16 15 15 14 12 11 10 9 8 6 4 3 3 2 2 2 1 2 4 6 7 8 8 9 10 11 11 12 12 12 11
14 10 9 6 12 10 11 12 11 13 11 7 4 9 13 12 16 17 15 14 15 14 12 10 9 8 6 4 3 2 2 2 3 3 3 3 5 5 5 6 7 8 8 10 11 12 12 12 11
8 11 6 9 11 8 8 7 1 5 6 7 3 12 13 13 16 15 14 14 13 14 11 9 7 6 5 4 3 4 4 5 4 4 4 4 5 5 5 5 6 7 8 9 10 10 10 9 10
15 10 9 15 11 10 9 3 4 4 6 4 6 8 9 13 15 15 14 14 13 12 11 9 7 4 5 5 4 4 3 3 4 4 5 5 6 6 5 6 7 8 9 10 11 10 9 9 8
11 2 11 11 11 12 8 4 5 3 11 8 3 6 13 17 16 15 14 13 12 11 10 8 7 6 4 4 5 5 4 4 4 6 7 8 6 11 9 7 10 10 10 11 11 11 10 9 8
9 5 7 6 7 8 8 6 2 4 8 1 4 12 16 20 16 15 14 14 12 11 9 6 6 5 4 5 6 5 7 7 7 6 10 6 4 6 6 7 10 11 12 13 13 14 14 10 6
10 4 12 6 4 9 9 6 6 7 8 6 7 7 17 18 17 16 15 15 14 11 10 8 5 4 3 3 2 2 2 3 3 5 5 6 7 6 9 6 14 11 14 15 10 14 14 11 11
8 6 10 4 2 5 8 4 3 7 8 9 12 12 16 16 16 16 16 16 15 14 12 9 6 3 1 4 3 2 3 3 3 4 7 8 8 7 9 10 9 11 13 11 13 12 11 11 11
8 9 5 5 3 2 4 5 5 7 7 9 6 13 13 15 14 16 17 15 14 14 12 8 6 3 1 0 1 2 2 3 4 6 6 8 9 9 10 11 13 13 13 13 13 13 12 12 11
10 8 8 8 6 1 3 6 2 6 6 5 6 12 13 13 16 15 14 13 13 12 11 9 7 5 2 0 1 2 2 2 3 4 5 6 7 9 10 11 12 12 13 13 14 14 14 13 12
6 8 8 6 6 4 6 6 8 6 5 9 9 10 13 12 13 13 12 12 13 13 12 10 9 6 4 3 2 1 1 2 3 4 5 5 6 8 9 11 12 13 13 13 15 15 16 15 14
8 9 8 6 7 4 6 10 14 8 5 8 11 12 11 12 12 12 13 13 11 10 11 12 9 8 5 5 4 1 1 2 3 3 3 4 5 8 10 13 14 15 16 17 17 17 18 17 17
11 10 11 8 8 5 11 16 12 7 6 11 9 8 10 12 13 12 12 14 15 12 9 9 10 10 7 6 5 2 1 3 4 3 5 5 6 8 11 14 15 16 17 19 20 20 21 21 21
9 11 5 8 3 2 9 6 13 2 8 11 11 12 10 11 14 14 13 11 9 7 8 10 11 11 8 7 5 3 3 5 5 5 6 5 7 8 10 13 17 18 20 22 22 23 22 23 24
7 5 9 4 7 7 9 9 6 5 6 10 10 10 9 11 13 12 6 7 6 5 6 11 11 8 6 5 5 6 5 5 6 6 4 6 7 9 12 14 16 18 20 22 22 22 25 26 27
5 5 5 6 4 6 3 4 5 4 4 4 4 4 4 8 10 9 2 3 4 3 5 7 10 4 4 5 5 6 8 8 7 7 7 10 10 12 13 15 15 17 19 21 23 25 25 25 25
3 4 2 3 2 5 4 6 6 7 6 8 8 9 10 10 9 10 10 10 10 9 10 8 7 3 1 1 4 4 5 6 8 7 12 12 13 15 16 15 17 18 20 22 23 23 25 25 24
4 7 6 9 4 8 7 9 11 8 11 11 12 12 13 13 12 11 14 14 12 10 9 9 9 8 9 5 5 8 8 9 13 16 17 17 20 20 19 18 19 20 20 22 22 23 24 25 26
6 4 7 8 7 7 11 4 8 12 10 10 10 10 10 10 9 8 11 12 12 12 11 9 8 6 8 10 8 10 10 13 13 15 18 20 20 20 21 21 20 19 21 21 22 21 22 24 26
7 7 7 8 9 8 10 9 10 11 9 9 8 8 8 8 8 9 10 10 10 9 8 6 5 6 6 5 6 8 12 17 22 21 17 19 19 20 21 22 22 22 20 18 18 18 17 18 21
7 7 6 6 5 5 3 7 10 6 8 7 8 7 6 7 7 7 7 7 7 6 5 4 5 5 5 6 8 13 13 11 16 17 19 18 21 22 22 23 20 19 18 15 16 15 15 9 14
9 6 3 3 4 2 4 7 10 8 7 8 5 6 6 7 6 3 3 4 3 3 4 6 10 12 10 13 12 12 13 15 16 19 19 23 24 23 22 19 17 16 16 17 14 11 9 8 8
5 7 3 4 2 4 9 5 8 10 9 6 5 4 3 5 4 3 3 6 7 6 9 11 13 14 14 13 16 16 15 16 17 18 21 21 21 22 20 18 18 19 15 13 11 9 9 10 11
3 4 3 2 1 3 5 5 9 9 8 4 3 3 3 3 2 3 6 7 9 13 13 11 14 16 15 15 16 14 14 16 16 17 18 20 21 22 21 21 19 13 11 9 10 11 12 13 15
8 3 3 1 3 4 2 10 7 9 7 6 5 7 8 7 7 8 10 12 15 17 16 13 14 16 17 16 13 13 16 16 17 18 21 21 20 22 21 19 16 14 12 13 18 21 20 16 15
2 1 3 4 4 4 5 5 8 3 3 6 9 11 11 10 8 10 12 13 14 15 14 14 14 13 16 15 14 15 15 15 17 19 19 18 18 18 17 15 14 14 17 21 18 15 18 17 17
4 4 4 2 2 3 3 7 7 5 2 6 9 8 9 9 10 13 16 12 16 16 16 15 14 17 11 12 15 16 17 18 19 17 16 17 18 18 18 19 19 19 18 17 18 18 19 19 19

GFSSGP_925_spd_012.txt.gz
Wind_Speed
10 8 8 9 4 5 13 8 13 9 9 12 14 14 20 18 10 8 17 15 26 21 18 15 15 13 12 12 12 12 12 11 10 9 8 8 9 8 8 9 10 11 11 12 11 12 13 13 14
9 13 7 4 5 11 3 9 15 15 14 10 12 7 20 18 18 16 18 18 21 25 20 17 15 14 12 11 11 12 11 10 9 8 7 7 7 7 8 8 9 10 11 10 10 10 11 12 12
11 9 5 4 9 15 10 13 13 12 8 11 7 19 14 15 17 17 19 18 32 23 19 18 16 14 13 12 11 9 9 8 8 7 6 7 7 7 8 8 9 10 9 9 10 11 11 12 13
6 5 4 7 12 13 15 16 15 10 4 4 16 13 16 18 20 21 20 19 22 21 20 18 17 15 12 10 10 8 7 7 6 6 6 7 6 7 8 9 10 9 10 11 11 12 12 13 13
14 4 7 10 11 12 13 14 8 10 2 8 6 17 18 24 22 20 19 19 26 19 17 17 16 14 12 10 9 8 8 8 7 7 7 6 7 7 8 8 8 9 10 10 11 12 13 13 13
5 3 7 8 11 12 11 7 1 20 10 8 10 17 16 20 20 18 19 20 21 19 15 15 13 12 11 10 9 8 8 7 8 8 7 6 7 7 8 7 8 9 10 11 11 12 12 12 12
10 8 15 11 11 9 7 4 2 3 7 8 7 16 14 18 17 18 19 19 18 19 15 13 12 13 11 10 9 8 7 7 8 8 8 7 9 10 12 7 11 11 11 12 12 13 12 12 11
10 10 16 8 8 12 7 2 8 5 15 10 9 4 13 20 16 16 17 17 16 16 15 14 9 7 8 10 10 9 9 9 9 11 12 8 6 8 9 9 13 14 13 15 13 15 16 11 7
16 13 7 8 11 10 8 4 4 7 10 6 6 7 22 24 19 17 17 15 14 16 11 13 11 9 8 8 9 9 7 9 8 7 10 7 8 6 6 10 10 11 15 17 11 13 16 11 11
8 8 12 10 9 10 9 7 8 6 10 7 9 14 24 20 18 15 14 14 16 15 11 10 10 7 5 7 4 5 5 7 7 5 6 9 7 3 7 8 9 9 15 13 10 15 14 10 14
9 7 10 9 8 5 8 9 5 5 7 13 11 9 17 18 16 15 15 16 16 16 13 16 8 5 1 7 2 7 8 7 3 8 5 5 5 6 8 11 11 15 14 10 16 14 15 14 15
1 8 7 11 5 3 8 6 4 6 8 10 14 13 16 13 13 15 16 20 18 20 19 18 12 6 3 2 6 7 9 6 6 6 4 4 5 5 7 7 9 11 12 13 11 12 14 14 12
6 4 7 7 5 2 6 3 4 4 9 5 10 12 13 11 15 15 16 18 17 20 22 19 17 9 5 4 5 4 4 4 5 4 3 3 4 4 6 7 9 10 12 12 12 15 15 15 14
8 6 8 7 7 4 3 5 3 8 10 9 6 11 13 13 16 18 14 12 18 19 22 23 20 15 8 4 5 4 4 2 4 3 5 3 3 5 6 8 10 12 13 14 16 18 18 17 16
5 8 6 6 8 5 4 8 11 9 6 9 10 7 10 12 14 15 14 13 14 15 19 22 23 20 11 7 6 3 6 2 0 0 1 1 2 5 7 8 10 13 15 16 18 19 19 20 20
9 9 9 11 8 6 7 12 16 11 10 8 10 11 11 12 14 17 15 13 11 7 10 2 25 18 12 8 8 5 4 1 5 3 1 3 1 4 7 10 13 15 18 18 19 21 21 21 22
9 9 9 8 6 2 9 13 14 11 5 7 8 10 8 6 13 17 16 11 13 15 8 15 16 14 12 10 7 5 3 3 6 7 3 7 8 6 10 14 17 20 20 19 22 22 21 20 22
11 10 5 3 8 5 9 10 6 7 5 9 11 11 11 11 8 19 15 8 6 5 6 8 12 7 10 12 5 4 6 6 2 5 4 7 8 9 14 16 17 19 20 21 21 23 25 25 26
9 8 7 13 6 3 10 8 9 7 3 2 2 4 6 15 22 24 19 13 12 9 21 22 16 8 5 2 0 8 11 11 8 9 7 10 9 14 17 18 17 19 20 21 23 24 25 25 24
5 5 4 5 6 5 7 11 11 6 6 7 8 8 13 14 15 18 20 21 23 19 17 17 14 11 11 8 8 7 7 5 7 7 15 14 16 20 20 21 18 15 18 21 22 23 25 24 22
4 6 9 8 6 8 9 7 13 10 8 10 14 13 13 13 12 12 16 17 16 16 15 15 14 12 10 11 8 8 8 8 11 15 15 15 19 21 18 19 20 20 17 19 23 23 22 19 21
4 6 5 8 7 8 13 3 13 14 11 12 13 11 11 10 11 12 16 14 15 15 14 11 9 9 8 6 3 4 5 7 10 11 18 23 16 13 19 21 21 21 19 21 21 18 21 19 18
6 4 6 8 9 10 10 6 13 16 13 12 11 11 10 10 10 10 11 13 13 10 8 6 3 3 2 3 4 6 10 13 16 13 12 16 15 20 21 20 21 20 24 22 21 17 16 11 10
6 9 9 8 9 3 12 2 5 3 12 11 10 9 9 7 8 9 9 13 12 7 4 3 5 6 4 3 6 11 10 10 15 16 15 17 19 19 19 21 21 20 19 19 15 14 12 11 11
8 8 4 2 3 2 6 2 10 11 10 13 10 11 9 7 7 6 7 8 5 3 3 6 12 17 15 10 5 10 12 13 14 16 16 19 19 18 22 22 21 19 18 15 10 9 10 10 11
5 6 2 4 5 3 4 3 8 14 10 11 10 7 8 7 5 4 2 1 4 7 10 11 8 14 17 15 11 9 11 12 12 13 15 15 16 17 19 20 20 13 9 10 9 10 11 14 18
6 6 3 1 2 1 5 16 13 11 9 9 7 1 3 1 2 2 4 4 6 8 10 10 10 10 12 17 14 10 10 11 12 13 13 16 14 15 20 21 18 15 17 16 16 18 22 24 23
5 2 2 3 2 3 8 6 7 5 4 4 3 6 7 8 9 6 10 14 13 16 16 14 13 11 12 14 14 12 13 11 11 13 15 10 17 22 20 20 19 19 18 17 18 20 20 20 21
1 2 2 3 0 2 3 2 6 6 6 7 6 6 8 7 8 10 16 19 19 18 16 12 11 13 16 13 12 12 12 13 12 13 13 15 18 19 20 20 20 21 21 20 20 18 18 17 19
2 4 3 0 2 1 1 6 3 4 6 10 7 7 7 10 11 12 14 17 16 16 15 15 16 14 11 12 14 16 15 13 16 16 17 17 16 16 19 21 21 21 20 20 21 21 20 22 20

GFSSGP_925_spd_015.txt.gz
Wind_Speed
13 8 10 5 3 2 4 7 7 9 11 19 15 15 15 10 7 8 24 27 27 25 23 22 20 19 18 17 17 16 15 14 13 13 13 12 12 12 12 11 11 11 10 10 11 11 11 12 13
8 9 3 2 2 2 3 10 11 9 8 22 17 17 20 18 16 17 17 31 25 23 24 22 20 19 18 17 15 15 15 14 13 12 12 12 12 12 12 12 11 11 11 12 12 12 12 13 14
6 4 2 3 2 3 3 8 6 4 6 11 7 14 8 7 7 11 32 33 25 26 23 21 20 19 17 16 16 15 14 13 12 11 10 11 11 10 11 10 10 10 12 12 12 13 13 14 14
5 4 4 1 8 7 10 9 8 6 12 18 15 9 13 21 10 26 30 25 24 26 23 21 20 18 17 15 13 13 12 11 11 11 10 10 10 11 11 10 10 10 10 11 11 12 13 13 14
2 1 1 4 5 6 8 9 7 6 8 22 22 13 11 22 29 33 31 27 28 25 23 21 19 17 16 15 14 13 12 13 12 11 11 11 10 10 9 9 9 9 10 11 12 13 13 13 14
2 2 2 4 12 2 6 8 5 8 5 18 20 16 8 25 26 30 26 26 24 25 22 20 18 17 15 14 13 13 12 12 12 13 12 11 11 10 8 10 11 11 11 12 13 14 14 14 13
4 1 5 6 9 7 6 7 5 9 11 9 17 12 7 18 24 28 27 22 22 22 21 20 18 17 15 14 13 14 13 14 14 12 11 12 11 10 11 11 12 11 12 13 12 16 17 13 12
4 2 7 5 4 3 4 5 7 10 5 11 13 7 9 16 26 28 25 23 21 19 18 18 14 15 16 15 15 16 15 16 16 13 10 9 7 7 7 9 9 11 14 12 13 15 16 14 14
7 1 8 14 4 5 3 5 6 6 8 10 5 18 18 28 27 25 25 24 25 21 16 17 15 13 15 14 13 14 14 13 12 9 5 7 5 4 7 7 7 10 14 10 13 14 14 12 12
5 3 3 2 9 7 6 8 6 7 9 10 14 20 26 27 24 22 19 22 22 20 23 19 15 11 10 9 8 10 11 11 11 10 10 8 4 3 3 5 6 12 11 8 14 12 14 10 15
3 5 6 8 9 9 8 7 5 9 6 13 19 15 15 22 20 20 21 24 28 24 24 21 17 11 8 6 6 7 10 10 10 9 9 5 5 8 5 6 9 9 11 12 13 11 13 16 15
5 9 8 5 7 8 8 7 3 2 8 12 19 22 16 11 13 20 22 26 27 26 27 22 17 17 10 9 13 18 13 12 8 10 6 5 4 1 3 3 4 5 9 10 7 10 16 16 15
6 6 8 6 7 7 8 5 2 6 9 11 16 18 16 14 20 26 26 26 28 27 29 23 19 17 13 9 9 11 10 6 8 5 3 5 4 2 2 0 3 6 9 12 13 16 18 19 19
6 10 8 5 5 4 1 2 5 5 8 13 15 16 14 14 21 25 22 26 23 30 33 25 18 13 14 11 8 9 8 8 8 5 1 3 2 1 3 5 8 10 12 14 17 20 20 21 21
7 6 7 5 8 5 3 4 6 5 9 10 11 11 11 15 24 23 23 26 27 26 30 28 19 8 5 13 11 9 6 7 6 4 3 2 1 4 6 10 12 14 16 19 21 21 21 23 22
3 3 4 5 9 6 8 7 7 10 10 10 11 9 10 12 21 30 21 17 18 23 30 30 27 23 12 8 10 13 9 4 3 4 5 7 5 3 5 11 15 17 19 21 21 22 22 20 20
2 5 5 5 10 5 4 7 10 9 9 8 8 9 8 8 10 26 23 17 16 18 28 25 17 20 15 19 12 9 4 1 1 7 9 7 4 4 8 16 20 19 19 19 19 21 24 27 28
4 5 6 7 2 4 3 2 4 4 6 3 5 1 4 16 16 28 30 31 29 24 24 27 22 15 20 16 9 6 7 9 11 9 10 7 6 8 12 19 20 17 20 21 23 25 27 26 25
4 5 10 4 5 2 3 3 6 7 8 11 12 17 17 19 21 32 34 36 34 32 31 24 20 18 14 10 9 11 10 9 13 12 10 9 10 12 16 21 13 13 14 19 22 22 25 28 27
4 6 5 4 4 3 2 1 7 10 7 10 16 15 15 15 16 24 32 34 34 28 23 21 20 19 17 16 16 12 10 8 6 9 10 13 14 17 13 14 16 17 17 18 21 24 26 19 16
7 5 5 4 6 4 2 2 8 7 14 18 13 11 12 14 14 15 23 27 27 26 22 19 17 13 16 12 7 6 8 9 13 16 17 17 13 12 13 15 16 18 18 20 23 23 18 21 18
4 5 5 5 4 3 5 1 4 10 13 15 14 13 12 13 12 15 20 22 20 19 16 15 11 9 6 5 9 8 8 10 13 12 10 9 10 14 17 19 22 24 25 24 19 15 12 13 10
2 0 3 3 4 3 6 4 3 12 12 10 9 11 10 10 11 10 19 18 13 11 9 7 5 4 6 3 3 1 3 4 6 8 7 11 16 20 20 23 22 21 18 16 17 16 14 11 10
5 4 5 3 2 2 7 4 2 4 12 6 8 9 8 9 9 14 21 17 13 8 5 3 3 11 7 3 1 2 4 7 7 7 10 15 18 17 20 18 18 18 15 15 13 10 10 10 11
4 6 3 4 4 3 6 6 2 4 9 12 12 9 9 8 8 7 12 15 14 10 5 1 3 5 7 6 5 5 6 6 8 10 13 16 14 15 13 17 20 18 16 15 14 12 11 12 15
5 4 4 1 1 4 5 4 0 10 12 12 10 9 9 8 7 7 9 6 6 6 7 7 5 7 10 9 9 9 8 7 7 9 12 11 7 9 18 21 16 16 19 20 18 18 20 22 23
5 5 1 5 1 3 2 5 5 8 8 7 7 7 5 3 5 8 17 18 17 18 15 12 11 10 11 9 6 7 8 7 7 10 6 4 9 18 18 18 18 19 22 21 21 22 24 21 17
5 2 5 4 1 2 2 4 3 3 5 3 5 7 8 10 12 10 17 20 19 19 13 13 11 11 12 6 8 8 8 10 9 4 3 8 13 18 19 18 20 20 21 20 21 21 22 21 20
4 3 4 2 4 4 1 3 3 6 5 4 8 7 9 8 7 6 13 16 17 18 13 13 15 16 9 7 10 11 12 3 1 5 6 9 14 17 13 14 15 18 17 19 20 20 20 18 15
1 3 4 4 3 1 4 5 5 10 10 9 9 7 6 8 8 10 15 18 19 20 19 21 20 16 6 11 11 13 15 10 11 6 9 10 10 10 9 12 15 15 18 20 21 20 13 17 20

GFSSGP_925_spd_018.txt.gz
Wind_Speed
7 3 5 2 3 2 3 5 4 13 7 9 11 12 9 7 2 6 17 23 31 28 24 22 21 20 20 19 19 18 17 16 15 14 13 13 12 12 13 13 12 12 13 14 14 13 13 14 14
3 3 3 1 4 1 4 2 14 14 13 11 15 15 14 7 7 13 13 25 30 29 25 22 21 21 20 19 18 18 17 15 13 13 13 13 12 12 12 13 13 13 14 15 15 14 14 14 14
1 2 3 3 3 5 5 2 15 8 11 6 6 7 5 11 11 10 24 28 28 28 25 23 21 20 19 18 17 16 15 14 13 12 13 12 11 12 12 12 12 13 14 14 14 14 15 14 14
3 4 3 3 6 8 3 5 18 17 14 12 13 8 5 11 8 20 30 30 30 28 25 23 21 20 19 17 16 14 14 13 13 12 12 12 11 11 11 12 12 13 13 13 13 13 14 13 13
2 3 2 3 6 4 5 4 19 8 7 10 11 5 5 8 31 36 31 29 31 27 24 22 20 18 16 15 14 14 14 13 13 12 11 12 12 11 12 13 11 11 12 12 13 14 14 12 12
2 3 4 2 7 7 2 5 12 15 19 16 17 11 6 24 33 31 30 29 29 27 24 21 18 17 16 16 16 15 14 13 13 13 13 12 13 13 12 12 12 13 12 11 14 15 14 14 13
5 3 3 5 6 7 2 5 9 14 8 4 9 12 6 12 31 32 30 27 26 25 23 21 19 17 15 14 14 14 14 15 14 14 13 12 12 12 12 11 11 13 12 12 15 14 14 13 13
3 2 5 3 11 3 5 5 7 8 4 9 14 6 11 16 34 33 28 26 25 24 22 22 20 17 15 15 15 15 16 15 15 12 10 8 8 10 8 6 8 10 9 9 13 12 12 11 14
4 2 4 4 7 10 7 11 5 3 9 2 2 9 23 38 35 32 31 28 27 24 23 21 18 17 16 17 16 16 14 12 12 8 8 6 5 4 5 3 6 8 8 7 10 10 10 9 13
4 4 7 8 6 5 6 10 6 6 7 6 10 13 25 35 33 27 23 23 28 27 25 22 19 16 16 16 14 13 13 11 9 8 7 4 1 1 2 2 5 7 8 8 9 8 9 12 13
2 3 4 7 5 9 8 6 4 10 3 18 21 16 17 22 23 24 25 33 32 30 27 24 20 18 15 14 14 13 12 12 10 6 6 3 5 4 4 3 4 6 8 10 9 8 12 17 15
3 3 5 2 3 4 9 8 6 6 8 19 23 22 14 12 17 22 25 28 29 33 30 25 21 17 16 13 14 12 11 11 10 9 6 6 5 3 1 2 5 7 10 11 11 14 17 19 18
6 4 6 6 8 3 4 4 6 3 15 16 18 18 17 16 22 29 34 33 32 34 32 26 22 18 17 17 17 17 14 15 13 9 4 4 4 2 1 2 5 8 11 12 14 17 20 20 20
5 7 6 6 5 3 5 1 5 1 13 17 19 16 16 17 23 25 27 30 35 34 32 26 24 20 16 17 15 16 13 13 10 7 5 4 4 3 1 2 6 9 14 17 19 19 19 19 19
9 6 3 1 3 2 5 3 3 8 16 19 19 17 15 17 25 25 33 31 38 37 36 31 27 20 16 15 10 12 11 11 11 10 9 8 7 6 4 2 6 13 18 19 20 20 19 20 22
5 6 3 3 4 1 6 7 5 6 13 16 15 14 13 13 20 23 18 25 32 40 38 34 26 19 13 11 9 10 10 8 8 12 10 9 7 4 0 5 12 20 19 18 21 21 22 24 25
7 2 5 3 7 3 2 5 5 8 12 12 11 4 6 9 14 14 10 17 31 35 36 25 16 6 14 11 10 11 10 6 8 13 12 8 5 6 9 11 15 14 15 15 17 20 24 25 27
4 4 2 5 3 2 4 3 7 4 4 4 9 13 15 16 13 23 26 23 25 28 29 17 12 15 13 10 10 9 10 17 13 12 11 8 7 8 10 12 10 11 12 15 19 21 23 26 28
4 2 6 3 2 4 5 3 5 8 11 15 15 16 17 15 18 29 33 32 31 26 22 17 13 16 10 14 14 15 16 17 15 13 12 9 9 10 11 12 13 14 15 16 18 23 25 25 21
4 8 4 5 6 4 7 7 6 7 7 16 18 16 15 15 16 23 32 32 28 27 23 19 20 21 19 17 17 13 11 10 12 8 5 6 8 10 12 13 16 18 20 21 21 21 21 19 17
5 6 3 4 2 4 11 6 7 7 11 11 10 12 13 15 15 14 23 28 24 21 19 17 16 15 12 9 7 6 4 2 4 8 8 8 7 9 11 15 17 18 18 19 19 18 17 14 14
2 3 3 3 3 4 3 4 2 4 10 11 10 11 12 13 11 14 20 22 21 19 17 15 11 9 6 2 3 4 2 1 0 1 3 5 8 12 15 16 17 17 17 17 17 17 15 14 11
3 1 1 1 3 3 3 6 4 6 9 10 7 9 9 9 12 9 17 19 16 14 11 8 5 3 2 1 2 3 4 6 7 3 1 4 10 12 15 15 15 15 15 13 13 12 11 10 8
2 1 6 4 3 3 4 5 5 4 6 5 5 7 8 8 7 11 14 15 13 9 7 6 8 6 2 3 3 3 6 8 5 3 8 11 9 9 10 11 13 14 11 13 13 11 11 12 16
7 5 3 4 4 4 5 5 1 3 8 13 11 8 7 8 8 7 10 10 8 3 3 4 7 12 8 6 6 5 3 2 3 6 10 11 6 3 7 12 12 11 13 16 15 15 16 17 18
4 4 4 4 2 3 5 3 4 5 12 9 8 8 7 6 6 6 11 12 15 15 16 13 13 13 11 7 5 4 3 5 6 5 3 6 3 1 7 9 8 12 14 14 14 15 15 16 16
3 4 4 6 3 3 1 3 3 8 6 8 6 6 6 10 9 11 19 18 17 16 15 13 11 9 7 4 3 5 5 5 8 9 10 9 7 6 6 5 7 9 11 12 11 12 14 14 16
6 2 4 4 2 1 3 2 4 4 6 7 9 10 8 8 8 7 16 18 17 15 13 10 8 9 5 2 5 7 8 9 13 13 12 9 9 8 6 9 8 6 7 9 10 11 12 10 7
5 3 5 4 3 4 2 5 4 7 7 11 8 7 6 7 7 7 14 17 14 10 11 12 12 12 5 6 12 13 14 16 13 10 9 10 8 8 14 9 6 9 8 8 10 13 8 7 9
2 3 4 4 2 2 4 4 4 10 9 12 9 8 8 8 8 8 9 10 10 12 13 14 13 12 10 16 13 12 16 11 9 8 11 16 15 8 15 9 7 8 9 11 13 14 10 9 10

GFSSGP_925_spd_021.txt.gz
Wind_Speed
10 2 3 2 3 4 3 4 2 2 4 4 3 4 8 3 3 1 9 12 28 29 25 23 22 21 20 19 18 17 16 15 14 14 14 13 14 14 15 14 14 15 15 15 14 14 15 14 13
6 4 5 2 2 3 3 3 6 7 11 9 8 5 8 4 3 14 11 25 29 30 26 24 22 21 20 19 18 16 15 14 13 14 13 14 14 14 14 14 15 15 15 14 14 14 14 14 13
3 2 3 3 1 3 2 2 8 8 10 8 3 3 4 2 7 13 16 31 28 27 26 24 21 20 19 18 17 15 14 13 13 13 13 13 13 13 14 14 14 14 14 15 15 15 15 14 14
3 5 4 3 6 7 2 6 13 10 5 9 4 5 5 1 6 13 32 30 27 26 24 23 20 19 18 16 15 13 13 13 12 12 13 12 12 13 14 13 13 13 14 14 15 15 15 15 15
3 3 2 2 5 5 5 3 11 5 4 7 5 4 3 4 17 32 31 30 29 25 23 21 19 18 16 15 14 13 13 13 12 12 12 12 13 14 13 13 14 13 14 16 16 16 17 16 17
2 3 2 2 4 6 3 8 4 4 4 13 9 6 2 12 28 26 30 27 27 27 23 20 17 16 15 14 14 14 13 13 13 12 13 14 14 13 13 15 14 14 15 17 15 16 16 15 18
3 3 3 3 4 7 5 2 3 10 6 5 9 5 4 4 23 28 28 28 26 24 22 20 17 16 15 15 15 14 13 13 13 13 12 12 12 12 12 12 12 12 11 14 14 15 15 15 16
4 3 4 3 12 6 6 4 4 4 2 6 9 6 8 9 24 29 29 26 25 24 22 20 18 17 17 16 15 15 15 14 13 12 10 9 9 8 8 8 8 8 8 9 9 10 11 13 15
3 3 2 7 15 8 14 5 2 2 8 1 1 6 17 32 32 31 29 26 24 23 22 20 19 18 17 16 16 16 14 14 11 9 7 6 4 3 3 4 5 6 6 5 6 6 9 11 13
3 4 7 8 7 14 9 8 9 5 1 5 8 13 27 28 32 25 21 23 25 25 25 23 21 21 21 19 18 15 13 11 8 6 5 4 2 2 1 2 3 4 6 7 7 6 8 13 13
4 3 3 6 9 14 10 4 3 12 2 10 16 18 18 22 21 24 23 32 33 29 27 25 22 21 21 20 19 17 15 13 10 6 4 3 3 3 2 2 4 6 8 9 7 10 14 17 16
2 5 4 5 5 7 8 7 7 2 9 10 22 25 21 15 18 23 24 28 30 30 28 26 26 23 20 19 18 16 15 14 12 9 6 4 3 1 2 3 5 7 10 11 12 14 16 17 17
4 3 1 6 8 8 7 5 7 5 8 10 17 19 19 17 22 26 35 34 34 33 32 30 27 24 21 18 19 17 17 15 13 11 6 5 5 4 2 1 3 6 9 12 15 17 18 19 18
8 1 5 5 5 5 6 2 2 4 8 12 17 19 17 16 23 21 22 26 32 34 34 31 27 21 19 18 20 17 15 16 14 13 8 7 6 4 2 1 2 6 10 12 13 15 17 18 20
7 6 4 3 2 2 4 2 4 6 10 16 19 17 13 14 18 22 22 24 31 31 33 27 23 17 17 15 14 15 13 13 14 11 8 6 5 4 2 2 5 10 12 12 14 15 15 19 20
5 5 3 4 2 3 4 7 1 9 14 13 14 6 4 5 5 0 11 25 31 26 28 22 18 14 13 11 9 9 9 11 12 7 6 5 7 5 3 7 10 12 14 15 17 18 21 23 24
6 3 2 3 4 2 3 4 1 8 12 9 7 7 7 6 13 8 3 17 24 22 24 21 17 6 4 2 9 6 6 5 7 11 12 9 5 2 4 9 12 13 14 16 18 20 21 23 26
2 1 1 5 5 4 0 5 7 4 9 8 8 8 8 9 8 13 18 19 22 23 27 18 9 6 3 0 11 16 17 18 16 13 9 4 3 5 10 11 12 13 15 18 22 24 25 26 22
2 2 3 2 2 6 6 8 9 8 12 11 9 10 11 11 12 19 24 26 25 23 17 10 7 6 9 15 20 20 19 15 11 5 3 3 6 8 9 10 11 12 16 18 20 21 21 22 21
6 6 1 2 7 8 9 11 10 10 5 9 13 11 10 9 11 19 25 29 25 19 13 8 9 11 14 15 13 10 9 6 3 2 2 3 3 4 6 9 12 14 16 16 17 18 19 15 18
4 3 3 4 5 7 7 7 8 6 9 10 8 7 7 10 10 8 17 26 24 22 20 18 17 14 10 9 9 9 9 8 5 5 4 3 5 9 13 17 15 13 13 14 14 15 15 14 16
3 1 2 3 4 4 3 2 3 3 6 5 6 6 7 7 8 7 14 22 23 20 17 14 11 9 7 5 4 5 7 9 6 7 4 4 5 8 13 14 13 12 13 16 11 9 9 9 9
3 2 2 1 3 4 3 5 3 5 3 3 4 6 8 10 9 8 13 20 18 16 12 8 6 4 2 3 4 5 4 3 7 6 4 3 8 17 21 11 9 12 15 10 9 9 6 6 6
2 4 6 4 3 2 1 5 4 6 7 5 4 5 6 6 6 9 16 16 13 10 8 9 8 6 4 4 3 2 3 5 2 2 8 13 16 19 9 7 10 13 11 12 12 9 9 10 12
5 5 2 3 3 4 5 3 5 8 11 7 9 8 6 2 3 4 8 9 13 10 9 8 7 9 7 5 5 4 2 2 7 10 14 18 18 14 10 8 9 9 8 7 8 10 11 10 11
3 4 4 5 3 3 5 2 4 3 10 10 5 7 6 6 6 6 11 19 20 16 13 10 9 6 4 4 5 5 6 7 10 13 15 17 16 13 6 8 9 9 9 10 8 9 10 11 11
1 4 3 6 3 3 2 2 5 4 7 7 9 8 8 7 7 8 15 18 17 13 10 8 6 4 2 1 2 5 8 11 13 14 17 17 14 10 8 6 6 10 9 10 9 8 10 10 11
5 4 3 4 2 1 2 3 4 7 11 6 6 10 7 7 7 7 14 15 12 9 5 5 5 6 6 4 8 12 12 13 16 19 18 17 12 10 8 7 18 15 12 8 8 8 9 13 10
4 2 6 5 3 4 1 5 5 9 8 8 7 9 9 8 7 5 11 11 8 6 5 4 4 8 5 6 10 12 14 17 19 18 16 11 11 13 13 14 19 13 12 10 8 11 13 11 11
1 3 4 4 2 1 3 5 3 7 8 11 10 9 7 7 6 7 8 6 4 3 3 4 6 6 5 5 6 9 13 17 17 14 12 14 19 17 12 11 13 19 13 10 11 12 10 11 13

GFSSGP_925_spd_024.txt.gz
Wind_Speed
7 5 5 3 4 4 2 5 1 2 4 3 4 8 5 3 1 2 13 12 23 25 23 22 22 22 22 21 19 17 16 16 15 15 14 15 15 15 16 17 17 17 15 15 15 15 15 15 15
5 2 2 1 4 3 4 3 8 8 7 9 6 3 6 2 1 8 8 19 29 25 23 21 21 22 21 20 18 17 16 15 14 14 14 14 15 16 17 17 17 17 16 16 16 15 16 16 16
2 1 4 3 3 4 2 4 9 5 6 5 4 5 1 3 3 7 13 28 29 24 23 21 21 21 20 19 18 16 15 15 14 14 14 15 15 16 16 17 17 17 17 16 16 16 17 19 19
2 4 4 3 3 5 4 6 9 6 6 9 4 5 3 5 7 8 23 27 27 24 23 21 20 20 19 18 17 16 15 15 14 14 14 15 15 16 16 16 16 16 17 17 18 18 19 20 19
2 1 5 3 4 4 1 9 3 6 5 8 10 7 4 4 8 25 26 25 25 23 22 21 19 18 18 17 16 16 15 14 14 14 14 15 15 16 17 16 17 18 17 18 18 18 17 18 20
3 2 4 2 5 4 3 8 2 2 11 7 2 5 2 10 19 22 24 23 23 25 22 20 18 17 16 16 15 15 14 14 14 14 14 15 15 16 16 16 16 16 17 17 17 17 16 17 18
5 3 4 4 4 5 4 4 4 10 5 3 3 5 3 7 13 21 22 22 21 22 22 21 19 16 15 15 15 14 14 14 14 14 14 13 13 13 13 13 13 13 13 13 14 15 16 16 18
4 4 4 2 4 3 5 4 12 7 1 4 6 6 8 9 20 25 23 22 22 22 21 19 17 16 16 16 15 14 14 14 15 14 13 12 11 9 9 10 9 9 8 8 9 11 13 15 15
3 4 2 7 6 3 5 4 4 2 5 2 4 4 11 26 25 25 24 23 22 21 20 18 17 17 16 16 16 14 14 13 13 11 10 9 8 7 6 5 6 7 6 6 7 8 11 14 13
3 4 7 5 4 8 15 6 4 4 2 5 5 11 24 26 27 23 20 22 24 23 21 19 18 18 18 17 17 16 16 14 12 11 9 8 5 4 4 3 3 5 6 7 7 8 9 12 14
4 5 5 8 7 17 11 5 2 10 3 6 12 14 16 20 17 19 21 30 32 25 22 22 20 20 19 19 18 17 16 13 10 9 8 7 5 5 4 4 5 5 7 7 7 9 11 13 15
2 7 7 3 11 6 8 8 5 4 5 8 16 21 17 14 17 19 21 28 27 27 27 22 20 20 19 17 16 15 14 11 9 6 5 5 7 6 6 6 6 6 7 8 9 11 13 14 15
5 2 3 4 9 5 10 5 7 4 5 11 13 17 16 15 17 19 29 30 27 27 25 22 20 18 16 15 15 14 11 9 8 6 5 5 5 6 6 7 7 7 8 10 11 12 14 16 17
5 3 1 5 5 5 7 5 5 1 8 11 17 15 13 14 19 18 16 22 24 23 21 20 18 14 13 11 13 13 12 11 11 9 6 4 4 5 6 7 6 7 10 11 13 15 16 17 16
5 4 5 6 2 4 5 3 1 3 9 13 14 11 5 3 8 12 19 22 22 20 20 19 13 7 9 9 10 11 13 13 11 7 3 4 6 7 7 5 6 9 10 11 12 13 13 16 18
5 5 3 3 2 2 4 5 5 6 14 7 8 7 7 4 4 3 10 18 15 17 15 15 16 4 5 7 7 7 6 6 5 3 6 8 8 6 5 7 9 9 11 12 12 14 17 19 21
6 3 3 1 2 2 4 1 7 4 6 7 6 6 6 5 9 5 5 12 17 18 21 22 16 11 9 2 8 4 4 7 11 11 9 7 6 6 8 10 8 8 10 11 14 16 17 17 15
4 3 0 2 1 10 6 5 8 7 6 6 7 7 7 6 7 8 6 13 18 22 26 24 13 10 5 7 14 14 16 16 12 8 4 3 7 5 6 6 8 12 13 16 18 18 16 14 14
5 3 2 2 2 8 5 6 8 8 9 7 6 7 7 7 7 12 18 21 26 26 24 15 14 8 18 21 21 16 13 9 3 4 4 1 0 3 7 8 11 14 18 18 18 19 18 16 19
6 5 3 2 6 7 7 10 8 9 4 4 6 7 7 6 6 13 22 25 25 22 16 15 14 17 16 16 11 5 8 7 7 5 3 1 2 4 7 11 16 19 18 16 18 18 13 10 13
4 5 1 3 3 6 5 5 6 5 6 6 6 4 4 8 9 6 16 20 21 21 19 19 20 21 16 9 9 9 6 5 6 5 3 2 3 6 12 18 17 13 14 17 18 13 12 11 11
3 1 3 5 3 3 3 3 3 2 3 3 3 3 5 6 5 5 10 20 19 18 18 17 15 13 11 8 3 4 3 6 5 5 2 3 7 9 17 18 12 13 15 15 12 11 11 10 8
2 5 5 4 5 4 4 5 3 6 3 4 5 5 3 4 6 7 9 14 13 11 12 12 10 7 4 2 2 2 2 2 2 1 4 6 11 14 16 12 10 9 10 7 8 7 7 8 8
3 5 8 5 3 2 0 4 4 6 7 6 4 5 4 2 2 2 12 10 9 8 9 8 7 6 2 1 2 3 3 3 1 4 7 10 14 16 12 10 8 7 9 11 11 10 9 9 9
6 6 3 3 3 4 3 3 6 7 6 9 10 7 6 5 4 5 11 12 7 10 11 11 9 10 7 6 5 6 5 4 6 9 12 15 16 19 17 11 7 8 8 9 10 9 10 10 11
3 5 4 5 3 3 3 3 4 4 8 9 5 7 6 7 6 5 8 11 16 15 13 12 10 6 4 4 4 6 6 8 9 13 15 17 19 18 12 8 8 7 10 24 13 13 12 12 13
2 3 3 6 2 2 2 3 4 5 6 8 8 7 7 6 5 6 13 14 16 15 11 8 5 3 2 2 4 6 8 10 14 16 19 21 20 15 11 12 12 14 21 13 16 14 12 13 13
2 5 3 3 2 3 3 4 4 5 8 8 8 8 7 6 7 6 13 14 13 10 9 7 6 3 0 3 4 8 9 10 13 16 17 19 17 15 16 19 17 18 19 15 12 14 13 13 13
2 2 6 5 3 4 1 5 5 13 13 14 8 8 10 10 8 6 11 9 7 8 7 7 5 3 1 3 5 6 9 12 14 14 14 14 15 18 24 21 16 14 8 14 15 13 17 15 13
1 3 4 4 3 1 3 6 3 7 8 8 9 10 6 6 7 7 8 6 5 5 7 4 1 0 1 3 5 8 11 10 9 10 12 14 19 23 22 17 12 15 19 14 15 18 16 14 14

GFSSGP_925_spd_027.txt.gz
Wind_Speed
4 3 2 1 3 2 2 1 2 7 4 4 6 6 8 8 2 1 9 11 26 25 20 21 23 24 23 22 21 20 19 18 17 17 16 16 16 17 17 17 16 15 15 15 15 16 18 18 18
3 1 1 1 2 2 1 3 10 9 10 7 8 6 6 3 2 5 8 13 28 23 22 21 21 22 22 21 19 19 18 17 17 17 17 17 18 18 17 17 17 15 15 15 15 18 19 20 19
2 3 1 2 3 4 3 13 17 13 3 6 3 6 3 4 6 9 4 19 22 24 22 22 21 22 20 18 17 17 17 17 17 17 17 17 18 17 17 17 17 16 17 17 19 21 21 20 19
4 2 1 1 3 1 1 16 18 9 8 11 3 5 5 1 9 12 18 20 22 22 21 22 22 21 19 17 16 16 16 16 16 17 16 17 17 17 17 17 18 18 19 19 19 19 19 21 21
2 2 1 2 2 1 4 12 9 11 7 9 5 7 3 4 10 20 24 22 22 20 19 21 20 19 17 16 15 15 15 15 16 16 17 17 17 17 18 18 18 18 18 18 18 18 18 19 20
1 1 1 3 3 3 5 8 16 14 10 5 3 5 3 10 17 20 22 21 19 22 20 19 19 18 16 15 15 16 15 16 16 17 18 17 18 17 17 16 16 16 17 16 16 16 17 17 18
0 1 3 7 6 4 5 10 11 10 6 4 5 5 4 8 17 20 20 19 18 20 19 18 17 16 15 15 15 14 14 15 16 16 16 17 15 15 14 14 12 11 12 12 13 15 15 15 15
2 2 2 3 7 6 4 8 5 7 5 4 4 5 6 11 19 19 18 19 18 18 18 18 16 15 14 15 14 14 14 16 15 15 15 14 13 11 11 10 9 8 8 8 9 11 12 13 13
3 2 4 7 12 4 4 0 2 3 4 3 3 3 10 23 24 22 20 18 16 18 19 18 17 16 15 15 14 13 13 14 13 13 12 11 10 8 8 7 6 6 6 6 8 9 10 12 12
2 1 6 8 10 9 3 12 9 4 7 2 4 10 20 21 20 19 16 15 14 20 19 17 17 16 15 15 14 13 13 13 11 9 9 7 6 5 4 4 4 6 7 8 8 8 10 12 13
4 4 3 7 7 15 18 3 3 9 11 6 10 15 17 18 16 17 16 16 19 19 19 18 16 16 14 13 13 12 11 10 8 7 6 4 3 3 3 5 6 8 7 7 7 9 12 14 14
3 5 6 8 10 10 8 10 7 9 1 3 14 21 19 16 16 18 19 19 17 18 17 16 14 13 12 11 11 10 9 7 5 4 4 3 4 6 8 7 7 6 7 6 8 11 13 14 15
4 4 4 2 7 7 7 3 4 6 3 12 17 16 17 17 18 16 12 11 14 15 17 15 13 11 10 6 5 5 5 5 5 5 3 4 6 7 8 8 7 6 5 6 8 11 13 14 14
5 4 4 4 8 6 6 3 3 2 7 14 17 16 15 16 18 14 13 13 14 14 14 13 12 9 7 4 1 4 7 8 7 4 3 3 5 8 8 7 6 5 7 9 10 11 12 13 15
6 6 4 4 4 4 8 5 5 5 9 14 13 10 11 11 12 15 13 12 13 13 14 14 11 5 5 2 4 4 9 11 9 3 3 6 8 7 6 5 5 5 5 6 8 11 13 13 15
3 4 4 2 4 2 2 5 5 5 9 12 12 10 10 6 7 4 6 10 10 11 11 14 16 16 18 18 10 10 15 8 5 7 6 7 7 6 3 1 1 3 5 9 12 14 14 13 13
6 3 2 4 6 5 1 2 7 7 9 8 8 8 8 5 6 6 2 8 13 13 18 20 21 20 14 6 8 14 7 3 8 10 9 8 6 5 4 3 5 6 10 12 14 12 12 11 11
4 4 0 3 4 10 9 4 9 7 7 8 6 6 6 4 5 6 7 11 15 18 23 25 21 18 9 14 3 9 9 12 12 9 5 8 5 2 3 6 9 12 15 14 12 11 11 10 11
5 4 4 3 2 7 5 5 8 5 7 7 6 6 6 5 4 6 10 14 17 21 25 23 22 19 7 11 16 15 15 13 9 7 8 4 2 3 9 12 13 15 13 13 14 12 12 12 14
4 9 4 4 2 5 4 9 8 6 3 2 7 7 7 8 8 9 13 16 16 19 18 18 14 11 15 19 18 14 12 8 8 8 6 4 4 8 10 16 15 13 10 13 15 12 9 9 10
3 6 3 5 6 6 4 3 3 5 5 5 4 6 8 12 12 11 13 14 15 15 16 15 15 17 17 17 14 8 8 8 7 5 2 4 5 7 11 14 9 8 9 9 9 8 8 10 9
4 1 5 8 2 2 3 2 1 3 4 5 7 10 10 12 11 11 13 11 12 13 16 18 21 18 19 12 8 7 2 2 2 1 2 3 8 9 12 10 9 7 8 8 7 7 7 7 8
4 3 4 3 4 3 1 2 1 4 6 9 9 8 7 8 9 11 14 16 17 15 14 15 16 14 11 6 4 2 4 6 7 5 4 5 9 12 14 12 10 9 9 9 8 6 5 6 7
9 5 6 4 2 2 1 3 4 7 10 13 10 8 8 8 9 11 12 14 15 16 16 15 11 10 7 6 7 10 10 8 6 6 7 9 13 15 16 15 13 10 8 7 6 9 6 6 6
3 4 1 1 0 3 2 3 5 8 7 17 15 12 11 10 10 10 12 11 12 13 13 13 11 12 11 10 9 9 7 6 5 6 8 11 12 15 18 16 14 13 11 10 11 9 8 8 8
3 2 4 4 3 1 1 5 1 3 8 15 15 14 11 11 9 8 10 9 9 10 12 12 10 10 8 8 7 5 3 5 7 11 14 15 18 20 20 16 14 15 15 10 12 9 10 9 8
3 2 2 6 2 0 2 3 5 2 7 11 14 13 14 13 11 10 9 9 11 11 11 9 8 7 7 6 2 1 5 6 7 9 12 14 15 15 13 14 17 17 12 13 13 10 11 12 12
1 7 3 2 3 3 2 4 6 4 11 13 15 16 14 12 10 9 11 12 11 9 8 8 9 8 6 4 2 1 2 3 7 10 12 12 14 16 19 20 16 14 13 14 14 11 13 15 13
3 2 5 4 1 2 2 4 4 9 14 17 17 16 15 12 10 10 12 11 9 9 8 8 8 6 6 4 4 4 3 7 9 9 10 12 15 19 21 21 18 16 15 14 15 12 11 14 14
1 3 4 3 4 1 0 5 1 5 8 12 14 10 9 10 10 12 13 10 9 9 8 7 5 5 6 5 3 3 7 7 7 9 10 15 19 22 21 18 12 9 13 14 12 9 10 11 10

GFSSGP_925_spd_030.txt.gz
Wind_Speed
2 3 3 5 7 6 9 6 1 9 9 9 7 3 9 15 5 2 15 14 24 23 24 22 22 22 22 20 19 17 16 15 15 15 15 15 15 16 16 15 15 14 14 14 16 17 17 17 18
2 2 5 3 7 9 5 0 5 12 16 10 8 8 10 6 7 10 14 18 22 25 25 21 22 22 21 19 18 16 15 15 15 15 16 16 17 17 16 15 14 14 14 15 17 17 18 17 17
4 5 4 4 7 10 2 8 16 16 15 10 5 7 4 4 7 9 11 18 20 21 22 21 23 21 19 18 17 15 15 15 16 16 16 16 17 17 16 16 15 16 16 17 17 19 21 19 18
6 7 4 8 7 4 2 13 17 16 13 9 4 4 4 1 3 8 13 19 19 21 20 22 22 21 19 17 16 15 15 15 16 16 16 16 16 16 17 17 16 16 16 16 17 18 18 18 20
6 3 7 7 3 3 7 15 9 6 10 6 10 11 7 7 14 22 20 23 22 19 19 20 20 18 17 16 15 15 15 15 15 16 16 15 16 17 16 17 16 16 16 16 16 16 16 17 18
6 3 7 9 3 5 9 11 13 10 12 4 1 9 6 8 14 19 23 24 21 20 19 17 17 16 15 14 14 14 14 14 15 16 15 16 17 16 15 14 14 14 15 15 15 14 14 15 16
9 6 7 1 6 10 9 9 11 11 14 8 3 11 4 9 13 18 21 19 17 17 17 16 16 14 13 12 13 13 13 13 14 15 15 15 15 14 12 11 10 10 11 11 12 13 13 14 15
4 5 7 6 7 11 9 8 11 3 2 7 6 6 6 10 17 16 16 16 16 14 14 16 15 14 12 11 12 12 13 13 13 13 13 12 11 10 9 9 6 6 7 7 8 9 11 11 12
3 7 8 9 10 11 9 2 3 3 4 2 1 2 11 23 20 17 16 15 13 13 13 15 14 12 11 11 10 11 12 12 11 9 10 8 5 5 5 4 5 5 5 6 6 7 8 12 13
8 8 2 3 6 11 14 8 8 4 8 4 6 9 22 21 21 19 16 14 13 13 13 13 12 11 11 10 10 9 8 7 7 6 5 4 3 3 3 3 3 5 5 5 5 7 10 11 11
7 6 7 6 11 14 15 9 8 11 6 10 9 17 18 18 16 16 16 15 14 15 13 12 11 11 10 9 9 8 7 6 4 3 3 2 2 2 2 3 2 3 3 2 5 6 8 11 12
8 6 3 13 13 10 20 22 15 13 7 2 8 21 20 17 17 18 19 19 18 15 13 12 11 11 10 9 9 8 5 4 2 2 1 3 3 3 3 3 2 2 2 3 5 6 8 10 12
11 5 5 5 3 14 13 11 6 5 3 10 18 20 19 17 17 15 16 15 16 15 12 12 12 12 10 10 7 6 4 2 2 2 2 1 4 4 4 3 2 2 2 3 5 7 9 11 12
4 5 5 7 9 8 10 6 7 6 6 13 17 15 15 15 17 16 14 13 12 13 13 12 11 11 10 10 8 5 3 3 6 8 2 4 3 5 5 4 3 1 1 3 6 9 11 13 15
10 11 7 3 8 7 9 9 5 5 4 12 13 12 12 12 13 13 12 12 13 14 14 14 12 10 9 9 8 6 3 4 8 9 7 9 8 6 4 2 1 2 4 6 8 10 12 15 18
6 7 6 5 11 5 13 11 6 2 9 12 14 11 11 11 12 11 10 11 13 14 16 15 14 14 14 12 11 10 10 12 10 5 6 7 8 7 5 4 3 6 7 8 9 11 15 18 17
6 7 7 7 1 7 10 7 5 2 9 11 11 11 12 10 9 7 8 11 14 16 19 20 18 19 16 10 4 16 12 7 5 7 10 11 10 5 4 5 5 6 6 8 11 13 14 17 17
13 7 11 10 4 8 9 5 4 4 11 11 12 11 12 11 8 7 7 10 14 17 21 23 22 24 18 11 10 11 6 6 7 7 8 6 4 4 5 5 4 6 7 9 11 13 14 16 16
6 8 11 8 4 7 6 6 4 4 9 11 11 11 11 10 8 8 9 13 16 17 20 21 22 22 16 10 10 9 8 9 9 4 5 5 5 5 4 3 5 6 7 8 9 12 15 16 16
6 8 7 5 4 4 9 7 6 5 8 9 11 11 11 9 9 10 11 13 15 18 18 19 19 13 9 10 10 8 9 7 6 6 6 5 4 3 3 5 5 5 6 7 9 11 14 16 16
4 5 11 8 8 2 10 7 8 5 6 6 7 6 7 8 9 10 13 15 16 17 16 17 14 13 12 11 10 8 8 7 6 4 3 3 3 2 3 3 4 5 8 10 9 10 12 16 17
6 1 7 14 12 7 9 7 9 6 6 7 8 9 9 10 11 13 16 17 18 17 15 15 15 15 12 10 7 6 3 4 2 3 3 2 1 2 4 6 6 8 10 10 10 10 12 15 16
4 5 6 5 5 5 10 8 8 8 9 11 11 12 13 13 13 14 17 17 15 14 15 16 15 13 11 6 5 5 4 6 6 4 2 3 4 7 9 10 10 11 12 12 9 9 17 16 14
11 8 6 4 3 7 3 6 5 9 12 15 15 14 14 13 14 16 16 15 15 13 13 14 15 11 9 8 8 8 8 5 2 1 5 7 10 12 13 13 13 14 14 13 11 14 17 14 13
6 9 3 4 4 6 2 6 12 1 2 15 19 16 15 15 15 15 16 16 14 12 12 12 13 13 12 11 9 7 5 3 1 4 7 11 13 15 17 17 16 16 16 14 13 16 17 14 14
6 5 4 4 4 2 3 6 1 1 3 11 17 17 17 17 15 15 17 15 14 14 13 13 13 13 10 9 8 7 3 1 3 5 8 10 13 15 15 15 15 16 16 17 17 18 17 16 13
6 5 3 2 1 3 5 4 8 2 7 11 17 17 18 18 16 15 16 14 14 13 13 11 10 9 9 8 5 3 0 1 2 4 7 9 10 12 14 16 18 19 19 19 18 20 19 17 14
3 8 3 3 3 4 3 5 2 6 10 13 18 19 18 17 16 13 15 14 14 13 12 9 9 9 8 6 3 2 3 1 2 4 7 8 11 14 18 20 21 21 20 19 19 20 19 15 15
4 4 1 0 2 2 3 1 3 2 8 14 18 19 18 17 15 13 14 15 15 13 12 11 10 9 8 6 5 5 3 1 3 5 7 9 13 17 20 20 20 19 18 17 18 19 15 13 14
2 4 7 4 4 1 2 3 3 1 3 10 14 16 16 16 14 13 17 18 16 15 13 12 10 10 9 7 7 4 2 4 5 6 8 11 16 18 19 18 17 16 15 16 16 15 9 11 14

GFSSGP_925_spd_036.txt.gz
Wind_Speed
9 9 11 15 6 7 16 19 12 10 9 16 14 15 19 17 9 4 17 34 34 33 30 28 27 25 23 22 20 19 17 16 17 18 18 18 18 18 18 18 19 20 20 20 19 19 20 20 20
10 15 13 6 9 12 13 15 17 13 8 11 14 9 16 16 13 13 14 31 31 30 29 26 26 25 23 21 19 19 17 17 17 18 18 18 18 17 17 18 19 19 19 20 21 22 23 24 23
10 12 7 6 12 14 13 15 13 9 11 10 6 10 7 3 6 3 19 29 30 29 27 27 25 24 22 19 19 19 17 18 18 18 18 17 17 17 18 18 18 18 18 19 21 23 24 24 25
9 10 7 9 18 21 6 11 7 11 13 9 12 10 7 9 3 8 19 27 28 26 24 27 24 24 20 17 17 18 18 18 18 18 17 16 16 16 16 17 17 18 18 19 20 21 21 21 23
16 7 11 14 18 20 4 14 10 13 5 4 9 8 7 5 17 9 14 17 24 27 27 26 22 21 21 18 16 18 18 17 18 18 16 16 16 16 16 16 17 16 17 17 17 17 18 20 22
9 10 13 15 21 15 8 18 15 16 15 4 12 9 6 11 14 7 6 9 17 25 29 25 22 21 21 18 18 17 17 17 17 17 16 16 16 15 14 14 15 15 15 16 15 16 17 19 20
14 12 16 20 18 11 4 15 12 7 5 7 3 10 11 13 15 9 9 9 16 27 23 23 22 21 21 21 18 17 16 17 17 17 17 16 14 13 11 11 11 11 11 12 12 13 13 14 17
12 12 21 19 18 5 9 9 13 3 4 4 10 3 11 23 23 16 7 13 18 25 18 22 23 23 23 22 19 17 16 16 17 17 15 14 13 11 9 8 7 8 7 7 9 10 10 13 11
17 12 14 19 8 3 14 8 14 7 9 4 1 4 23 25 25 28 19 14 22 25 22 20 22 22 22 21 18 16 16 16 16 15 13 13 9 9 6 5 5 6 5 7 9 10 10 16 16
12 11 19 4 12 4 6 13 6 8 12 11 12 17 26 27 25 24 16 14 17 30 22 18 21 23 20 18 18 17 18 17 14 11 7 5 5 7 2 3 3 5 6 5 7 9 10 12 12
15 16 13 15 22 22 14 22 3 3 2 4 11 17 17 20 20 20 24 23 30 27 23 22 24 20 23 19 19 16 17 15 11 7 7 8 5 3 1 1 2 2 4 5 8 6 8 9 12
14 15 16 12 18 18 16 11 13 8 4 8 15 20 17 16 15 15 18 22 26 24 25 22 21 15 22 18 19 17 17 18 13 9 6 3 4 6 4 3 4 3 7 7 8 9 8 12 13
14 16 8 10 7 5 11 21 10 6 10 2 18 18 16 14 17 21 21 23 24 22 22 20 21 18 20 18 19 21 14 15 9 8 6 7 9 6 5 4 4 5 2 3 5 11 14 15 16
10 13 11 5 9 7 12 15 16 25 11 12 17 17 12 13 20 22 21 23 23 22 23 22 20 20 19 18 17 16 13 12 8 5 4 4 4 3 4 6 2 1 3 9 12 11 14 15 17
6 10 8 5 7 13 27 14 3 12 19 16 15 15 14 13 19 19 22 21 25 24 24 24 24 22 21 21 19 16 14 10 6 4 3 2 4 5 4 4 2 3 8 8 7 11 13 15 16
11 9 6 8 11 9 15 3 12 7 12 14 16 15 14 13 17 18 23 20 25 27 26 25 22 23 24 21 18 16 12 5 7 3 7 5 4 5 5 1 3 5 7 6 7 10 13 15 17
5 9 13 9 10 9 7 9 9 6 14 14 11 12 12 13 16 16 21 20 23 26 24 22 22 26 26 22 17 10 7 5 5 3 5 5 5 4 3 6 5 3 4 5 5 9 13 16 18
7 10 12 11 14 12 12 12 12 12 11 13 13 13 12 12 13 21 19 20 20 27 26 20 22 22 23 18 9 5 4 1 2 6 6 8 6 6 6 3 1 3 4 4 8 9 11 14 17
8 12 11 10 7 11 15 16 16 13 14 13 12 12 12 13 13 13 10 14 17 28 25 24 21 16 18 12 8 5 7 10 10 9 9 7 6 6 5 3 2 2 4 7 8 8 11 12 15
10 13 5 7 5 6 11 10 15 14 15 15 13 14 14 13 12 14 14 14 17 26 25 26 24 19 16 14 9 10 12 11 10 11 9 9 8 6 3 2 1 3 5 9 9 10 12 13 14
14 5 6 11 7 7 11 10 13 12 14 15 15 16 15 17 16 13 13 13 13 22 27 26 22 16 18 16 15 15 14 13 13 11 10 10 8 5 2 1 2 4 6 10 12 13 13 10 15
8 12 9 13 8 8 7 7 5 11 12 14 15 13 14 16 15 15 15 17 18 20 23 23 21 20 22 19 17 18 16 15 16 15 16 13 9 5 3 4 5 7 8 11 13 13 16 15 14
3 12 13 8 8 3 9 8 18 10 14 17 13 13 15 16 16 16 17 18 15 19 19 21 24 26 20 17 17 17 10 14 10 10 10 7 5 7 7 7 5 7 9 12 16 19 17 12 14
10 9 10 9 6 3 19 13 7 13 17 14 15 14 12 9 9 10 17 18 20 22 26 27 24 20 17 14 9 12 10 11 12 9 8 4 3 3 4 4 7 11 14 14 16 18 17 15 18
9 9 2 8 6 5 11 5 7 19 18 23 23 13 11 8 10 11 14 21 24 24 20 20 18 18 17 14 10 9 10 8 7 5 2 2 4 4 7 8 10 11 14 17 19 20 21 19 19
18 10 2 1 2 11 3 5 4 11 7 7 14 11 11 11 10 11 13 16 18 17 17 20 19 19 17 14 13 12 12 9 7 7 3 3 5 5 8 9 8 12 15 17 19 20 20 18 15
7 2 4 9 6 3 6 16 8 7 7 7 13 12 13 12 13 13 16 19 19 18 18 19 20 19 19 17 15 13 11 9 8 4 5 3 4 5 5 8 11 14 16 17 19 21 21 16 15
5 7 3 2 2 5 7 8 8 6 7 5 12 13 12 12 13 13 16 18 21 20 21 19 18 20 21 19 15 12 11 8 6 5 5 5 5 5 8 9 12 14 15 16 18 13 14 18 17
5 6 5 6 4 1 4 4 6 8 6 5 6 14 13 14 13 13 15 20 19 20 19 18 18 18 20 18 16 14 10 12 9 10 8 6 6 7 8 11 13 14 16 13 17 18 18 13 11
7 10 11 3 5 2 1 5 5 5 5 5 6 8 13 13 14 14 16 19 18 18 17 17 17 16 18 18 17 15 12 10 14 7 8 7 6 8 9 11 13 14 13 13 14 15 14 9 9

GFSSGP_925_spd_039.txt.gz
Wind_Speed
8 8 8 2 2 2 5 6 1 5 5 7 13 14 14 6 5 3 20 23 36 35 35 33 30 28 27 25 22 22 23 24 24 22 22 24 23 23 23 24 25 25 24 25 26 27 27 24 23
8 6 4 2 3 0 6 8 8 6 5 1 7 5 9 7 6 12 17 32 35 35 35 34 32 28 26 24 23 23 23 24 24 24 22 23 23 23 24 24 25 25 23 23 24 27 28 28 26
9 6 2 4 3 8 4 1 7 7 6 3 5 6 4 4 3 5 26 33 36 32 36 35 32 30 26 25 24 24 25 24 24 24 23 22 24 23 24 23 24 23 22 22 24 26 28 29 26
1 4 4 1 9 15 10 5 11 10 7 6 10 8 5 11 1 15 29 33 36 36 36 33 30 29 26 26 25 26 25 24 24 23 23 22 23 23 22 22 22 22 22 22 23 24 27 28 26
4 2 3 3 12 4 8 12 6 6 3 8 7 4 4 6 14 24 23 23 25 36 37 32 29 27 26 26 24 26 25 24 23 21 22 23 23 23 21 21 20 20 20 20 21 22 23 25 25
3 2 2 5 12 9 7 5 4 5 3 5 7 8 4 11 16 15 17 21 27 31 32 28 26 23 21 24 25 25 24 23 22 21 21 22 22 21 20 19 18 17 18 18 17 18 19 22 24
5 2 7 11 14 7 6 8 4 1 4 6 8 5 5 7 16 18 18 20 33 36 29 26 21 19 22 24 25 25 23 22 22 22 21 21 20 18 16 15 14 13 14 14 14 14 16 15 23
4 3 7 10 14 3 2 1 8 1 3 1 3 4 5 8 23 23 26 31 30 28 30 28 18 24 26 24 23 24 23 22 22 21 20 18 17 15 12 11 10 10 11 12 11 12 17 14 10
2 2 9 15 1 7 9 7 7 15 6 7 7 7 16 25 29 33 30 30 30 29 30 22 19 23 23 23 23 23 22 23 22 21 19 18 14 13 11 9 8 8 10 13 12 10 10 12 14
3 4 12 5 5 7 6 9 12 5 5 5 7 17 29 21 25 28 23 23 27 25 21 23 22 22 24 24 23 23 23 22 21 18 15 14 12 10 7 8 9 10 10 10 9 10 10 12 12
6 10 9 1 5 7 8 6 3 8 4 6 10 8 15 17 16 24 28 34 29 21 24 23 25 24 23 24 25 25 24 21 17 14 13 12 13 11 6 9 9 8 9 7 10 10 10 12 13
3 10 13 7 6 6 8 6 3 5 3 3 20 24 20 13 14 19 29 30 31 35 29 28 28 26 26 27 27 25 23 20 16 13 10 10 10 7 6 4 5 9 10 12 7 8 10 10 9
8 9 9 7 8 7 11 3 5 4 11 16 14 17 18 15 17 24 34 34 36 28 30 35 30 27 26 24 22 18 19 20 16 13 9 8 13 16 15 13 12 10 7 7 5 7 8 8 11
8 6 12 10 16 6 8 5 6 7 9 11 13 11 10 16 25 28 33 31 29 30 31 28 24 23 24 22 28 24 19 17 16 10 6 9 12 8 7 7 7 7 5 5 5 6 8 9 11
7 2 6 10 10 3 10 7 2 5 7 12 13 11 12 15 27 32 31 30 34 30 28 29 28 21 24 27 25 22 20 19 14 7 6 10 9 9 10 10 7 4 5 5 4 4 5 10 11
4 4 3 4 11 8 10 6 7 10 10 13 13 11 8 14 24 27 31 33 35 33 29 29 26 23 26 23 20 20 16 12 10 7 8 9 9 10 10 5 5 8 7 5 3 4 7 8 10
4 2 1 4 15 9 4 5 9 6 16 14 12 9 9 9 18 28 32 36 37 34 32 28 24 27 26 24 22 16 12 9 11 12 11 13 12 9 8 8 7 7 5 1 2 6 6 9 11
2 3 6 8 10 6 7 7 5 8 9 11 12 9 10 10 13 27 33 33 38 35 34 30 30 29 25 24 19 13 10 11 12 12 13 14 13 12 7 4 4 5 2 2 6 4 5 9 10
1 6 11 5 8 7 11 6 10 10 7 9 9 9 9 13 15 27 32 35 39 38 37 35 34 29 28 24 19 16 16 14 15 13 15 12 11 11 8 7 6 6 3 4 6 5 10 9 9
7 14 7 8 4 6 9 8 10 11 8 12 12 11 11 8 9 14 24 28 35 39 35 38 37 33 28 22 16 13 15 14 16 14 13 11 9 10 8 7 5 3 1 3 6 9 11 9 7
14 5 14 6 3 2 5 4 5 8 6 7 11 14 16 16 12 8 12 26 31 35 36 36 33 27 25 20 17 16 15 16 17 15 15 12 12 10 5 2 4 3 4 6 8 10 10 7 12
8 4 5 9 2 3 3 2 2 5 10 8 10 13 15 14 14 13 15 21 27 28 36 35 30 23 23 24 24 25 23 23 22 18 18 17 14 10 6 5 4 5 4 6 7 9 14 16 13
7 6 5 5 4 4 2 4 7 3 3 4 7 9 12 15 16 15 16 23 30 31 33 30 25 22 23 22 27 25 25 23 23 20 21 17 13 8 7 6 4 4 2 5 8 10 12 12 9
8 3 4 6 3 2 6 5 4 9 17 6 11 6 9 9 17 15 20 25 28 30 29 26 26 23 23 22 26 24 21 23 26 25 20 16 10 9 8 5 2 2 6 9 12 14 16 16 18
4 4 3 5 5 5 9 3 13 13 8 13 18 14 7 9 13 14 15 19 26 26 27 25 25 24 23 21 21 19 26 23 22 22 19 18 14 10 5 3 6 8 9 11 13 14 15 16 17
4 5 4 5 2 4 10 4 4 13 7 10 10 5 5 9 9 15 17 20 23 24 23 26 26 29 26 21 18 17 18 20 19 18 15 11 7 4 3 3 5 7 10 12 15 18 17 17 11
1 3 5 6 4 4 5 4 5 8 5 6 5 5 8 8 8 9 12 22 25 24 25 26 30 30 26 22 19 18 17 16 15 11 7 7 5 5 4 1 5 9 11 13 15 13 8 11 13
4 3 4 3 4 4 3 3 4 4 6 9 10 9 8 8 8 8 12 21 24 21 19 18 20 26 24 22 22 21 18 15 9 9 7 4 5 5 4 5 5 8 11 13 8 9 13 15 11
1 2 3 3 4 4 0 4 1 6 8 9 9 12 12 10 9 9 12 25 28 25 21 19 14 23 25 25 23 19 16 10 11 7 6 6 7 7 5 6 8 10 11 7 9 12 14 11 6
5 5 2 4 4 2 5 5 2 5 7 8 8 11 11 13 12 11 16 24 28 31 29 28 21 20 27 25 21 19 15 13 6 7 7 8 13 9 8 8 8 10 11 11 9 9 8 8 8

GFSSGP_925_spd_042.txt.gz
Wind_Speed
6 3 2 2 3 4 4 7 3 2 2 2 3 10 9 5 1 2 13 15 33 30 34 33 33 32 30 27 26 25 25 26 28 29 28 29 28 26 28 28 28 27 27 29 30 30 30 33 36
3 3 1 2 4 2 5 5 5 4 5 7 3 4 5 4 3 8 12 24 29 32 33 34 35 33 30 27 26 26 27 28 28 27 28 29 28 26 28 28 28 28 29 30 30 31 30 32 38
4 4 3 4 4 6 4 4 7 3 5 3 3 6 3 3 9 10 17 29 30 31 34 34 34 33 29 27 27 27 28 30 28 27 27 27 26 26 28 28 28 28 27 30 31 30 29 28 37
2 4 3 3 10 4 6 1 3 4 1 6 6 7 4 8 3 14 32 33 28 32 33 33 32 34 30 27 27 28 29 30 29 27 27 25 26 27 27 27 26 25 27 28 29 29 27 26 29
2 3 1 3 3 5 5 6 2 2 2 4 1 3 4 10 20 28 31 29 32 32 33 33 28 30 31 27 27 27 28 28 28 27 28 27 28 27 26 25 24 23 24 25 25 25 25 23 22
3 3 1 4 3 2 1 5 1 4 7 4 4 5 4 13 17 22 20 21 29 30 27 28 28 27 29 27 27 27 27 27 28 28 28 28 28 26 25 23 22 21 20 21 21 21 22 21 20
4 3 4 2 3 3 4 3 2 1 5 6 3 4 2 13 20 20 17 28 24 24 28 29 27 24 21 23 26 26 26 26 27 28 27 26 25 24 22 20 19 18 18 17 17 17 17 15 18
4 4 3 3 2 4 2 3 9 13 6 10 3 4 4 3 22 28 34 34 38 38 28 25 23 21 15 23 24 24 25 26 26 26 26 24 21 20 18 17 16 16 16 16 16 16 15 14 15
3 0 6 3 1 4 4 3 3 4 7 5 4 5 16 22 28 28 26 26 31 33 30 28 21 21 23 23 23 23 25 26 26 25 23 21 19 16 15 15 15 15 17 15 13 13 12 13 15
3 2 3 6 6 6 7 1 3 3 8 6 14 20 18 23 26 22 18 20 29 31 28 28 22 25 25 24 25 26 26 25 24 22 21 19 17 15 14 14 15 15 14 12 12 12 12 11 11
3 6 4 4 5 6 7 2 2 2 4 7 15 18 14 21 23 24 25 27 32 30 29 26 26 26 27 27 26 26 25 23 20 17 17 14 14 12 13 15 14 12 9 9 13 11 11 11 10
3 9 2 4 6 5 5 5 2 3 3 9 16 19 21 17 22 27 31 29 32 32 26 27 28 29 26 27 26 26 24 20 16 13 13 13 12 10 12 12 10 10 11 15 12 10 9 9 9
6 7 1 11 8 5 6 6 5 3 9 18 19 21 19 17 21 21 24 24 23 34 28 23 30 28 28 27 26 25 23 18 14 11 12 13 13 12 14 14 14 16 13 11 9 6 6 7 9
5 7 11 9 7 2 6 2 9 4 13 17 16 18 16 17 25 25 19 22 24 27 30 26 32 29 28 28 24 23 17 18 19 15 14 17 17 17 17 18 17 15 10 6 3 5 6 8 9
4 6 7 7 2 5 4 4 5 6 6 16 15 16 14 17 26 27 25 24 33 33 26 31 31 29 28 26 22 22 24 21 17 13 14 15 16 16 17 17 14 11 7 3 2 4 5 7 10
5 8 5 7 9 2 1 5 3 10 7 8 10 12 13 17 27 27 29 32 35 27 32 33 30 27 26 26 29 27 22 17 15 12 12 15 15 13 14 13 10 8 6 2 2 3 6 8 4
5 3 5 3 6 8 5 4 5 6 11 8 8 10 14 17 22 27 29 32 32 35 37 32 29 32 32 32 28 23 18 15 12 10 11 13 13 13 11 10 10 7 7 5 3 4 5 2 3
4 2 2 4 5 4 4 5 2 7 14 12 10 8 14 16 20 31 34 34 35 38 39 32 30 34 33 29 24 20 17 14 11 11 11 13 14 13 11 9 8 8 7 5 3 3 3 3 3
4 1 4 7 8 6 9 7 9 9 9 9 10 10 14 17 22 31 33 35 37 37 39 35 35 34 32 29 25 20 17 12 11 12 14 15 15 13 10 11 11 10 7 4 3 2 5 5 4
3 7 10 9 5 7 6 7 6 9 11 17 15 13 14 12 15 22 28 30 34 35 38 37 36 35 33 30 28 20 15 12 10 13 16 15 14 13 17 13 12 10 6 1 1 5 6 6 5
6 3 8 8 2 1 6 6 4 5 5 7 12 18 16 19 20 16 24 30 31 30 39 41 39 37 33 29 23 13 11 10 14 16 17 19 19 18 14 10 7 4 3 3 2 3 4 5 9
5 10 16 6 5 2 3 4 4 5 8 11 9 10 14 14 16 17 24 27 31 34 40 42 40 37 32 26 21 20 23 22 24 27 24 22 20 17 12 9 7 7 7 5 2 1 3 6 8
7 1 6 3 3 3 3 4 6 5 6 10 12 15 15 17 19 18 24 36 37 38 41 40 38 35 28 29 26 29 29 29 27 27 26 23 19 15 12 12 11 11 8 4 1 3 6 7 9
4 4 6 4 2 1 1 2 4 5 16 14 6 12 11 12 14 15 18 25 27 32 38 40 35 33 30 35 28 34 32 31 27 29 28 24 19 15 12 12 11 7 3 2 4 6 8 9 11
3 5 3 5 4 5 5 4 8 6 8 9 10 9 11 11 10 9 12 21 25 32 35 35 37 33 30 31 28 34 34 32 32 32 29 24 18 16 10 6 4 2 0 4 8 11 12 10 11
2 5 5 4 2 4 3 4 5 8 8 7 1 7 8 10 13 13 15 21 27 29 29 30 35 29 25 27 26 35 31 30 27 28 24 21 18 12 9 3 2 2 6 8 10 11 10 7 8
2 3 4 6 3 3 4 5 5 5 6 4 6 6 7 8 10 14 15 21 24 26 31 33 28 26 24 24 24 25 25 23 22 21 18 18 14 13 6 4 6 13 11 12 11 9 5 9 13
6 3 2 3 3 3 4 4 4 1 3 2 4 7 7 7 8 7 11 20 24 30 29 28 27 27 27 28 27 24 24 24 21 17 16 12 11 9 2 8 13 13 9 12 9 7 10 13 12
1 2 1 4 4 4 1 5 5 8 8 8 8 8 10 10 12 12 12 22 29 28 25 24 26 29 32 29 25 27 27 24 19 16 12 12 6 2 6 10 10 9 9 10 9 8 10 10 6
1 4 5 4 4 1 4 5 4 8 8 8 9 7 7 10 12 13 18 25 28 32 31 31 33 36 34 33 33 32 28 22 18 13 13 6 5 7 9 11 9 6 11 12 11 10 8 8 8

GFSSGP_925_spd_045.txt.gz
Wind_Speed
1 2 1 3 3 4 3 7 3 4 1 4 1 1 5 4 0 2 8 14 30 32 33 30 30 29 29 28 27 27 28 28 29 29 30 32 32 33 33 32 30 29 27 28 28 31 33 33 32
1 3 3 2 4 2 5 4 8 5 5 3 6 4 6 4 4 6 8 21 30 31 33 31 31 31 29 28 27 27 29 29 30 30 31 32 29 34 35 35 32 30 29 29 30 34 31 29 29
3 3 3 4 3 4 4 3 5 1 4 1 3 6 4 5 4 3 11 26 28 29 31 31 31 29 29 28 27 28 29 30 30 30 30 32 30 33 34 34 33 32 30 29 31 34 34 29 25
5 4 4 3 4 6 4 7 5 3 3 3 2 5 3 7 4 9 24 26 27 29 31 30 31 29 28 29 25 29 30 30 29 29 30 31 31 32 33 33 32 31 29 28 31 33 34 33 30
4 3 3 0 3 4 2 2 1 4 6 4 0 2 4 7 13 22 23 23 25 28 32 29 29 29 25 29 28 26 27 28 29 29 31 32 32 31 31 30 30 29 28 26 26 28 28 28 27
4 3 3 2 3 4 1 2 1 3 6 6 4 5 3 6 16 17 19 17 20 26 29 29 25 26 24 26 28 26 25 25 26 27 29 31 30 29 29 27 26 26 24 22 21 22 24 24 23
6 4 3 4 4 4 4 4 4 3 3 2 4 6 2 7 17 14 14 18 18 28 27 30 28 23 24 24 27 25 23 22 24 27 28 28 28 27 26 25 24 23 20 20 17 17 18 20 21
5 4 3 3 3 6 2 3 2 5 1 3 2 6 5 3 24 24 23 19 28 29 37 31 24 21 21 21 22 22 21 22 24 26 26 25 24 22 21 22 21 19 18 18 17 16 16 16 17
4 2 3 4 3 5 2 4 3 3 6 4 5 4 13 23 31 33 31 27 29 28 25 29 27 21 19 19 18 17 20 23 25 24 23 22 20 19 18 19 19 18 16 16 14 14 14 15 16
4 4 5 7 3 5 3 4 4 4 3 6 11 17 19 24 22 23 24 26 28 34 24 21 27 28 21 16 20 21 23 23 23 22 20 18 18 17 17 18 16 16 15 14 13 12 11 11 14
3 4 7 6 7 3 5 2 2 8 0 8 17 19 15 19 18 18 22 27 33 36 35 26 23 21 20 20 21 23 23 22 20 19 19 17 16 17 17 16 15 13 11 14 12 11 12 11 9
3 7 4 4 5 5 6 5 4 4 1 13 19 19 17 16 15 21 22 24 29 38 40 31 25 22 22 23 24 23 23 21 19 18 16 15 14 15 15 14 13 12 11 14 11 11 10 9 9
5 5 1 7 7 5 7 3 5 5 11 18 16 16 16 14 18 15 19 24 30 28 31 25 26 25 25 23 23 22 22 20 18 17 14 11 14 13 15 14 11 13 14 12 11 9 8 9 9
2 4 3 2 6 3 5 2 3 6 10 14 18 14 14 14 19 17 20 20 26 26 29 27 27 28 25 26 25 24 21 18 14 14 13 15 14 15 16 16 16 17 14 11 9 7 7 8 9
1 4 5 2 3 4 8 2 3 7 15 11 13 13 13 15 20 18 24 27 29 29 31 29 25 28 27 26 25 23 20 17 16 14 13 14 16 19 19 19 18 16 12 9 8 7 7 7 9
4 4 3 4 0 3 4 4 6 9 13 14 11 13 13 15 24 22 23 23 25 27 30 30 23 29 28 27 26 25 20 20 18 15 16 16 17 20 20 20 17 15 12 9 6 4 6 7 10
5 1 1 3 3 4 1 4 9 10 12 9 13 14 14 13 16 22 23 26 26 30 26 26 24 29 29 29 28 23 22 21 18 17 15 15 17 18 18 17 15 13 11 7 3 3 4 6 5
2 1 2 6 4 4 2 7 5 12 13 14 11 11 12 14 18 24 26 25 25 30 25 28 30 30 30 30 26 25 24 22 18 15 13 15 18 18 17 16 14 13 10 6 5 2 3 3 3
4 3 5 6 4 6 7 5 7 8 8 8 8 9 12 15 19 23 26 26 25 26 27 33 34 34 35 32 31 27 24 20 17 15 15 17 18 17 17 15 15 13 10 7 2 1 1 2 1
3 1 3 6 5 6 3 8 3 7 6 13 12 9 12 13 12 20 25 26 30 33 32 35 36 36 36 36 33 27 25 21 17 16 16 18 18 19 17 15 14 12 7 4 4 2 0 1 2
1 1 5 3 6 2 4 5 5 5 4 6 9 12 11 16 17 17 24 30 30 33 40 41 39 40 39 36 30 20 22 15 16 17 20 21 19 18 17 13 11 8 5 5 5 4 4 2 2
1 3 6 5 2 4 4 4 5 6 11 13 15 14 15 16 17 17 22 26 32 41 43 44 44 42 41 37 34 28 27 18 18 22 23 20 18 16 14 11 9 8 7 6 3 1 3 3 3
5 1 4 2 5 2 0 2 7 2 7 12 17 16 16 17 18 19 24 34 36 31 35 34 35 39 40 37 33 26 23 20 17 21 22 20 18 16 13 10 8 8 7 6 3 2 4 4 5
3 2 6 4 3 2 3 4 5 4 11 12 5 14 16 16 16 14 22 20 24 30 32 34 37 40 38 35 33 29 25 24 20 21 21 20 19 15 13 13 12 11 5 3 6 7 7 7 8
4 5 3 4 3 5 1 1 8 6 8 8 12 16 14 15 12 11 13 19 23 29 32 34 34 34 38 36 35 33 30 29 23 24 26 24 22 18 17 15 10 7 4 7 7 7 9 7 7
2 5 4 3 2 4 2 4 5 5 8 3 8 7 6 11 14 13 16 24 26 28 31 31 30 29 35 37 33 32 29 29 28 26 29 30 26 23 20 14 11 4 5 6 11 18 11 5 6
2 2 3 6 2 3 3 6 9 7 5 6 4 5 8 10 14 16 15 21 23 27 32 35 31 32 34 36 30 31 30 28 28 25 25 23 23 19 10 6 6 1 6 16 14 11 7 5 7
5 4 1 3 1 2 4 4 5 6 5 2 4 6 6 5 7 8 12 19 23 26 32 30 34 35 34 29 30 31 29 27 22 21 26 27 22 15 16 11 5 13 12 12 10 10 8 7 8
2 2 3 4 4 4 1 5 6 7 5 5 3 6 8 9 9 11 12 21 25 26 29 33 33 33 30 31 30 27 30 29 28 30 32 31 24 22 15 16 14 12 13 9 9 10 10 9 8
3 5 5 4 4 1 4 6 3 6 7 5 8 7 7 6 11 10 13 19 24 29 31 35 34 33 33 34 30 32 31 31 34 32 28 26 24 23 17 15 14 13 8 9 12 12 11 11 10

GFSSGP_925_spd_048.txt.gz
Wind_Speed
3 5 3 5 4 5 4 6 3 4 2 1 0 2 3 3 1 2 3 9 27 34 32 31 30 32 31 31 30 30 30 30 30 31 31 33 34 34 33 32 33 32 28 28 28 28 29 28 26
5 6 5 2 5 2 5 3 4 5 1 0 5 1 5 4 2 3 3 18 28 31 31 29 29 30 30 30 29 29 30 29 31 29 31 34 36 35 36 33 32 33 32 30 29 31 30 28 25
4 2 4 4 3 5 4 4 4 1 2 2 3 6 3 4 1 1 8 22 28 30 31 29 29 29 30 29 29 29 30 31 30 30 29 32 34 33 36 34 32 33 33 32 30 29 28 26 25
3 5 4 3 3 5 5 4 3 1 4 9 4 5 2 6 4 4 19 21 26 28 29 29 29 30 29 29 29 29 28 28 29 30 29 29 30 32 35 34 33 33 34 34 33 30 28 27 24
4 3 3 1 3 4 4 3 3 4 7 2 2 1 2 3 11 17 14 16 24 28 30 29 29 28 29 29 29 30 27 25 25 27 28 29 31 32 32 32 33 32 32 31 29 29 27 23 19
4 3 3 1 5 4 4 3 1 3 3 4 6 3 2 5 13 17 14 12 16 19 29 33 34 30 26 28 28 28 26 23 25 26 27 30 30 31 30 29 29 31 29 28 27 26 25 23 22
6 4 4 3 4 5 4 4 0 1 3 4 2 4 1 7 17 17 13 11 6 16 21 22 38 29 27 29 28 27 25 24 26 27 26 28 28 28 27 25 23 22 23 24 24 23 22 21 20
5 4 2 2 3 5 1 2 2 3 3 3 2 6 4 4 20 22 23 26 24 28 34 37 36 19 24 23 25 24 25 22 25 26 25 26 25 25 23 22 21 22 21 21 20 19 20 19 17
3 4 1 4 3 5 2 2 2 3 5 4 5 2 11 19 21 27 27 30 32 33 42 38 35 23 19 20 19 20 22 23 24 24 23 23 22 22 20 20 19 18 18 18 17 17 17 18 17
4 3 7 6 5 5 3 4 5 3 4 3 6 13 17 17 18 19 17 19 28 32 27 31 29 31 20 16 15 18 21 22 23 23 22 21 20 19 19 18 17 16 16 15 14 15 14 14 14
5 5 6 6 7 3 6 2 2 7 2 7 14 16 15 16 15 17 16 17 23 31 33 29 28 28 25 15 18 20 21 22 22 21 20 19 19 19 18 18 15 14 13 13 13 12 11 12 12
2 8 4 6 4 4 6 5 3 2 3 8 13 12 13 11 12 15 17 19 19 29 37 41 36 42 26 12 15 17 20 21 21 19 18 18 17 18 16 15 15 14 13 14 12 11 11 10 10
3 5 1 2 7 5 7 4 5 3 5 13 13 12 11 10 13 16 20 23 23 23 26 31 33 29 24 19 17 17 21 21 21 20 18 15 17 17 16 14 13 14 14 13 12 9 10 10 9
2 3 4 4 4 5 5 3 2 2 10 13 10 11 11 12 15 19 22 25 28 27 33 32 30 26 23 23 23 22 22 22 21 20 18 15 15 16 16 15 15 16 14 11 9 9 8 8 8
2 2 4 0 3 3 7 1 2 7 14 15 11 9 12 11 14 21 26 26 29 27 33 30 27 24 23 23 22 23 23 22 19 19 19 16 17 17 18 16 17 16 14 11 10 9 6 6 7
3 3 0 4 2 1 2 3 6 12 12 16 12 13 10 10 19 17 22 22 25 24 27 26 24 23 23 22 23 24 23 20 18 17 16 17 17 18 18 19 18 17 15 12 7 5 4 5 6
5 1 1 4 5 2 2 3 5 10 8 11 12 12 8 10 11 17 21 26 26 29 27 25 23 23 24 24 23 24 24 20 21 17 15 15 15 17 20 20 19 17 15 11 7 5 2 4 3
3 2 3 5 3 5 2 6 6 8 7 12 12 11 9 10 16 20 23 25 27 28 26 24 24 21 25 25 24 23 23 22 21 18 17 16 17 20 20 20 18 17 14 12 9 3 2 1 3
2 3 5 3 5 4 6 6 8 6 5 8 10 10 11 13 17 20 23 26 26 26 29 28 25 24 26 27 25 24 25 24 20 17 16 16 18 20 20 19 17 17 14 10 6 5 4 5 4
2 3 4 4 3 3 4 4 4 9 10 10 14 13 14 10 8 16 22 25 29 30 32 29 29 29 29 29 30 27 28 23 20 17 16 17 18 20 19 18 19 17 13 9 10 7 4 3 5
2 3 2 2 5 0 1 5 5 5 6 7 9 14 13 16 14 13 19 24 27 31 35 36 34 34 34 32 31 23 23 18 19 19 18 19 19 19 19 19 17 15 12 12 9 4 3 3 4
2 3 3 4 5 3 2 4 4 4 8 9 12 11 13 13 12 12 17 22 30 36 35 35 33 34 34 34 34 33 31 22 25 23 21 21 20 20 19 17 17 16 13 9 6 3 1 2 2
6 1 1 1 3 1 1 3 7 2 6 12 14 15 14 14 15 15 20 30 26 28 34 35 34 34 33 36 37 36 28 27 18 20 21 20 20 19 19 19 18 15 11 10 6 5 4 6 4
2 3 5 4 3 1 3 5 5 4 7 5 9 11 14 13 15 15 21 22 25 27 31 33 34 33 35 35 36 35 33 25 21 19 21 23 23 21 21 21 18 15 14 10 5 3 6 6 7
2 5 3 4 3 4 2 2 9 5 6 7 10 14 17 14 14 13 12 19 24 30 30 32 34 33 38 36 36 38 37 30 26 23 27 28 26 25 22 19 19 18 14 6 4 4 7 11 7
3 6 5 2 2 3 1 4 5 3 4 8 9 7 8 9 11 12 16 22 23 27 30 32 33 31 33 38 40 37 38 32 29 26 28 30 30 26 24 23 20 16 15 8 6 11 12 8 6
3 2 4 6 3 2 3 6 10 4 3 6 6 4 8 9 10 14 11 19 22 27 32 35 31 30 32 38 39 39 36 31 31 27 29 31 28 28 26 27 24 18 12 10 10 8 7 9 9
3 6 3 3 2 3 4 4 5 7 4 3 4 3 3 6 6 6 7 16 21 26 28 33 35 36 38 34 38 39 37 32 31 29 28 30 31 33 33 27 20 13 9 6 5 7 10 13 12
2 1 4 5 4 4 1 5 7 6 4 5 5 4 5 7 8 8 8 17 23 24 28 34 33 32 32 34 33 34 33 31 30 28 29 31 34 31 25 19 16 9 9 6 5 9 13 16 15
4 7 6 4 4 1 3 6 4 7 6 6 6 4 4 5 6 5 5 13 21 27 30 32 27 29 33 32 30 27 26 25 24 25 25 26 28 25 19 16 10 8 6 6 8 12 19 20 18

GFSSGP_925_spd_051.txt.gz
Wind_Speed
3 3 1 2 3 1 2 3 1 3 3 2 3 3 4 3 1 1 4 11 23 31 30 31 30 30 33 33 32 31 30 31 30 31 32 33 32 32 31 29 28 26 24 25 27 27 26 25 25
5 5 3 2 2 3 3 2 3 1 4 4 3 3 5 3 2 0 4 15 29 31 29 29 30 30 31 32 32 33 31 31 32 33 33 33 32 32 31 30 30 30 31 32 30 27 25 24 24
5 3 1 2 2 5 2 3 3 3 2 3 1 7 5 3 3 2 4 20 31 29 29 29 32 31 32 32 33 33 32 33 33 33 33 33 33 32 32 29 30 30 31 29 28 26 25 24 24
3 2 3 2 6 4 4 2 1 6 1 3 5 5 3 4 3 3 12 22 28 31 31 33 34 34 32 33 35 35 34 33 33 33 32 33 31 31 31 31 30 30 29 28 29 26 25 23 22
4 2 1 1 4 4 5 2 2 3 2 3 3 6 2 3 8 8 14 21 27 31 33 34 34 31 30 32 35 36 34 34 35 34 32 32 32 32 31 32 31 31 31 30 29 26 23 22 20
2 1 1 2 4 5 4 2 4 2 3 4 3 6 3 4 9 11 12 13 16 23 33 35 32 32 30 31 29 36 35 36 36 33 32 33 33 33 32 30 29 30 30 29 27 25 23 21 20
2 2 2 2 3 4 2 3 3 3 5 2 3 4 3 6 9 12 14 14 16 22 26 34 33 28 24 29 28 29 33 34 34 30 32 33 32 32 31 29 28 28 27 26 24 24 23 21 19
3 2 2 3 3 3 1 3 2 2 3 0 2 3 3 4 14 14 14 16 16 18 24 37 36 34 32 21 24 23 31 32 31 30 31 30 29 29 27 25 25 25 24 23 23 22 20 19 16
2 2 2 3 3 2 3 4 3 3 5 3 3 2 10 21 19 24 25 26 30 28 30 40 39 40 31 25 24 22 23 28 29 28 29 28 26 24 22 22 24 22 21 20 20 19 18 16 15
2 1 4 5 3 4 2 2 7 3 3 3 5 10 17 17 16 17 19 20 26 32 28 31 31 34 33 24 20 22 24 26 29 29 27 25 23 21 20 20 20 21 19 19 19 17 16 15 14
2 4 5 7 6 3 2 3 2 7 4 7 9 12 11 18 15 15 15 21 26 32 33 34 28 30 30 25 22 19 24 26 28 27 26 24 22 20 20 20 19 18 18 19 17 14 13 13 12
3 8 7 3 3 5 4 6 4 6 3 2 16 15 12 13 15 17 16 17 21 21 26 30 34 36 32 26 23 22 24 25 25 24 22 22 21 20 20 18 17 19 18 15 13 12 12 12 11
4 3 3 6 4 4 6 4 4 3 7 15 15 14 13 12 16 16 18 20 27 28 23 30 37 36 35 25 19 20 22 25 23 21 20 20 20 20 19 18 18 17 15 13 12 10 9 9 10
3 1 2 2 4 3 3 3 1 4 13 16 14 13 13 12 18 18 18 21 22 21 26 32 23 22 17 14 17 21 24 23 22 19 18 17 18 19 18 17 18 17 16 13 11 10 9 8 7
2 2 2 1 3 3 4 2 2 7 12 14 14 13 11 11 18 20 22 26 26 25 26 32 26 23 19 16 17 19 20 21 21 20 19 17 17 19 18 19 18 17 16 13 11 9 6 6 6
1 3 2 1 2 1 2 3 4 11 11 11 13 12 11 13 16 18 21 24 23 26 31 26 20 19 18 17 16 19 19 19 18 19 21 21 22 22 20 20 19 19 17 15 11 8 7 5 5
3 2 2 0 7 3 2 3 6 12 10 10 10 13 11 13 16 19 21 25 26 26 24 23 19 20 21 20 19 18 19 20 19 18 19 20 20 21 21 21 20 20 19 15 12 9 5 4 5
4 3 3 4 2 4 5 10 9 14 12 11 9 11 11 14 17 22 23 24 26 25 22 21 21 22 21 21 19 18 20 21 21 21 17 18 17 16 18 20 21 21 19 16 12 8 6 5 4
1 0 4 1 4 2 3 6 9 13 11 10 10 11 13 15 20 22 25 26 27 26 24 23 22 26 22 23 20 19 22 23 23 24 21 18 17 17 20 21 22 21 19 16 12 9 5 4 1
3 2 3 2 2 2 4 4 5 15 17 15 14 13 15 14 14 21 24 26 29 31 30 27 26 25 25 24 25 18 21 23 26 23 20 17 19 20 21 22 23 22 18 15 13 8 5 3 6
3 3 2 2 2 2 3 3 2 5 8 11 13 13 13 16 17 18 26 29 29 31 33 32 29 28 27 23 23 22 20 20 21 20 18 19 20 20 21 22 22 21 18 16 12 8 6 5 6
3 4 4 4 2 2 2 3 3 4 10 14 17 16 17 16 15 15 23 27 30 31 28 29 28 29 28 28 24 26 21 19 19 19 21 21 21 20 20 21 21 20 18 15 12 10 9 7 5
4 3 0 2 3 0 0 2 3 2 6 15 17 20 19 19 18 18 22 28 27 26 31 34 30 30 28 29 27 28 21 18 19 23 21 21 21 21 22 22 22 21 18 16 16 14 12 7 6
3 2 5 4 2 1 1 3 4 4 3 3 10 16 19 18 18 19 25 20 23 24 28 31 29 26 26 27 27 30 27 26 22 21 20 20 22 24 24 23 23 22 21 20 19 13 8 4 6
2 2 1 0 1 3 4 3 7 4 7 6 10 10 17 18 18 18 18 22 23 24 26 26 26 26 29 27 29 31 30 27 30 24 23 26 24 24 28 28 27 26 24 23 19 11 7 6 7
5 5 3 3 2 0 1 4 3 3 7 7 8 9 8 14 15 18 19 23 24 24 24 24 26 25 25 28 32 33 31 27 29 27 24 27 30 30 31 30 30 27 28 24 13 8 7 6 5
4 4 2 6 2 0 2 3 8 2 2 4 7 4 3 7 12 16 15 21 22 23 26 28 25 25 25 27 28 30 28 27 24 27 26 27 30 31 29 30 32 29 23 16 7 8 5 5 7
2 6 3 1 4 3 2 3 3 4 3 4 4 5 5 2 6 9 11 17 18 19 20 21 22 24 23 22 23 22 24 25 23 26 28 28 27 27 30 28 25 18 14 7 5 5 3 5 12
3 2 5 3 1 2 1 3 5 4 2 3 3 4 5 3 3 5 8 12 14 15 17 19 21 20 19 18 17 19 24 25 25 24 24 23 25 30 26 27 23 19 11 6 6 1 9 14 14
3 6 5 3 4 0 1 5 3 5 6 6 6 4 3 4 2 2 6 9 11 13 14 16 15 16 17 21 23 21 22 21 20 20 22 24 25 28 30 25 21 15 14 13 8 19 14 15 16

GFSSGP_925_spd_057.txt.gz
Wind_Speed
7 8 10 11 8 9 18 21 21 1 4 6 6 9 7 17 4 9 15 4 16 25 26 25 27 31 32 33 33 31 29 27 26 25 26 28 29 30 31 31 28 28 26 24 23 23 23 23 23
9 7 11 9 9 14 14 18 9 5 9 6 2 3 7 7 5 11 10 15 16 26 30 27 30 31 33 33 32 30 29 27 26 28 29 29 29 29 30 30 28 27 25 25 23 23 22 22 21
6 9 10 10 13 15 8 14 14 8 3 9 4 8 2 3 3 2 2 14 22 27 31 31 34 34 33 33 32 31 29 28 30 31 30 30 27 28 29 30 29 27 24 23 22 21 22 21 20
7 10 8 10 18 14 13 4 5 5 6 8 10 1 10 6 2 7 4 10 18 27 33 35 37 35 36 34 32 30 30 33 34 32 32 31 28 28 30 31 28 26 24 22 23 22 19 19 18
12 8 10 14 16 9 4 8 4 12 9 3 11 1 14 7 7 7 4 12 19 21 27 31 34 31 32 32 30 31 33 34 33 33 33 33 32 33 33 31 28 24 23 22 21 20 17 17 17
9 4 11 13 10 2 3 6 6 9 8 6 14 8 13 6 11 6 4 8 7 16 33 36 33 28 27 29 29 31 32 33 34 34 33 33 33 32 33 31 27 26 24 22 20 18 17 16 15
12 10 14 13 7 4 2 6 7 10 11 14 2 12 6 8 7 5 8 12 10 20 25 34 30 28 26 25 26 27 28 30 32 35 33 31 31 30 29 29 27 25 23 21 19 17 16 15 14
7 8 17 9 6 9 10 4 1 8 8 11 9 6 3 8 5 8 11 16 16 17 33 35 31 24 24 26 27 25 21 26 31 33 33 30 29 29 28 28 27 24 22 21 19 16 15 14 14
8 11 10 3 2 5 7 10 4 4 6 3 8 11 7 12 10 11 14 17 27 27 36 33 37 35 27 27 29 26 23 25 28 30 29 27 28 27 22 23 25 24 23 20 18 15 13 12 14
10 12 4 6 6 5 5 8 6 5 12 10 8 7 9 7 5 9 10 13 16 21 25 33 33 29 30 31 32 30 27 25 23 26 23 24 22 19 18 22 22 22 21 18 16 14 11 5 6
10 12 8 4 3 8 11 11 2 8 15 6 3 10 8 10 8 10 10 11 13 18 28 30 31 37 32 33 31 27 27 22 21 19 18 21 17 17 17 18 17 18 17 14 11 7 5 6 5
10 12 7 7 3 9 10 6 7 10 13 8 15 12 10 9 8 9 12 13 16 19 26 27 26 26 28 31 30 29 22 21 23 19 14 16 15 16 17 16 14 14 11 11 7 6 6 7 7
12 12 8 10 6 9 6 8 5 5 7 13 13 10 10 10 10 11 14 14 19 21 20 24 24 25 32 33 30 31 14 20 23 17 16 17 15 16 18 16 15 13 11 10 8 7 6 6 5
7 10 11 6 11 7 10 7 10 11 14 12 11 10 6 10 11 14 16 19 18 20 20 25 26 26 29 31 31 26 22 23 20 16 15 17 16 15 14 13 13 12 12 11 9 8 6 4 4
12 17 13 6 9 9 8 9 18 16 14 12 10 10 8 6 11 14 18 20 21 24 24 29 26 25 27 27 25 24 17 17 18 15 14 14 14 14 13 13 13 12 12 11 10 8 6 5 4
15 18 10 8 27 5 8 7 32 15 13 12 11 9 9 8 10 14 17 24 24 24 25 27 24 24 25 27 30 18 18 18 15 17 15 16 15 14 13 13 12 13 13 12 11 10 8 6 4
16 10 13 8 20 7 8 4 3 12 10 11 11 10 11 12 11 13 18 24 25 26 31 31 28 27 27 24 23 16 14 14 18 16 14 17 16 14 13 13 12 14 14 12 12 10 8 7 6
8 12 13 6 11 9 9 14 3 11 12 11 13 13 12 13 14 17 17 22 26 30 32 31 30 33 27 18 16 14 14 17 16 17 18 17 16 15 14 13 14 15 14 13 13 11 9 8 7
13 14 12 16 17 14 7 9 8 14 11 11 13 13 15 15 15 20 20 24 25 29 31 32 32 30 24 21 21 19 17 16 17 19 18 16 16 16 18 17 17 16 16 15 14 12 12 9 7
11 13 14 6 5 8 11 12 11 12 13 13 12 15 13 14 17 21 26 26 26 29 31 31 30 27 24 21 20 20 19 19 19 20 19 15 13 14 14 18 18 17 17 17 15 17 15 12 10
11 14 12 9 6 12 14 17 2 9 14 13 14 16 18 18 18 17 23 28 28 30 32 31 29 27 25 22 21 19 18 17 20 21 19 16 18 20 15 18 16 17 19 18 18 19 19 15 11
13 14 11 10 10 9 9 8 8 12 13 14 15 14 17 19 20 20 23 29 31 32 31 30 28 27 26 24 21 21 21 19 20 20 19 17 24 20 24 25 22 20 21 19 24 22 19 16 14
12 1 7 12 14 15 15 8 11 7 10 15 16 17 16 19 21 22 24 31 33 32 32 31 29 28 26 25 24 21 22 20 19 20 20 19 17 22 25 27 23 23 21 23 24 22 19 15 11
8 7 10 11 11 11 14 13 4 14 9 9 11 15 17 18 21 22 28 29 30 31 31 31 32 31 28 27 27 27 23 23 20 19 15 16 18 18 20 21 22 23 24 25 23 20 16 15 13
10 13 8 6 8 10 5 7 6 13 3 2 3 8 17 18 19 21 22 26 30 32 33 32 32 31 31 30 30 29 27 24 23 21 20 18 21 20 22 21 24 24 24 21 19 19 19 13 10
16 16 6 6 6 4 5 7 6 8 3 4 5 5 6 12 19 21 22 27 30 31 32 32 31 30 29 29 29 23 25 26 23 21 20 19 18 20 21 25 26 21 19 25 17 15 12 12 11
13 14 16 11 7 6 7 7 12 7 4 3 2 3 3 9 15 20 21 26 28 28 29 29 28 27 27 27 24 27 32 26 22 20 19 18 17 16 20 24 23 24 25 22 18 19 17 11 6
14 9 10 8 4 10 10 9 4 7 6 4 3 5 3 2 5 10 16 25 26 27 26 25 25 26 25 25 25 24 24 22 20 18 18 17 17 17 22 25 27 25 24 18 21 17 12 9 11
11 11 10 9 12 4 6 5 9 8 4 2 1 1 3 2 4 6 8 14 24 22 22 23 23 23 22 25 23 21 17 16 17 18 19 19 17 18 21 22 25 24 23 20 17 14 10 8 9
9 17 18 10 13 9 8 11 2 6 5 4 7 3 3 2 3 6 7 9 12 15 17 18 19 20 20 18 16 16 16 15 14 14 16 19 16 16 17 18 19 23 22 19 17 14 10 9 14

GFSSGP_925_spd_060.txt.gz
Wind_Speed
10 9 10 16 7 7 17 19 21 23 4 9 6 10 4 14 10 4 14 12 7 24 12 25 30 31 32 31 31 31 28 27 26 25 27 29 32 32 31 30 29 28 26 25 25 24 24 26 25
8 14 17 10 10 13 13 9 13 8 8 7 11 7 5 11 3 3 2 9 10 31 20 21 30 33 34 32 32 30 28 28 27 28 30 31 34 32 30 30 29 28 26 25 24 23 24 25 24
10 16 8 11 13 14 17 9 11 8 9 5 7 17 3 6 15 6 7 3 18 32 31 24 31 31 33 33 32 31 30 29 29 31 31 32 35 32 31 30 28 28 26 23 23 23 23 22 21
9 11 7 10 17 21 20 5 4 6 8 9 14 5 2 19 8 17 12 6 18 29 29 27 31 32 30 31 30 29 29 29 32 31 30 32 34 33 31 30 28 27 26 24 23 22 20 20 19
15 8 11 16 20 19 14 9 13 8 9 8 18 2 4 4 9 13 16 2 14 27 25 34 33 35 32 31 31 29 30 31 31 31 30 30 33 34 31 29 27 26 25 24 22 21 19 18 17
10 11 12 13 11 8 15 6 7 8 17 12 17 2 4 12 11 16 18 13 10 22 16 32 29 28 30 30 30 31 32 31 31 31 30 31 33 34 32 29 27 26 24 23 21 20 18 18 17
13 11 15 17 16 2 11 7 12 7 18 9 10 13 10 12 14 11 14 17 17 31 27 15 20 19 20 21 25 31 32 30 30 30 33 36 36 34 32 27 27 25 23 22 21 18 17 18 19
9 9 18 16 9 4 4 10 11 15 8 14 8 7 8 6 9 14 21 24 24 24 32 40 22 14 17 19 13 22 28 28 28 30 33 35 34 32 29 28 26 24 22 21 19 17 17 18 18
13 11 13 6 12 2 2 6 3 11 16 8 8 9 10 13 12 18 22 26 23 23 28 29 32 27 29 33 27 19 18 24 24 26 29 30 29 28 26 27 24 22 21 20 17 16 17 18 18
10 11 17 9 9 12 7 7 12 8 10 16 12 13 8 9 13 16 15 16 18 22 25 29 29 35 33 36 36 29 25 24 24 22 27 29 23 21 23 24 22 21 19 18 18 14 10 7 11
13 13 16 16 6 9 13 16 15 11 7 1 10 10 7 8 14 17 14 14 16 22 25 24 28 31 29 32 37 34 28 26 26 20 21 24 22 21 22 21 20 19 17 17 14 9 8 7 6
11 13 16 11 11 8 12 16 16 17 5 16 9 10 10 8 9 15 14 14 18 22 23 31 25 28 31 39 39 34 29 26 21 21 20 20 21 18 19 18 17 16 11 11 7 8 6 8 8
10 15 14 13 14 8 12 12 31 15 22 14 13 13 11 11 16 18 15 19 22 21 21 24 33 32 40 38 34 37 27 23 20 21 18 16 15 13 18 14 13 12 13 9 7 5 7 6 7
16 15 13 12 21 19 11 10 13 23 22 11 9 10 11 14 16 16 17 16 19 22 24 27 28 32 35 36 33 28 26 25 17 12 11 11 13 15 16 15 16 13 13 9 9 7 7 8 5
15 14 10 6 19 21 19 8 3 11 17 12 10 7 7 16 19 17 18 19 18 22 23 25 28 29 32 33 33 31 30 22 19 8 10 13 15 15 15 15 14 14 12 13 10 12 8 7 7
17 18 14 12 15 18 12 5 1 14 21 12 11 10 8 11 18 20 19 19 20 21 27 26 27 27 32 33 36 31 24 27 20 12 14 19 16 17 15 14 14 14 14 12 12 11 10 10 10
18 15 15 11 10 6 15 9 7 14 19 13 13 13 13 9 20 19 21 21 23 22 24 21 24 29 36 37 36 33 29 26 24 21 23 21 19 15 18 16 17 15 16 13 14 16 13 12 10
18 9 9 2 12 20 12 18 18 21 29 16 16 12 14 13 16 24 27 23 26 25 24 25 26 30 30 29 29 29 22 26 23 22 19 19 21 20 19 17 17 18 17 18 18 14 13 9 12
13 14 17 14 6 8 12 12 14 8 16 9 16 14 13 15 17 17 34 31 27 28 28 28 29 29 30 30 27 24 23 23 25 21 24 23 20 21 20 22 19 19 21 20 17 17 17 17 10
12 15 16 9 8 11 12 11 6 17 20 12 13 12 14 13 18 16 22 28 32 32 30 30 29 31 33 31 29 26 24 22 21 23 22 24 23 22 22 22 16 18 19 16 21 21 19 19 16
13 14 16 11 9 19 11 13 10 5 14 11 13 16 14 15 18 18 21 24 34 37 34 32 33 35 35 29 26 24 24 23 26 25 26 23 24 24 23 22 20 15 17 18 20 24 23 22 20
14 13 14 10 11 10 3 6 6 11 11 14 13 16 18 14 16 19 23 27 29 35 36 35 36 35 35 31 27 29 24 22 25 27 28 27 28 27 26 22 21 21 22 25 26 30 27 24 22
14 6 6 10 11 14 15 3 4 9 12 16 14 14 20 20 18 19 20 31 32 32 35 37 37 37 33 33 30 26 24 26 21 24 22 26 26 24 26 30 26 25 28 24 26 27 28 27 22
13 10 10 11 10 11 16 11 9 2 8 8 16 16 17 21 21 21 28 29 32 33 33 36 34 33 32 35 36 28 23 21 22 24 27 27 27 24 23 23 23 23 25 25 25 19 21 20 17
11 10 8 1 5 9 15 12 3 10 8 11 14 16 16 19 21 21 23 26 32 35 38 36 36 33 34 32 29 31 27 20 26 20 21 23 25 26 23 20 20 22 25 26 22 16 17 13 10
13 14 8 6 4 8 11 5 6 14 16 7 2 3 13 14 17 20 22 28 30 33 37 37 37 35 33 31 26 23 27 33 26 25 29 23 24 25 24 22 25 26 26 25 24 22 19 15 12
14 14 15 8 2 5 7 9 8 11 9 5 6 4 6 9 14 20 20 28 31 33 34 36 33 33 33 33 32 31 32 30 30 31 26 24 19 22 23 26 26 25 24 23 20 20 20 18 18
16 14 9 7 4 4 10 12 6 5 8 7 7 5 5 1 5 9 16 23 31 34 35 35 35 31 32 30 32 38 36 35 29 25 20 17 17 16 18 19 19 21 21 19 20 21 19 16 13
11 13 10 13 11 5 4 2 4 10 9 6 4 7 5 2 4 1 3 17 28 30 31 35 34 32 27 27 25 27 28 29 24 12 11 13 16 17 15 17 18 18 20 21 21 16 15 14 12
19 16 17 9 9 9 5 2 7 5 8 8 5 6 5 4 5 5 3 5 17 24 29 30 29 26 26 25 25 26 25 19 9 12 12 15 16 14 14 15 17 20 22 21 17 16 14 11 11

GFSSGP_925_spd_063.txt.gz
Wind_Speed
7 7 6 3 3 2 6 10 6 6 4 2 2 2 6 7 6 5 15 14 24 32 23 15 22 28 28 28 30 30 30 30 29 31 34 37 35 34 34 32 33 30 28 27 26 26 28 28 26
4 3 3 2 1 3 8 13 20 5 6 8 5 3 7 4 6 9 12 10 24 18 19 24 24 29 27 26 28 29 28 28 29 33 38 36 36 34 32 33 32 30 28 26 26 27 27 26 24
7 4 2 3 3 8 8 18 11 1 9 5 5 9 6 6 6 3 9 14 17 25 19 19 32 32 32 32 31 30 31 30 31 35 36 35 36 34 33 32 31 29 26 25 27 27 26 24 22
2 3 4 2 13 17 14 16 9 4 9 15 4 7 3 8 8 13 15 4 11 17 19 27 33 38 33 31 32 31 30 32 34 38 37 35 34 34 33 31 30 28 26 25 26 25 25 23 22
2 2 3 5 11 13 15 6 11 13 7 9 6 4 5 8 16 14 11 3 14 18 18 22 31 34 34 32 31 32 30 31 34 38 37 35 35 34 33 31 29 27 26 25 23 23 22 20 21
2 2 5 8 14 16 3 6 13 13 7 4 7 6 2 7 16 18 8 3 14 18 22 14 18 34 35 32 31 34 33 31 31 35 36 36 35 33 31 30 28 27 25 24 22 21 21 21 20
7 3 7 10 15 6 2 5 8 7 4 10 5 5 5 11 7 3 6 3 19 25 29 18 17 29 38 27 32 30 33 30 27 31 34 35 34 32 30 29 27 26 24 22 21 20 20 21 22
4 2 9 11 11 7 1 3 9 7 10 4 4 0 5 5 5 7 10 14 22 19 9 7 10 14 13 15 29 22 26 29 27 32 34 34 32 30 29 28 26 25 23 21 20 21 23 23 21
3 3 8 13 12 5 0 3 2 13 12 9 3 4 4 15 13 14 14 13 13 15 17 24 28 26 23 28 32 29 18 26 27 30 33 33 31 29 29 27 25 24 21 20 22 23 22 19 16
2 2 10 11 5 6 7 8 7 8 9 1 4 9 8 13 11 10 8 8 13 18 19 21 30 31 35 39 40 43 31 25 25 27 28 30 28 28 28 25 23 22 21 19 17 16 14 13 12
9 7 11 10 8 4 5 13 8 17 3 1 6 10 9 10 8 8 5 10 10 13 23 29 30 32 39 37 38 36 34 27 26 24 28 27 25 27 26 25 22 21 19 16 13 11 14 12 10
5 11 8 10 7 7 5 8 8 8 7 5 3 7 6 9 9 7 8 13 16 18 19 31 32 33 37 35 34 38 38 31 29 32 28 28 27 26 24 23 22 18 16 11 8 9 7 7 10
7 7 8 3 6 6 13 6 8 6 14 5 4 7 7 11 10 10 9 16 17 18 22 28 35 33 35 36 40 38 37 28 28 28 24 23 26 24 23 21 19 15 12 8 9 4 7 9 9
9 10 10 5 5 2 5 1 8 4 10 8 11 13 10 11 13 12 11 13 18 20 23 30 36 37 38 38 41 40 35 29 32 28 20 16 17 22 20 17 14 13 12 10 8 5 7 8 4
11 9 9 5 4 3 5 3 4 6 10 10 6 9 14 12 16 14 14 15 19 21 25 29 39 40 43 44 41 35 30 34 30 24 15 16 17 17 16 12 13 13 15 13 10 8 8 11 4
10 8 5 10 2 5 7 7 5 10 5 3 4 4 16 16 18 19 19 18 23 25 26 29 31 40 42 41 36 33 36 32 23 25 21 19 18 12 12 12 17 17 17 14 13 13 12 10 10
6 10 14 5 6 3 5 2 11 14 12 12 12 11 11 13 16 22 23 24 28 26 29 32 35 37 40 39 35 40 37 33 28 20 20 13 13 14 18 16 18 15 18 16 16 15 14 14 14
10 6 8 6 7 6 6 8 5 10 13 15 14 10 12 15 15 24 25 26 27 30 27 31 34 33 31 33 30 32 33 33 28 20 15 15 18 18 19 20 16 19 17 18 19 18 17 15 18
16 14 8 4 5 6 9 7 12 12 6 9 11 11 13 17 20 28 28 29 28 29 27 29 29 32 34 34 32 29 30 27 29 25 20 23 22 24 21 21 20 19 21 22 21 20 20 19 15
17 6 8 2 4 4 8 8 15 16 14 12 15 17 17 12 19 23 27 28 28 30 28 29 29 33 34 31 32 27 28 27 30 27 25 25 26 26 26 27 26 23 24 25 26 24 24 22 20
9 6 8 7 4 6 2 8 10 14 9 14 18 17 16 19 20 18 24 31 31 29 30 28 30 34 33 36 34 28 27 26 31 33 31 27 30 28 28 29 25 26 29 32 30 26 25 23 23
6 10 8 7 3 4 4 5 3 11 13 12 18 16 16 19 16 21 24 30 34 34 35 31 32 33 37 36 31 30 27 25 29 32 30 31 29 31 29 30 31 29 30 29 30 27 29 23 21
8 9 2 4 6 5 7 2 6 6 7 9 17 15 12 21 21 20 22 33 35 38 37 36 36 37 39 37 34 32 29 34 33 35 35 35 34 33 33 31 28 27 27 28 25 26 27 28 19
6 6 4 3 2 6 8 5 5 6 7 7 13 21 21 16 21 21 31 32 34 35 36 37 39 40 41 39 40 35 35 33 34 38 37 39 39 38 36 34 32 30 26 25 27 27 25 29 24
5 1 3 4 3 6 4 7 9 11 10 8 13 24 17 20 20 21 22 25 30 36 38 38 40 41 42 39 39 40 37 39 38 36 37 37 36 38 37 32 27 28 27 24 26 24 24 21 19
7 8 5 5 4 5 3 4 4 7 7 7 11 16 21 22 21 23 25 31 35 35 39 40 40 40 41 41 44 42 40 37 40 37 36 39 38 37 33 31 22 20 20 21 23 22 21 18 15
5 6 10 3 1 2 4 7 8 3 6 4 7 5 20 24 22 24 24 33 36 40 42 43 42 41 39 41 38 39 48 44 43 41 40 30 27 29 29 24 22 22 22 22 21 19 17 14 18
11 5 2 1 5 4 5 5 4 6 6 3 5 6 7 12 18 20 21 31 37 42 46 47 47 45 44 39 38 41 40 46 40 31 20 21 17 26 27 24 24 25 23 19 19 17 19 21 17
5 9 3 6 4 5 1 4 6 8 6 7 7 8 7 4 5 13 18 34 39 41 41 43 44 43 41 43 43 41 41 41 26 22 17 22 24 27 29 24 25 22 19 17 18 21 21 18 15
16 15 9 5 4 4 5 5 8 9 8 6 10 9 8 8 6 2 8 21 30 36 36 39 42 41 35 38 38 32 26 27 17 2 27 28 26 23 22 22 19 16 17 19 21 22 19 16 12

GFSSGP_925_spd_066.txt.gz
Wind_Speed
2 2 4 4 4 5 4 6 4 9 7 3 4 5 8 5 4 5 3 10 17 22 19 22 25 29 22 20 25 26 27 28 32 36 37 38 38 37 36 34 34 32 30 29 29 28 27 25 25
1 5 4 2 4 1 5 7 9 7 7 4 5 1 6 5 4 1 8 13 23 27 26 25 27 33 30 17 26 30 29 30 35 37 37 39 39 38 37 35 33 32 30 28 27 26 27 28 24
4 4 3 3 3 4 5 5 6 4 11 3 4 6 3 4 3 6 6 3 24 30 20 28 32 27 32 40 26 31 31 33 34 36 37 39 39 39 37 36 34 31 29 26 25 27 26 22 24
4 5 4 3 7 10 6 16 15 8 4 9 2 6 2 2 2 4 10 10 25 32 28 31 37 41 35 33 31 31 32 35 37 35 36 37 38 38 36 35 33 30 27 26 28 26 25 23 28
4 3 3 2 7 8 11 13 2 7 5 4 2 2 2 4 5 12 12 1 16 16 17 18 31 29 35 44 40 37 37 37 37 36 35 36 38 38 36 34 33 30 28 27 26 25 26 26 29
4 3 2 3 7 8 7 3 7 9 3 4 4 5 4 6 8 11 9 6 16 16 17 26 28 15 31 32 43 43 39 41 38 37 35 36 38 36 35 33 32 30 28 25 24 24 26 26 21
5 3 5 4 10 9 4 8 8 4 4 1 3 4 0 0 4 10 4 12 18 19 22 21 18 9 23 40 35 38 41 45 41 36 36 35 36 34 34 32 31 29 26 24 23 24 24 25 21
5 4 3 5 5 9 8 3 5 5 2 3 3 2 1 3 4 7 7 9 20 23 15 10 15 12 20 19 26 22 29 41 39 37 36 34 35 32 32 30 30 28 26 24 23 24 22 23 22
4 2 4 7 3 6 8 4 4 2 5 1 3 3 3 1 3 10 8 6 7 7 8 7 7 14 21 18 25 28 15 32 36 37 36 34 34 33 30 29 30 29 27 25 25 21 19 22 22
4 3 7 7 3 5 3 2 9 4 0 1 3 4 5 2 9 8 7 5 5 8 13 19 22 27 29 29 31 39 30 27 35 36 36 34 34 33 32 29 29 29 29 25 23 19 17 15 16
4 6 11 16 7 4 7 3 2 6 0 6 4 6 6 3 2 3 2 2 3 7 19 19 25 28 31 39 33 29 37 31 30 32 35 35 34 32 32 30 28 27 25 21 17 15 14 14 13
2 8 10 13 5 2 6 6 3 2 5 5 9 12 8 8 3 1 1 3 4 11 22 28 26 35 34 35 38 37 36 38 40 38 34 35 35 32 31 29 27 24 20 19 16 14 11 11 12
5 7 7 9 6 8 13 5 7 5 6 6 7 9 13 10 9 6 5 5 6 13 19 30 36 36 36 36 39 37 35 34 36 38 36 35 34 30 30 28 26 23 17 15 14 12 12 11 13
4 6 9 6 6 4 4 3 1 4 10 9 12 7 9 11 12 10 8 7 9 14 21 28 33 33 36 36 40 34 32 35 35 35 35 35 33 30 29 25 23 20 16 14 12 9 9 9 8
5 6 9 7 2 2 9 3 6 6 8 12 11 10 9 10 13 11 11 8 9 16 20 24 33 33 37 31 38 35 35 37 31 31 30 31 28 27 23 22 21 18 15 12 11 9 10 10 9
5 2 3 4 2 6 7 5 6 8 12 7 4 10 9 7 10 13 12 12 11 17 22 26 33 34 35 41 39 30 34 36 33 28 26 25 23 21 21 19 19 17 12 14 13 13 12 14 12
3 5 5 9 7 3 3 4 6 7 6 8 6 9 8 6 7 14 14 15 14 17 21 20 26 33 32 36 34 29 32 33 25 26 23 19 18 19 20 18 18 16 15 19 18 15 17 17 14
6 4 3 6 6 3 1 4 4 11 8 8 8 8 11 10 10 15 18 19 16 17 22 22 24 33 39 37 35 31 29 27 27 26 25 14 17 19 20 17 16 15 20 22 20 18 20 17 16
6 7 8 11 10 6 8 7 11 10 5 7 6 6 14 12 10 17 19 20 22 20 21 26 31 32 38 35 33 33 32 30 33 24 20 18 22 23 23 20 18 19 24 24 22 21 21 20 16
9 13 14 10 4 7 7 8 7 11 10 9 10 8 15 11 12 15 18 20 27 27 28 28 31 35 36 35 31 30 34 33 35 29 23 23 24 24 20 22 24 24 25 24 24 25 23 21 20
14 13 13 9 5 4 2 5 3 6 3 6 9 11 15 18 16 15 19 24 26 30 32 34 36 38 38 39 36 33 34 32 31 30 34 33 24 24 25 26 26 28 26 27 27 26 26 24 21
11 11 9 5 2 3 3 5 5 7 16 10 12 15 17 18 16 16 20 25 28 33 34 32 35 40 40 38 35 31 30 28 33 32 33 32 27 28 30 29 29 30 29 28 29 29 29 27 23
13 16 8 6 3 2 3 1 6 4 10 10 14 17 19 20 22 21 22 31 34 32 33 31 32 36 38 40 37 36 29 29 28 33 34 35 35 31 35 34 31 32 33 31 30 33 32 30 27
16 5 3 3 2 3 5 5 4 6 10 14 19 21 20 20 21 21 29 29 30 32 33 33 34 35 37 38 38 36 32 29 27 32 35 38 39 39 37 38 37 35 33 32 33 31 30 29 30
7 4 2 3 2 7 5 3 7 10 13 12 22 24 23 22 20 20 21 25 29 31 34 35 35 35 38 37 37 35 33 34 30 36 40 36 37 39 40 39 38 34 31 31 26 25 26 27 29
7 9 5 5 4 5 4 5 5 6 7 5 19 24 21 21 21 22 25 31 33 36 39 38 38 37 39 39 39 38 38 36 39 39 40 40 40 42 40 39 39 38 35 28 25 25 26 27 26
5 4 8 5 2 2 4 8 7 7 1 1 9 13 18 19 21 24 22 33 36 38 43 45 42 44 44 42 40 41 41 40 35 34 37 40 39 38 35 35 36 31 22 23 22 23 25 24 21
11 6 3 1 3 4 5 5 6 4 1 2 7 13 16 17 18 20 21 30 36 41 43 41 44 48 50 46 44 41 37 34 34 32 32 31 30 26 21 29 29 30 27 23 23 23 23 23 23
3 3 1 5 5 5 2 5 6 9 8 7 6 9 11 12 15 16 17 29 35 35 35 44 43 42 42 44 43 36 36 34 32 32 21 21 15 23 30 32 31 28 29 25 24 23 23 24 21
10 11 9 6 5 4 5 8 3 9 10 5 7 9 9 11 15 14 16 24 28 33 35 37 38 34 28 25 25 29 28 26 23 21 23 28 28 31 29 28 27 30 29 25 25 23 24 23 22

GFSSGP_925_spd_072.txt.gz
Wind_Speed
4 3 2 4 4 5 3 5 3 5 3 2 5 2 2 2 1 2 4 2 3 15 22 22 24 22 24 28 31 33 36 37 37 36 36 32 30 29 30 32 33 34 32 29 29 29 29 29 28
6 4 5 3 4 3 5 4 6 6 3 1 2 1 1 3 1 3 3 7 9 17 20 20 20 25 25 26 32 37 37 39 35 36 33 32 30 29 32 33 34 35 33 30 29 30 28 28 28
5 2 3 4 3 3 5 6 7 4 4 2 2 2 4 3 1 1 2 4 2 14 20 19 25 22 23 25 27 31 38 38 37 33 32 30 30 29 30 34 36 34 32 29 28 29 28 27 26
2 5 4 4 3 6 6 7 7 5 2 2 1 4 2 2 1 1 3 7 3 10 14 18 20 22 18 16 12 15 30 36 34 34 34 33 32 29 30 34 34 33 30 26 25 25 25 24 24
4 3 4 2 4 5 6 5 3 2 1 2 2 2 3 2 3 5 10 6 7 11 16 10 28 25 23 17 8 9 19 33 36 34 35 34 32 28 28 32 32 31 28 26 28 28 28 25 24
4 3 4 1 4 5 6 6 1 2 2 3 2 2 3 2 2 5 7 7 8 15 20 14 19 24 22 17 4 7 24 30 37 36 35 37 34 31 28 31 31 31 30 31 31 31 29 26 27
6 3 4 3 4 4 4 1 4 3 1 5 3 3 1 2 0 1 5 6 7 15 25 21 20 18 20 12 11 10 34 36 36 37 36 41 38 32 31 33 31 30 29 31 33 32 30 30 28
5 4 2 4 1 5 4 3 3 3 5 1 3 5 3 4 6 7 10 13 14 17 23 23 23 21 16 23 18 18 39 46 40 41 37 39 41 35 33 33 33 30 31 32 32 31 30 29 28
3 4 2 4 4 5 3 3 4 1 2 3 5 1 3 10 11 13 14 14 16 19 23 24 22 20 11 10 15 19 44 41 43 40 42 39 39 34 33 35 34 31 32 31 30 30 29 28 27
4 4 8 6 4 7 8 7 4 3 3 5 5 5 9 9 9 8 11 8 12 16 15 11 11 13 14 15 10 22 39 40 41 40 41 42 35 34 34 34 35 31 31 30 30 29 29 27 26
5 6 5 6 8 7 4 3 6 5 6 9 6 5 8 6 7 6 6 11 15 17 18 16 17 19 16 18 25 33 15 40 38 35 38 37 37 34 35 36 35 33 32 31 32 30 27 25 23
2 7 5 6 3 1 3 2 5 8 4 2 2 6 9 8 7 9 8 10 14 16 18 18 17 20 18 21 27 29 28 36 41 37 37 42 38 36 36 38 34 31 30 31 30 28 25 22 20
4 5 4 6 10 6 3 10 7 9 7 5 5 6 9 8 9 7 8 9 12 16 17 18 20 22 23 22 25 30 25 35 38 39 43 43 39 35 36 35 31 29 27 27 26 26 24 21 20
5 5 7 6 9 4 6 3 2 4 7 7 6 7 6 8 10 8 10 9 10 18 19 19 23 22 24 25 28 27 23 34 38 38 39 38 38 36 35 30 25 26 25 24 25 23 23 22 19
3 5 6 4 4 5 5 7 9 6 6 7 7 7 6 7 13 11 10 11 13 16 17 20 23 27 26 28 29 25 26 31 36 35 37 40 36 34 29 26 25 24 23 23 23 22 21 20 16
2 2 3 3 2 3 7 10 5 4 9 8 8 6 7 6 8 10 10 10 10 11 13 17 22 27 27 31 28 29 25 28 37 32 32 34 33 29 31 29 24 23 22 21 21 21 20 15 15
3 4 5 8 4 3 4 9 3 4 5 8 8 8 6 7 6 11 14 11 9 9 13 17 20 23 27 25 26 24 20 23 32 34 35 33 28 32 31 25 23 21 21 19 18 18 18 17 14
6 4 5 5 3 2 4 13 16 5 8 9 8 7 10 10 8 15 16 12 10 10 12 16 18 21 24 23 25 23 22 25 28 44 36 35 32 32 29 24 20 20 19 17 15 17 15 13 12
5 4 3 5 5 1 9 7 16 5 5 8 9 8 8 9 7 16 16 13 12 13 13 18 21 24 27 27 27 26 25 26 31 39 36 34 29 25 25 24 22 21 17 15 16 18 16 14 14
4 5 6 9 9 7 8 11 14 5 6 8 11 9 9 7 7 11 16 14 15 15 14 15 20 23 27 28 20 21 25 25 31 31 33 30 31 29 26 25 23 20 18 17 21 20 16 14 15
6 12 4 8 6 5 4 7 8 5 3 3 7 6 8 13 12 13 15 18 17 16 19 19 21 24 25 25 22 19 22 20 23 24 27 26 25 30 30 26 19 17 19 20 22 24 21 17 17
9 9 8 6 2 4 4 5 6 7 8 6 8 9 9 12 10 11 15 18 20 20 20 22 23 26 28 29 29 26 26 22 22 32 32 33 29 25 23 21 21 18 21 22 23 24 25 21 19
9 8 10 6 5 1 3 2 7 2 8 9 8 11 10 11 14 14 17 22 22 24 23 26 27 29 31 33 37 32 26 27 27 27 28 27 25 22 22 21 19 18 24 25 24 25 25 25 26
4 2 3 1 3 5 8 7 5 4 8 7 5 8 11 12 13 12 18 23 22 26 28 27 29 29 32 33 34 36 32 32 29 28 30 30 28 27 23 20 21 21 23 27 25 27 27 29 29
4 6 2 2 2 6 5 3 9 8 11 8 10 9 10 9 13 15 16 17 24 27 30 29 32 33 35 34 35 35 37 38 35 35 33 33 33 32 30 27 27 26 27 29 29 29 31 32 33
8 8 5 6 3 3 3 5 5 8 9 9 8 10 5 9 12 16 18 20 26 31 34 34 33 32 37 36 35 36 35 35 35 35 35 35 35 35 36 36 34 31 30 29 31 32 31 28 28
5 5 7 0 2 0 4 6 8 8 8 7 9 7 8 8 11 15 15 23 26 30 34 35 33 33 33 34 33 32 36 37 36 36 35 37 39 41 39 36 34 31 29 27 26 27 24 30 28
7 7 3 1 4 5 3 3 5 7 9 9 7 9 7 6 8 9 12 19 25 27 30 35 35 34 32 35 36 36 38 39 40 38 38 38 37 34 33 33 32 32 31 28 26 25 31 37 35
3 5 2 3 4 5 3 5 7 9 4 6 7 7 8 8 8 10 11 17 20 23 29 31 32 31 32 33 36 36 38 39 41 41 40 38 36 34 32 32 31 34 37 35 27 26 30 33 31
2 6 9 6 5 4 3 9 5 8 7 7 9 7 6 8 7 7 6 12 18 23 26 31 33 33 36 40 40 43 44 44 48 51 48 45 42 37 35 35 39 36 33 35 25 24 28 29 30

GFSSGP_925_spd_078.txt.gz
Wind_Speed
5 4 3 5 6 6 3 6 2 5 4 1 5 7 6 9 6 7 2 3 3 9 15 12 15 14 18 22 27 32 34 35 35 35 35 33 33 31 30 30 29 30 27 27 25 24 23 24 25
8 6 5 2 7 7 6 2 6 3 4 3 5 6 7 5 1 1 3 2 4 9 14 15 16 18 18 20 27 33 33 35 35 37 37 35 34 34 30 32 31 29 28 25 26 24 23 24 26
8 4 4 4 4 6 1 2 3 4 5 6 3 4 3 1 2 0 2 1 4 10 14 16 18 20 19 19 25 32 34 34 34 37 37 35 35 35 34 34 32 29 28 25 26 25 23 26 28
7 6 4 7 5 2 3 4 5 3 2 5 4 5 2 2 1 3 3 1 2 5 11 16 19 21 25 28 21 23 31 33 35 35 36 36 34 34 33 33 32 31 29 27 25 24 24 27 29
6 3 5 8 5 2 2 5 4 3 0 2 4 2 4 2 3 3 2 3 4 6 10 13 24 26 26 25 20 30 26 25 30 32 34 35 34 34 33 35 37 32 30 28 26 25 25 26 26
6 3 7 8 9 5 3 3 2 2 2 3 6 7 4 2 4 2 2 3 5 8 12 17 19 19 24 22 22 24 27 30 31 22 29 32 34 35 34 35 37 34 31 28 26 25 25 25 25
11 6 9 7 7 7 2 1 3 5 6 7 2 7 1 5 4 1 3 2 2 10 16 19 20 21 22 22 22 28 28 32 36 35 23 26 32 35 35 32 37 36 30 26 25 24 25 24 25
6 4 7 9 11 9 2 3 3 5 4 2 3 6 7 2 5 4 3 4 2 11 15 21 24 22 24 14 18 19 21 29 32 24 28 29 31 34 38 35 33 34 30 26 25 24 25 25 25
4 6 10 10 12 9 3 4 3 3 8 5 5 8 3 5 5 4 4 5 6 11 16 18 23 27 20 19 20 16 10 17 28 30 33 37 37 34 37 30 32 32 31 28 26 25 26 26 25
11 9 13 5 10 8 5 5 6 6 9 10 9 7 7 7 7 5 5 6 8 10 16 18 17 17 15 17 17 13 13 16 27 31 42 42 40 37 29 36 33 34 33 29 28 28 28 24 21
12 15 10 7 9 7 9 9 5 10 15 10 12 8 12 12 10 8 7 7 9 10 13 15 16 13 16 16 11 18 21 23 25 30 26 45 40 33 32 36 30 31 32 26 25 27 22 20 19
12 14 14 11 7 9 12 10 12 14 16 6 9 4 10 11 10 10 9 8 8 9 12 12 13 11 12 16 16 15 15 16 26 27 41 44 35 30 29 32 30 30 29 27 24 21 18 19 17
18 14 12 15 14 12 11 16 17 19 12 7 5 7 10 10 10 10 9 7 8 10 11 11 10 9 9 9 10 13 15 20 22 39 45 47 35 30 26 30 28 28 26 26 23 18 19 18 16
4 15 15 15 15 13 13 18 3 18 1 10 10 10 10 11 10 10 11 11 10 11 10 8 8 8 7 6 9 14 21 29 40 38 40 40 38 32 28 29 28 24 24 23 20 19 19 17 15
11 15 15 16 18 16 10 19 16 14 5 10 12 11 10 11 11 11 11 11 11 10 8 10 9 8 7 8 11 21 30 32 33 38 39 38 37 38 37 31 28 25 21 20 19 18 17 15 14
10 12 13 4 10 9 12 12 9 3 7 8 11 11 12 13 12 11 10 10 10 11 11 11 9 9 11 10 12 20 33 36 41 39 39 40 33 37 36 34 29 26 24 20 18 18 16 15 14
14 14 12 9 10 6 13 10 7 5 6 7 10 13 13 13 13 12 13 11 10 9 10 11 11 13 16 15 14 18 28 32 33 37 33 36 33 34 34 27 25 24 21 22 17 16 14 14 14
18 16 12 13 6 12 15 16 12 9 9 10 10 13 14 14 15 15 14 11 8 9 10 11 12 14 17 17 18 25 32 33 33 31 30 32 28 30 27 25 23 21 21 18 15 14 11 13 13
15 14 16 8 0 7 14 16 14 13 9 13 11 13 15 15 13 15 15 13 10 11 12 11 15 18 21 23 20 24 28 32 30 26 29 34 31 34 27 25 24 21 18 18 15 12 11 10 11
19 17 18 12 7 8 14 17 15 14 12 13 11 13 15 14 14 14 17 16 14 14 13 13 16 22 20 20 21 17 32 30 29 30 33 35 34 40 32 26 24 21 17 12 14 14 13 10 12
20 20 17 15 7 11 16 19 20 16 12 10 10 8 12 16 17 16 17 20 17 17 18 16 16 19 18 19 20 19 25 26 26 30 35 35 35 35 30 27 24 19 14 18 23 21 17 13 14
21 19 16 17 11 9 3 9 6 8 15 14 13 11 11 15 17 16 17 21 21 20 18 18 18 19 19 24 20 23 20 24 26 30 33 36 34 33 33 29 26 24 20 20 20 20 20 16 15
19 14 12 15 14 14 16 8 7 3 12 11 12 13 12 14 18 19 19 23 22 20 20 20 21 20 21 23 22 25 22 25 27 30 29 33 35 36 32 27 26 23 21 19 18 19 21 20 17
5 8 7 6 7 10 16 12 11 9 11 7 4 5 7 14 17 18 21 22 23 22 22 23 24 24 23 26 25 26 25 26 26 29 31 26 33 34 33 30 30 26 25 20 20 21 20 20 20
15 13 6 7 6 8 2 10 14 8 11 10 9 8 4 11 16 19 21 21 26 27 26 26 26 27 25 27 27 28 27 32 33 34 33 33 31 31 37 41 36 35 32 29 23 22 24 22 23
20 15 6 7 8 6 5 7 6 3 3 4 7 9 7 10 15 19 20 22 26 29 29 28 30 30 30 29 30 29 28 28 30 34 37 37 34 36 40 42 42 42 32 30 28 27 24 19 18
9 15 17 17 8 6 6 4 7 9 9 5 5 9 9 11 15 18 21 25 26 28 32 32 31 30 31 32 31 32 33 33 32 32 35 36 37 36 37 39 39 36 33 32 26 24 22 21 22
15 12 8 9 8 14 9 11 7 4 10 4 4 4 2 5 12 15 18 23 26 27 28 30 31 31 31 32 33 33 34 36 35 34 36 35 36 37 37 36 37 36 31 30 29 28 26 26 25
15 13 11 9 14 12 10 6 4 10 7 6 1 4 6 1 8 12 15 22 25 25 28 29 31 33 33 34 34 34 36 37 36 35 36 37 35 37 37 37 35 34 33 33 32 31 29 28 24
17 17 17 10 12 9 10 11 3 6 8 4 5 8 3 2 4 10 14 18 24 27 28 31 32 33 34 35 36 36 35 36 38 39 39 37 38 37 38 37 37 37 37 35 34 33 30 30 24

GFSSGP_925_spd_081.txt.gz
Wind_Speed
7 7 9 8 7 7 15 2 7 5 6 3 4 7 13 12 10 5 5 3 2 2 8 7 15 12 12 21 26 27 28 27 30 31 30 30 30 29 28 27 29 28 24 25 25 24 24 24 28
9 8 10 7 8 12 4 8 6 3 3 3 5 6 8 10 6 3 1 4 2 2 7 9 14 14 15 20 24 28 27 27 28 29 30 31 30 29 28 29 28 29 25 25 25 23 23 24 26
9 11 10 6 11 11 7 6 3 3 1 4 5 2 7 5 8 4 4 3 1 4 5 12 14 15 15 20 25 29 29 29 30 32 32 30 30 27 28 29 29 31 26 24 24 23 22 24 25
10 9 7 9 16 1 8 3 1 4 5 4 3 7 4 6 1 2 3 2 0 2 3 9 13 16 17 18 22 27 26 25 34 33 32 32 30 29 28 30 29 29 29 25 24 23 23 23 23
14 8 13 14 15 1 3 2 4 6 1 2 5 10 1 7 4 3 1 1 1 2 7 8 15 17 17 13 16 14 15 19 31 36 35 33 32 33 33 31 28 26 30 28 24 23 27 25 25
9 8 13 13 11 7 4 2 6 7 4 5 8 9 7 10 5 4 1 1 3 5 7 10 12 18 15 17 14 5 19 16 28 30 28 31 33 34 33 29 28 27 29 29 26 25 27 25 25
15 13 16 18 12 7 8 3 10 6 8 7 3 9 4 9 6 4 2 1 3 7 9 9 10 15 21 23 23 16 23 21 26 29 31 23 29 33 31 30 29 29 27 29 27 26 26 24 26
13 14 20 15 12 11 11 8 6 10 8 3 4 9 9 10 8 7 3 1 1 5 9 9 9 13 15 19 23 23 21 25 35 30 31 31 22 31 32 29 30 29 26 27 27 26 25 24 25
10 14 15 17 12 11 11 10 9 5 10 9 6 10 7 4 8 8 5 1 2 6 9 14 10 13 14 18 24 25 19 25 28 27 27 25 28 25 28 28 32 29 26 25 27 26 25 25 24
16 13 21 10 8 8 3 7 12 8 13 13 13 12 9 8 10 9 7 4 6 6 10 12 8 13 12 15 10 13 11 14 21 23 22 25 29 31 28 28 32 30 26 26 26 26 25 23 21
19 19 21 9 8 11 9 14 11 11 15 13 12 12 7 9 11 11 9 6 7 7 7 10 12 8 11 9 12 13 14 14 18 22 27 28 27 31 27 30 31 28 27 23 24 28 22 20 21
20 22 18 20 8 10 14 16 18 13 14 10 9 11 9 9 9 9 8 7 9 9 10 11 12 10 6 8 11 11 16 17 16 22 24 32 39 38 33 32 26 27 24 24 25 24 19 19 18
20 21 20 15 15 15 15 18 18 20 16 15 5 8 9 9 9 8 7 7 11 10 10 12 12 12 9 9 10 16 13 14 14 22 28 20 36 37 36 30 27 27 24 24 23 20 20 18 17
16 18 20 22 17 16 17 18 20 22 15 6 8 11 11 10 10 8 9 9 10 10 10 8 9 10 8 8 7 10 14 14 16 22 32 41 45 32 37 35 30 27 26 23 21 20 20 18 16
18 19 20 19 19 19 16 21 23 22 13 11 11 11 11 10 11 10 11 11 12 12 10 10 9 9 6 6 10 12 14 18 28 31 42 46 44 38 35 32 30 26 25 22 18 19 18 17 17
13 18 19 20 23 20 16 20 21 15 10 12 12 11 12 12 12 12 11 12 11 9 8 12 11 10 8 8 9 15 22 26 33 31 36 43 39 36 36 29 23 23 21 20 19 19 17 16 16
17 17 19 21 11 10 13 17 21 10 12 12 11 12 12 13 13 14 13 13 12 11 11 12 12 12 10 10 11 22 23 28 31 40 40 34 31 28 28 19 18 24 21 21 18 15 15 14 15
20 20 19 20 14 13 16 19 19 13 15 14 14 12 13 14 15 16 15 14 12 10 10 13 14 13 12 14 14 24 26 31 35 29 36 37 34 35 31 24 28 27 26 21 16 14 14 14 14
22 23 18 12 3 8 14 17 18 17 18 14 15 13 13 14 13 16 16 15 12 11 13 14 15 15 17 18 21 27 20 30 31 32 37 38 32 34 30 26 23 20 20 15 18 20 17 15 13
25 23 21 17 9 6 17 17 16 17 17 19 15 16 15 14 13 14 17 17 15 14 14 15 15 16 18 20 20 26 32 29 28 29 30 30 32 34 29 30 26 28 23 21 22 21 17 14 14
22 23 21 19 15 7 16 20 21 19 22 16 17 12 12 13 15 17 16 19 17 16 16 17 16 18 18 21 22 26 28 27 25 27 31 28 32 33 28 27 27 26 21 23 24 21 18 16 14
21 19 22 18 15 14 17 15 16 9 14 18 15 14 14 13 14 17 17 19 20 18 18 18 19 20 19 20 24 30 29 31 29 33 33 30 33 37 33 30 28 31 24 23 23 18 17 14 13
21 18 20 17 13 17 21 11 13 19 17 14 14 16 17 14 14 17 19 21 21 20 21 21 21 20 21 24 27 29 26 29 26 27 28 28 30 33 35 34 33 31 27 21 20 12 15 18 15
18 17 13 12 13 15 18 16 14 14 15 16 11 9 10 15 14 16 20 22 22 21 21 22 24 23 22 26 26 29 31 27 29 27 27 27 31 34 30 31 29 29 23 20 18 20 24 23 20
19 13 9 10 11 12 14 13 15 5 1 6 6 8 11 11 12 15 19 18 23 24 23 23 25 26 26 26 28 27 32 35 32 35 31 29 28 29 36 34 34 33 30 21 21 23 23 22 23
17 18 9 14 11 12 18 7 11 12 9 6 4 6 8 10 12 16 19 17 24 26 26 25 26 26 28 29 30 30 29 32 35 37 35 33 33 35 40 42 39 34 33 25 24 24 23 21 22
13 18 19 9 14 5 8 10 4 8 7 8 2 7 11 13 13 16 18 21 25 26 28 27 27 27 29 29 30 30 31 31 33 37 39 37 34 34 37 43 39 40 42 38 29 25 27 22 25
17 12 9 8 6 12 11 13 7 10 10 8 4 1 3 4 8 14 16 19 26 27 27 27 26 28 29 30 31 32 33 33 31 33 39 40 41 39 39 39 39 38 40 35 35 33 26 26 26
17 19 13 14 15 4 3 5 6 7 3 10 8 4 6 3 3 11 14 20 26 26 28 28 28 29 30 31 31 32 34 34 32 32 35 38 38 39 40 38 38 38 37 37 37 36 31 30 29
20 20 20 8 11 11 10 4 5 9 6 11 9 4 1 3 2 5 10 14 23 26 28 30 30 31 30 31 32 32 31 33 36 36 34 34 35 37 40 37 37 38 38 38 38 36 34 33 32

GFSSGP_925_spd_084.txt.gz
Wind_Speed
10 8 10 17 6 8 15 14 8 6 1 7 8 6 12 11 10 4 8 7 4 13 9 11 15 14 13 15 17 18 20 20 20 22 23 25 24 25 25 25 26 27 28 26 25 24 24 24 27
9 13 13 6 9 12 10 11 5 2 9 9 3 7 8 9 11 13 11 7 7 7 6 9 13 13 12 15 18 20 21 21 24 24 26 26 26 25 25 25 26 26 28 27 26 25 26 27 28
12 12 7 7 13 14 14 7 4 7 6 2 4 4 7 9 12 6 8 6 5 5 3 7 7 12 12 14 18 21 24 25 26 28 27 28 28 27 26 26 24 27 29 27 25 25 26 29 30
9 9 6 7 16 20 6 8 5 1 5 3 7 8 4 10 5 7 7 4 3 3 3 7 7 8 12 13 15 19 24 26 26 30 31 30 30 29 28 26 24 26 27 27 26 25 28 28 26
16 6 11 16 21 22 7 3 5 9 3 3 5 10 1 11 14 12 7 3 2 4 5 1 8 10 11 10 15 14 16 1 4 16 31 32 29 28 29 29 26 25 26 25 24 27 26 25 24
7 10 13 14 21 7 7 6 2 7 12 5 6 11 1 15 12 12 8 4 4 3 4 6 8 11 14 13 15 20 19 20 20 24 19 30 31 30 31 30 27 26 26 24 21 27 25 25 28
14 12 17 20 20 21 8 11 6 9 9 7 5 4 1 14 13 11 8 5 0 3 4 5 6 11 15 15 15 13 10 27 26 19 30 31 32 33 33 29 27 27 25 22 24 28 28 28 28
12 12 19 18 17 17 5 12 5 4 11 2 3 5 2 11 13 11 9 5 2 1 4 6 9 10 13 16 20 16 12 16 15 18 23 31 28 26 30 29 28 27 23 23 28 28 26 29 26
19 13 14 20 22 16 12 8 7 11 7 11 7 11 6 16 14 13 10 5 3 2 3 8 6 10 10 16 21 19 15 14 9 17 16 27 29 31 23 28 29 27 24 25 28 27 25 27 25
17 14 21 20 21 10 11 8 4 7 10 13 15 10 11 11 13 12 14 13 7 5 5 6 7 9 11 10 10 12 13 16 19 19 24 24 26 29 24 23 27 26 27 25 26 25 25 27 25
22 19 20 22 21 5 14 12 9 13 15 13 9 2 10 13 13 11 11 10 10 10 7 9 10 9 12 14 11 12 10 13 22 26 27 26 31 28 28 22 26 27 27 26 25 26 25 27 28
23 24 22 22 20 16 10 18 12 14 14 7 10 6 5 10 9 8 8 10 13 12 9 8 11 10 10 10 14 14 14 15 22 29 30 30 33 31 34 31 30 29 28 27 28 29 22 25 23
25 23 21 21 22 17 15 15 16 17 12 13 13 6 7 11 7 10 6 17 12 11 16 13 12 14 11 9 9 11 14 17 19 25 30 33 33 36 35 37 33 28 26 25 32 25 27 24 20
22 23 23 22 19 22 17 17 16 18 16 17 13 7 9 10 9 10 10 10 14 12 19 16 15 13 11 9 11 12 14 14 18 24 29 34 32 41 38 36 32 27 30 29 28 20 24 23 17
23 22 21 21 18 20 21 21 20 17 16 18 12 10 11 11 11 9 13 13 12 12 21 20 18 14 11 10 10 10 13 16 15 24 28 33 32 41 38 37 33 28 28 30 21 25 21 21 17
19 19 19 21 22 22 19 21 19 20 19 18 12 12 11 12 10 12 11 12 17 14 20 19 17 13 12 9 9 9 12 14 20 22 27 34 38 47 41 41 31 24 28 25 29 26 22 21 21
17 17 21 21 23 21 24 22 20 19 8 11 13 12 12 12 11 12 14 14 14 13 10 17 15 14 12 11 10 13 15 16 21 27 32 40 40 39 43 39 37 30 30 22 26 24 19 21 22
20 19 20 20 21 21 16 16 16 12 14 15 14 14 13 14 14 16 15 15 13 14 14 20 16 14 12 13 17 18 22 22 27 27 30 37 40 41 39 35 25 22 26 26 23 19 17 18 21
18 15 19 22 22 19 16 15 16 16 15 15 16 14 11 12 14 21 20 19 16 16 15 19 19 16 15 15 20 23 23 27 30 33 29 33 37 38 38 30 20 21 23 26 24 21 17 16 15
20 21 25 24 24 8 11 15 15 16 15 14 14 12 14 13 14 16 22 21 17 16 17 22 20 18 16 18 20 20 27 24 29 31 24 29 41 44 39 35 27 22 27 26 24 24 21 22 23
21 23 21 24 22 20 12 16 18 19 18 17 15 14 12 11 14 18 16 20 20 19 19 21 22 22 20 22 23 22 22 23 21 26 30 32 35 38 30 30 32 29 33 29 27 27 23 19 19
23 21 21 20 19 14 15 13 17 18 22 23 17 12 12 8 11 18 18 18 23 20 21 20 21 22 24 25 27 27 27 26 27 29 28 33 32 31 32 28 33 29 31 26 27 27 29 21 21
26 19 12 19 21 20 20 12 14 13 14 11 13 15 12 11 8 15 19 21 24 23 23 22 23 23 24 27 32 32 26 27 27 26 25 30 27 29 28 36 36 33 28 27 28 26 26 24 27
18 24 14 18 16 18 17 15 14 15 17 12 10 11 12 14 14 13 22 24 22 25 24 24 24 24 25 28 32 32 30 29 27 27 29 29 26 32 35 30 34 33 30 32 28 28 29 28 21
16 12 3 5 10 13 16 15 16 12 18 10 8 9 6 6 11 12 19 17 23 26 27 27 27 26 26 28 30 32 33 34 34 34 33 32 27 27 36 36 34 37 37 30 28 30 29 26 21
18 16 6 6 4 10 19 12 15 17 15 5 6 3 2 8 8 10 17 17 21 26 28 27 30 28 29 27 30 31 35 35 35 37 34 35 32 33 33 37 39 38 37 35 29 26 27 26 25
8 15 19 10 10 6 7 20 2 5 6 7 6 5 6 6 11 12 14 17 23 26 29 29 29 30 31 30 31 29 32 35 36 35 35 35 33 31 33 40 39 43 40 37 32 32 27 32 30
16 3 6 4 4 4 8 15 7 11 6 5 4 3 2 1 7 13 12 17 25 27 28 30 27 28 33 32 31 32 29 35 36 35 37 35 34 34 34 39 42 41 42 43 41 33 33 33 29
14 10 4 3 6 1 3 4 8 5 7 3 7 8 6 4 5 0 8 18 24 25 27 29 28 29 31 35 34 33 33 33 36 36 39 39 37 38 35 39 41 41 40 39 37 35 32 33 34
22 19 16 3 4 6 3 5 9 2 6 7 8 13 8 6 4 0 5 11 19 23 25 27 28 28 29 34 35 36 33 35 33 36 36 39 42 41 41 39 40 40 40 40 39 38 37 38 35

GFSSGP_925_spd_087.txt.gz
Wind_Speed
9 8 5 2 3 3 5 8 4 3 5 3 6 7 4 3 1 3 8 9 11 14 13 13 13 14 14 16 16 16 17 17 18 18 19 21 22 23 23 24 26 26 26 26 24 26 26 28 30
9 6 4 2 3 2 6 9 3 9 7 8 6 3 0 5 6 10 8 12 9 9 9 12 14 13 14 14 14 16 19 19 19 22 24 23 25 24 24 25 27 26 27 26 26 27 29 32 33
9 9 2 4 3 6 5 4 8 7 9 5 1 5 3 4 7 8 16 13 14 11 10 11 10 14 14 15 16 17 19 20 20 22 24 26 26 26 26 28 26 27 26 26 26 28 33 35 34
3 4 4 1 11 17 14 5 4 7 6 8 1 2 5 6 9 18 19 16 14 11 7 8 10 11 15 16 17 19 21 21 17 14 18 27 29 29 29 29 28 28 27 25 26 30 32 34 35
4 2 3 5 12 14 13 6 5 2 7 8 5 3 6 6 25 20 18 14 13 14 7 10 12 13 15 16 17 18 22 23 21 19 7 11 29 30 31 29 30 29 28 26 26 34 33 33 33
2 2 2 6 14 14 11 8 6 4 1 5 5 3 5 23 22 18 14 14 15 11 7 7 9 13 15 18 21 22 25 27 26 18 21 29 15 32 32 29 30 28 29 26 29 33 31 31 30
5 2 6 9 15 19 8 6 8 5 5 2 2 4 5 8 22 19 15 11 10 10 6 5 7 13 14 16 19 21 23 24 17 25 29 25 30 29 32 30 29 29 26 22 32 31 29 31 27
4 3 9 12 11 16 4 7 8 7 4 7 5 3 5 7 22 16 11 10 10 12 8 8 9 11 14 14 15 16 14 12 17 15 16 27 24 26 31 30 27 27 23 22 29 29 30 30 26
3 6 10 16 14 15 1 3 4 6 5 3 7 8 12 30 23 21 16 13 10 7 12 9 11 11 12 15 16 16 11 10 15 15 16 19 23 30 29 28 29 27 23 26 29 29 31 29 28
7 7 16 12 17 10 11 4 8 5 6 3 7 2 28 28 26 19 15 16 14 13 10 14 10 12 11 15 16 16 13 13 14 12 15 26 32 33 30 22 24 23 23 31 30 28 30 29 29
12 17 14 18 20 9 10 8 3 6 4 7 7 9 17 17 19 18 19 24 21 16 13 13 11 12 14 13 11 12 12 16 17 18 14 20 33 37 32 28 23 25 25 29 28 26 29 30 30
15 16 19 20 21 14 7 6 7 5 6 0 2 5 10 12 14 13 13 23 24 21 15 11 14 13 15 14 14 13 11 12 16 21 20 33 34 37 32 35 28 26 26 27 28 28 30 30 29
18 18 20 18 18 16 11 9 9 9 9 7 5 3 9 9 9 20 23 28 24 23 19 15 15 14 15 16 16 14 14 12 14 20 26 36 39 36 35 35 36 33 28 29 29 28 29 31 26
14 17 19 18 16 11 15 8 4 10 7 10 8 8 8 8 7 12 26 26 27 25 22 19 17 19 17 15 13 15 16 18 15 25 34 34 39 36 38 35 37 34 31 31 34 28 33 30 18
18 17 18 19 10 9 8 10 16 11 9 11 11 9 10 8 9 11 26 28 27 25 24 24 20 18 17 14 14 14 16 17 19 25 31 37 41 39 41 35 40 35 34 34 33 25 30 24 17
9 11 15 8 11 10 4 16 13 11 10 14 12 8 9 9 8 14 26 30 27 25 27 27 24 18 16 16 16 16 15 14 17 23 30 39 39 42 39 38 40 34 36 41 31 34 30 25 23
2 8 13 12 13 14 12 19 20 15 16 15 15 10 10 9 9 18 29 31 27 24 28 26 22 20 18 16 12 10 10 13 17 21 24 35 41 41 38 38 40 37 38 39 28 34 32 28 26
6 8 9 11 17 14 16 18 21 13 8 13 10 10 10 13 13 20 33 34 29 25 28 26 23 21 18 16 12 11 12 11 13 20 27 29 39 41 41 44 41 42 40 35 37 34 28 28 28
13 15 18 12 13 13 16 17 19 10 6 9 9 10 13 14 13 23 31 35 35 31 33 29 26 22 20 20 21 20 17 16 17 19 28 35 38 41 40 38 42 36 37 37 38 32 32 31 29
9 14 24 21 20 14 19 18 11 8 7 9 14 12 14 8 13 14 25 29 32 32 32 30 27 24 20 22 21 19 22 20 22 23 27 33 38 41 40 41 33 31 36 36 35 33 30 32 30
12 19 20 23 23 18 21 15 21 6 6 7 8 11 15 13 16 17 17 24 31 33 37 33 28 24 21 22 21 20 19 23 21 19 28 31 35 39 40 36 34 34 31 34 32 33 28 27 25
17 15 18 19 11 9 13 14 16 8 14 16 17 9 9 11 14 19 17 18 28 29 33 30 27 25 23 24 25 25 21 20 18 23 24 28 34 40 40 41 31 32 29 29 32 33 33 30 26
14 15 15 10 12 17 23 11 14 14 13 11 18 24 12 10 21 20 20 26 28 35 35 32 28 23 27 27 26 28 22 22 24 21 25 27 25 28 34 37 29 30 32 32 32 33 32 30 28
11 14 10 9 10 9 19 10 10 15 15 15 10 12 16 11 21 22 23 28 26 31 34 35 31 27 27 29 27 29 27 24 24 24 25 25 29 33 30 33 35 29 36 38 34 31 31 29 26
12 8 4 6 5 7 7 11 15 9 17 23 18 14 14 13 17 18 19 17 25 29 31 34 31 27 27 31 32 29 29 29 31 31 29 28 27 31 34 33 37 37 34 37 35 34 33 34 27
9 10 3 4 3 3 11 7 9 14 21 16 10 7 8 10 17 20 20 18 26 29 32 31 32 28 27 31 33 32 30 30 30 34 30 31 29 33 32 34 38 40 38 35 35 35 35 33 29
4 7 13 5 3 2 5 6 10 14 22 8 7 8 8 8 17 19 19 19 27 31 33 34 31 29 30 28 31 31 33 31 31 33 31 32 28 30 32 35 35 36 37 38 33 36 33 33 30
9 7 5 3 3 4 5 6 2 7 5 7 7 8 9 5 9 19 19 18 28 32 34 35 34 32 33 30 30 30 32 34 33 33 33 33 34 31 32 35 36 37 38 38 40 37 34 33 33
8 4 5 2 3 2 3 3 2 10 10 11 8 9 7 8 6 8 16 20 26 29 32 32 34 32 32 34 29 30 29 34 34 33 35 36 37 36 35 41 41 35 38 39 38 37 37 37 38
8 11 7 3 5 3 0 4 9 17 16 6 7 11 12 12 7 7 13 14 22 26 28 31 31 31 34 34 33 32 31 32 34 35 36 36 37 38 38 39 42 41 40 41 42 39 36 37 35

GFSSGP_925_spd_090.txt.gz
Wind_Speed
8 6 2 3 3 4 4 6 5 6 1 3 4 7 8 1 1 4 11 10 14 18 18 16 16 18 18 17 17 18 18 17 17 19 22 24 25 27 28 29 29 28 26 25 25 25 27 31 33
8 3 2 2 3 2 5 5 8 7 7 6 5 6 4 2 2 7 10 14 17 18 17 17 17 18 18 17 17 18 18 18 18 19 22 25 26 27 27 27 29 28 28 25 25 25 27 32 35
6 4 3 3 4 6 5 1 3 4 8 6 4 2 8 8 3 15 11 19 18 18 16 17 16 17 18 18 18 20 20 20 20 21 22 24 25 25 28 30 29 29 29 28 27 28 31 35 36
5 4 4 2 11 7 6 6 5 5 2 3 6 6 4 2 16 12 25 22 19 17 18 18 16 16 19 19 20 21 22 22 22 23 23 23 22 26 28 30 30 30 29 31 31 32 36 36 35
2 3 1 3 9 7 5 7 10 9 5 6 6 4 5 3 15 26 25 24 20 16 17 18 16 16 19 20 21 22 23 24 26 27 24 22 18 17 23 30 32 30 30 31 33 36 37 37 34
2 3 2 5 11 7 7 11 14 6 6 5 5 6 4 18 29 25 22 21 17 17 15 15 15 16 18 20 21 22 25 26 27 27 23 21 15 21 19 24 31 31 30 29 35 37 38 37 33
6 4 5 5 8 9 8 9 6 7 5 4 5 4 3 6 24 24 23 23 18 14 13 13 13 13 17 19 21 23 25 28 28 28 26 24 22 20 13 22 28 31 29 30 35 37 37 34 30
5 4 3 6 4 11 4 7 4 4 3 4 6 6 6 7 23 24 22 20 17 15 13 13 12 11 14 16 20 21 21 21 25 19 26 28 24 25 15 28 30 31 30 36 36 35 34 28 22
4 3 5 10 7 8 6 8 7 2 5 4 6 9 8 31 27 22 19 17 17 16 15 13 14 12 14 16 17 18 19 21 19 16 16 17 20 37 20 37 34 32 27 36 35 32 31 23 22
5 5 10 6 9 9 13 5 6 5 4 4 2 5 23 30 27 20 17 16 19 19 18 16 16 15 15 17 18 18 17 16 16 17 19 19 21 28 29 33 31 28 26 35 34 31 30 26 38
6 12 6 12 10 8 12 13 5 6 4 8 9 10 14 19 18 16 17 24 27 20 17 20 18 16 17 16 18 17 17 17 16 14 11 21 25 28 28 28 28 27 27 35 32 32 32 32 35
7 6 7 12 15 8 12 13 7 7 9 6 5 16 15 14 14 15 16 23 24 23 18 20 19 17 16 15 16 16 16 19 20 19 10 16 32 29 31 33 29 28 29 33 33 35 32 30 27
8 10 14 15 16 14 15 19 19 11 11 9 6 12 16 16 16 20 22 24 27 25 23 20 21 18 19 16 16 14 14 16 22 24 19 29 34 38 38 33 35 34 34 37 32 34 33 30 22
5 11 17 14 16 11 11 17 6 9 9 9 9 11 16 16 17 12 19 23 29 28 26 21 23 21 19 19 18 16 14 13 17 28 30 32 36 36 35 36 35 35 37 37 34 35 36 30 21
10 13 14 12 7 7 6 21 8 12 9 10 11 10 10 13 14 20 29 31 35 31 29 26 22 23 20 18 16 15 15 16 16 22 29 35 39 40 38 36 35 35 38 38 37 33 35 28 18
4 4 6 5 8 6 7 24 8 10 7 11 12 10 9 10 11 21 31 34 36 34 33 28 24 24 22 18 16 16 15 15 19 23 32 37 41 43 35 34 38 35 36 39 38 36 34 29 21
3 8 12 7 3 6 8 19 7 8 9 12 12 10 10 10 8 23 32 37 38 36 34 32 28 26 23 20 18 18 17 16 15 20 33 38 37 42 38 35 36 38 36 38 38 35 39 30 26
6 6 5 3 3 7 11 14 9 16 10 14 18 11 12 14 15 22 31 34 35 36 34 33 31 27 24 22 18 15 12 13 18 20 21 36 41 40 40 37 42 39 40 37 35 35 36 29 28
4 7 9 6 5 7 13 13 15 16 17 16 18 11 15 16 14 22 30 31 33 33 35 35 34 30 27 22 17 13 12 14 17 19 24 26 27 38 37 36 36 44 40 36 36 37 35 30 28
6 3 7 5 5 12 16 25 19 23 20 17 17 11 15 12 9 13 25 28 33 34 35 36 35 32 29 22 20 15 16 13 16 16 19 24 29 39 38 42 42 33 34 36 35 34 29 26 32
6 5 3 5 14 11 5 22 21 24 13 13 10 11 12 13 13 16 16 26 28 31 36 37 35 32 28 23 20 15 15 12 13 13 18 25 28 35 39 42 41 38 35 40 42 40 33 25 30
12 6 5 7 6 5 2 11 17 16 20 19 11 10 10 10 12 19 19 19 30 30 35 37 36 33 29 26 25 24 17 13 12 17 16 19 24 30 38 37 41 36 32 34 36 41 36 31 28
6 4 7 1 8 9 14 7 13 12 18 19 15 10 8 10 17 20 23 29 31 34 35 37 36 33 29 27 27 27 20 17 19 17 21 22 21 24 27 35 42 42 38 36 40 40 38 40 32
2 4 5 6 8 10 12 11 11 13 16 17 16 9 10 8 18 23 25 27 25 28 33 36 35 33 30 29 29 29 25 21 23 20 21 22 22 26 29 38 45 38 35 31 35 32 36 40 37
5 5 3 5 6 11 5 13 17 12 16 15 17 14 13 11 15 18 20 17 25 29 30 32 33 30 32 31 30 29 28 27 29 29 25 23 23 25 32 35 35 40 36 35 36 36 33 29 32
6 5 3 6 4 3 10 7 5 21 21 22 22 15 17 15 16 21 22 20 27 30 31 31 32 30 31 31 31 30 28 30 30 32 30 29 29 27 33 37 34 31 34 36 36 37 36 33 32
4 4 5 5 2 1 4 5 5 7 12 13 18 10 6 14 17 18 18 18 27 29 33 34 31 30 32 28 30 31 30 29 30 32 31 33 29 28 35 33 35 35 31 34 39 35 34 33 35
8 2 2 3 3 3 4 3 3 10 9 13 17 10 2 6 15 16 17 18 28 29 30 30 32 32 33 28 29 30 29 33 30 30 35 33 34 34 34 37 37 35 37 36 34 35 34 36 37
3 3 4 4 3 1 3 2 6 11 11 14 16 18 7 6 7 13 14 17 23 25 27 28 27 28 30 31 29 28 30 31 33 33 35 37 37 37 36 39 39 38 37 40 39 38 37 38 39
8 4 4 3 3 3 1 3 6 12 15 16 16 20 10 8 6 10 12 12 19 23 24 28 28 29 32 32 31 29 30 31 31 34 36 35 38 39 40 39 40 41 40 40 39 39 34 40 39

GFSSGP_925_spd_093.txt.gz
Wind_Speed
8 4 1 4 3 4 4 7 3 6 3 4 4 4 5 2 4 4 6 18 13 18 18 19 21 23 22 21 20 19 18 19 22 28 31 32 32 33 31 29 27 26 26 26 27 28 27 28 30
7 4 3 2 4 1 5 5 7 7 5 1 5 3 2 1 2 4 9 17 18 22 20 20 21 22 22 21 21 20 19 19 20 24 28 30 31 30 30 29 27 24 25 26 27 28 28 30 32
7 1 3 4 4 6 5 4 1 6 4 4 5 3 6 4 3 9 5 21 23 21 19 20 21 22 22 22 21 21 21 20 20 23 25 27 28 29 28 29 28 25 26 26 27 28 29 33 33
5 4 4 3 8 7 6 4 4 8 7 5 2 4 1 3 10 11 16 24 23 21 20 20 20 21 22 21 21 22 22 22 21 23 25 25 26 27 28 27 27 27 27 26 28 30 33 34 35
3 3 1 3 7 5 5 7 3 8 4 8 5 5 2 5 7 17 26 23 22 21 20 19 19 19 20 21 21 21 21 21 23 24 21 24 24 24 26 25 24 23 26 28 29 32 35 37 36
3 3 2 6 9 3 5 9 4 10 13 6 2 6 4 1 17 23 23 22 18 20 19 19 17 17 19 20 20 20 21 23 25 27 28 24 20 14 16 14 20 24 26 27 30 34 37 36 34
6 4 5 4 6 6 5 4 4 5 5 7 7 6 2 2 17 22 21 21 17 17 19 19 16 16 16 17 19 21 22 24 25 26 26 25 28 28 11 16 16 22 27 28 34 36 36 34 32
5 4 4 6 5 9 4 3 5 3 6 1 9 6 5 7 20 20 21 20 18 18 17 17 15 15 15 17 19 21 25 26 27 27 26 26 26 20 20 31 20 25 28 34 35 35 34 32 31
4 2 6 11 7 6 3 7 4 5 3 5 9 8 4 28 26 24 20 18 18 18 18 17 17 16 16 16 17 20 20 19 21 26 25 24 22 28 34 31 35 27 27 36 38 37 33 30 28
5 6 11 5 8 5 5 5 7 7 11 6 2 3 11 31 27 20 17 17 22 22 20 19 18 18 16 15 16 18 18 20 23 26 23 27 28 32 29 31 33 32 30 36 41 38 29 26 31
7 12 5 7 6 4 5 8 2 4 9 8 8 4 8 12 18 16 17 22 29 26 21 20 20 19 18 15 17 18 19 20 22 22 21 23 21 27 35 31 32 33 40 39 39 33 28 29 36
5 7 13 7 6 3 6 6 5 7 15 10 11 5 10 12 14 14 18 24 25 25 24 21 20 20 18 16 19 19 19 20 21 20 20 22 27 29 29 35 35 28 36 40 36 33 29 32 36
9 3 7 7 8 6 8 13 10 17 13 15 6 8 15 16 16 19 18 22 25 26 25 25 22 22 19 16 17 19 20 21 20 18 17 17 23 25 20 30 33 26 32 41 38 34 31 34 35
3 9 14 7 11 6 12 17 5 9 12 12 8 14 13 17 20 14 16 23 28 30 29 25 24 24 22 20 18 19 18 18 19 20 18 16 26 21 20 28 32 34 34 42 39 37 37 33 31
6 15 10 5 5 7 6 20 10 12 13 10 11 11 12 17 15 18 31 28 36 37 31 28 25 26 23 22 20 18 17 16 16 21 22 26 30 33 31 34 34 34 34 38 41 37 34 30 28
4 3 2 4 9 7 9 30 8 9 9 11 11 9 11 16 15 29 29 35 35 33 33 28 27 28 25 24 22 20 18 17 17 19 25 31 29 33 36 34 36 36 36 39 40 40 35 32 29
3 6 5 4 6 5 9 18 3 4 7 10 10 10 9 9 10 22 31 35 38 38 36 32 30 30 27 24 22 19 19 18 18 20 25 31 34 33 34 35 35 36 35 39 38 37 36 30 28
6 5 2 4 3 3 7 13 4 6 4 8 9 11 10 10 16 23 30 31 33 36 36 33 31 31 28 25 21 20 18 16 17 17 23 29 36 37 36 33 36 36 37 35 37 38 32 29 28
4 4 4 3 5 5 4 12 14 9 9 13 10 11 12 14 13 24 27 28 31 32 34 35 34 33 31 27 23 18 19 17 16 18 21 17 34 39 37 33 36 37 34 38 37 31 35 29 29
6 7 9 5 5 5 6 16 18 16 8 12 14 13 15 17 7 12 22 25 32 33 32 32 35 34 29 27 22 14 17 16 18 19 20 21 24 34 38 32 36 38 32 28 31 34 27 26 33
4 7 4 7 4 6 5 18 14 19 10 9 10 10 14 16 11 13 16 24 27 30 33 35 35 36 28 29 23 14 14 10 14 16 18 20 22 26 31 35 37 39 34 34 34 33 29 27 28
4 5 6 4 2 7 3 16 22 13 12 12 14 9 13 8 7 13 15 15 28 30 30 34 32 33 26 30 26 23 17 10 13 16 15 17 21 26 27 32 38 40 44 33 33 34 30 27 24
5 4 5 7 3 2 5 3 17 7 14 16 10 8 9 13 12 15 18 26 31 30 32 33 29 31 26 32 28 24 20 16 15 14 12 14 18 24 27 32 33 43 39 38 42 31 35 31 27
1 2 3 3 0 8 11 11 13 9 13 13 14 12 13 10 10 15 20 21 23 26 28 30 29 28 26 32 28 26 24 19 17 17 18 16 17 19 28 32 31 35 40 36 34 31 32 35 31
3 3 2 4 5 6 5 12 17 23 19 17 17 14 13 9 10 14 16 17 22 29 30 29 29 27 29 32 30 27 25 22 23 22 20 20 21 20 25 28 35 33 33 36 31 37 39 39 43
5 5 3 4 3 3 8 6 5 12 14 8 11 10 15 14 7 16 20 19 25 30 31 30 29 27 29 31 31 28 24 25 24 26 24 24 24 23 28 30 30 30 35 35 37 37 38 40 38
3 7 2 5 3 3 4 6 5 14 17 18 14 13 12 13 10 18 19 18 25 29 33 34 31 26 28 27 31 28 27 27 26 25 27 27 26 27 28 31 33 32 34 39 37 39 33 36 30
4 3 4 3 3 3 4 4 2 12 16 17 18 15 11 8 5 14 16 17 25 25 27 27 30 29 27 25 28 30 30 28 27 27 27 28 27 27 32 34 33 36 36 33 35 32 36 35 33
3 3 3 2 4 2 3 3 4 6 11 15 15 18 16 12 3 5 10 12 20 21 24 26 27 28 27 26 24 28 31 31 29 29 31 30 30 30 31 36 38 37 36 35 36 33 37 36 36
3 3 4 2 2 3 2 5 3 8 11 16 20 20 17 14 2 8 7 9 13 16 18 20 23 25 26 27 23 24 30 30 29 29 30 32 32 32 35 35 39 38 35 38 37 35 35 40 39

GFSSGP_925_spd_096.txt.gz
Wind_Speed
8 6 4 5 3 4 3 6 3 4 3 3 3 4 6 4 6 5 2 18 14 17 17 18 20 21 21 21 21 21 21 23 25 28 31 33 33 32 31 29 27 26 25 24 26 25 22 24 28
12 8 5 3 4 2 5 4 6 6 5 2 3 3 2 1 2 3 8 20 13 18 19 20 22 23 22 21 20 20 22 21 24 29 31 34 33 33 32 30 28 26 24 24 24 23 25 27 30
11 5 4 4 4 6 6 6 6 3 5 3 1 0 4 3 2 6 8 22 17 19 18 20 21 22 23 22 21 20 20 22 24 29 31 33 33 32 31 28 27 27 26 26 25 25 26 29 32
4 4 4 4 8 6 6 5 3 6 4 5 3 5 2 2 4 8 11 22 20 20 18 18 19 20 21 20 20 20 20 21 25 27 29 27 25 27 27 26 23 23 25 26 26 26 28 30 32
4 3 3 2 6 5 6 6 3 5 2 5 7 4 2 2 4 11 18 22 24 21 18 17 18 19 18 18 19 19 20 21 23 23 25 27 16 10 20 20 17 19 21 24 28 29 30 32 32
3 3 2 7 6 4 5 6 2 4 6 6 6 6 4 4 10 15 23 23 22 21 19 17 18 18 18 17 17 17 19 20 22 23 24 24 26 29 17 23 12 14 19 22 27 29 31 33 33
6 4 5 4 6 4 4 6 4 6 6 6 4 9 3 4 12 19 22 20 20 20 20 19 18 18 18 17 18 18 20 20 22 25 27 26 28 30 27 25 24 14 18 25 28 32 34 34 34
5 4 4 6 12 7 5 3 2 4 3 1 1 6 6 6 19 21 20 19 18 19 19 20 19 18 18 19 18 20 21 22 25 26 26 30 32 34 30 29 23 17 26 27 31 34 35 35 32
4 1 5 6 6 5 2 4 3 4 2 4 3 1 6 19 24 22 19 18 18 19 21 20 20 19 17 17 18 18 22 24 25 25 27 30 34 30 26 24 20 31 31 27 33 36 35 33 30
5 5 9 5 5 4 3 1 2 5 6 5 2 3 5 19 24 19 16 17 17 24 24 23 21 20 17 16 17 20 20 22 21 24 27 27 29 27 21 25 29 31 32 32 34 36 35 32 31
6 9 4 4 7 5 3 7 6 2 7 9 6 3 5 8 13 13 16 21 26 29 26 26 24 21 18 18 17 19 22 22 24 26 25 25 25 22 23 26 29 27 29 31 34 36 35 34 31
4 5 7 4 6 3 6 4 5 8 11 10 9 2 7 9 13 15 18 25 28 28 27 24 23 22 20 20 18 19 20 22 23 25 24 23 25 27 30 33 29 27 28 28 34 39 36 33 31
6 2 5 7 9 7 7 10 11 8 11 14 7 7 10 12 16 21 22 21 29 29 28 26 23 24 23 22 21 20 22 22 23 23 23 22 23 27 30 35 27 27 33 34 36 37 34 33 33
2 7 13 8 10 7 10 17 5 4 8 11 5 11 10 14 19 14 17 25 31 32 30 29 25 24 26 25 22 20 21 21 21 21 22 22 23 26 27 30 28 30 30 39 39 38 35 35 35
4 7 8 7 6 8 6 14 10 10 11 11 12 10 10 15 9 18 30 29 39 37 31 30 27 24 26 25 23 23 22 22 21 20 20 20 17 19 22 22 31 34 35 34 37 36 35 35 35
2 2 3 4 10 8 8 26 8 8 8 9 10 7 8 11 13 23 24 28 33 33 34 31 29 27 28 27 25 22 21 20 19 18 21 20 19 21 23 20 24 30 32 38 38 36 34 35 34
1 4 4 4 7 5 9 12 3 4 2 7 7 8 6 9 8 23 30 33 34 36 34 34 31 29 28 26 24 21 21 20 20 19 20 25 24 25 25 26 29 32 31 34 36 35 36 34 30
5 4 4 5 5 5 10 17 5 8 4 7 9 8 8 8 13 22 29 33 35 36 34 34 33 29 29 26 23 20 20 20 20 21 20 25 29 30 27 26 30 32 30 30 31 37 35 36 33
3 4 4 2 6 5 8 14 7 8 9 8 9 10 9 11 9 21 30 28 29 31 34 36 36 32 31 29 25 21 22 21 20 19 19 25 27 32 33 31 31 32 30 33 36 34 35 28 30
5 5 5 5 7 7 8 23 10 7 11 15 14 14 10 7 8 9 16 25 32 34 33 35 33 33 32 31 24 18 21 21 21 19 19 21 19 27 34 31 35 36 31 31 37 30 26 21 30
4 4 4 6 4 5 7 25 22 15 16 13 13 14 8 11 11 8 10 21 24 30 37 38 33 33 30 28 25 17 16 14 18 19 19 20 21 21 34 34 38 39 37 35 37 34 36 24 29
3 5 5 3 2 3 2 13 17 12 19 14 15 12 13 11 9 8 11 12 25 29 31 32 31 33 28 30 26 23 17 11 17 19 19 19 20 18 24 25 36 38 37 37 38 38 31 25 28
4 3 2 1 3 1 5 4 2 8 7 11 13 14 12 11 11 10 14 21 23 22 30 31 30 32 31 33 31 28 21 17 13 15 14 17 18 21 23 25 29 34 38 35 36 39 35 32 30
3 2 1 2 2 5 10 10 7 6 10 6 10 14 13 12 10 11 14 16 19 23 24 29 32 31 31 31 33 30 24 18 15 14 13 13 15 19 21 29 31 34 38 40 38 36 38 37 32
3 4 3 3 2 5 6 9 16 18 20 16 19 14 9 9 8 9 12 14 20 29 30 30 32 31 31 31 33 30 26 22 17 17 17 17 15 17 24 24 27 32 34 37 42 37 38 34 36
3 3 4 4 3 3 3 6 5 3 5 10 14 12 8 10 8 9 14 16 21 29 32 32 32 29 30 30 32 29 25 23 20 21 20 20 17 15 17 22 27 31 36 35 36 36 37 36 34
3 3 1 3 6 4 4 6 5 9 14 18 18 18 19 18 9 11 11 14 21 28 33 34 31 28 29 27 29 29 25 24 23 22 20 20 20 18 18 21 25 28 33 32 33 34 38 39 37
4 4 1 3 3 4 4 5 3 10 13 15 21 22 22 20 15 8 9 12 18 23 27 27 28 28 27 27 25 29 26 23 20 21 24 22 21 20 24 24 25 27 29 29 32 28 32 37 37
3 1 2 2 3 3 3 3 2 4 5 11 15 18 22 23 13 6 8 9 15 20 22 23 25 24 24 22 22 22 24 23 20 20 21 22 22 22 22 26 27 27 29 31 26 26 28 26 29
4 3 1 3 3 3 4 5 4 5 7 8 14 20 22 17 11 8 10 11 13 15 17 17 19 20 19 19 19 21 22 22 22 20 19 21 20 21 21 25 28 29 30 31 34 36 35 33 32

GFSSGP_925_spd_099.txt.gz
Wind_Speed
8 6 3 2 3 0 2 5 2 4 3 4 6 4 6 3 5 2 3 18 15 20 19 19 20 20 21 20 19 18 19 23 25 26 27 28 30 30 28 28 26 26 28 25 24 23 23 23 26
12 8 3 2 3 4 4 3 8 9 4 1 6 5 3 3 2 2 8 18 15 19 20 20 21 20 21 21 20 19 19 21 24 26 28 29 29 29 29 28 26 27 28 25 24 22 22 25 27
12 4 2 2 3 7 5 6 6 3 7 5 4 3 4 3 3 7 7 22 19 19 18 20 20 21 20 20 20 20 20 21 24 25 27 28 28 26 25 24 22 22 24 23 22 21 24 28 30
6 3 3 3 13 5 5 5 6 3 2 5 1 2 1 3 4 6 14 24 19 19 18 19 20 21 21 19 20 20 19 20 23 25 27 28 28 26 20 18 19 20 20 21 21 23 26 29 30
5 2 2 4 8 4 8 3 4 7 4 3 2 2 3 3 6 9 16 24 21 21 19 19 20 21 20 20 20 20 21 21 22 25 29 30 20 20 21 10 12 16 20 21 21 25 28 30 30
3 2 3 13 16 4 5 8 4 4 7 4 4 4 3 3 9 12 17 22 20 21 19 18 19 19 19 18 17 18 20 23 23 21 22 24 28 29 16 29 23 18 16 16 17 22 28 32 31
6 4 6 6 9 5 4 6 5 7 6 3 3 7 2 6 11 15 18 20 20 19 19 18 19 19 18 19 18 18 18 20 22 23 24 26 28 23 28 28 26 25 23 21 20 23 28 32 31
4 4 6 6 15 10 4 4 3 3 1 3 3 5 3 2 14 16 18 19 19 19 18 19 19 19 19 19 19 19 19 21 22 23 23 26 25 27 24 28 29 26 26 24 18 27 29 32 31
3 5 10 12 10 6 3 1 1 1 4 5 2 3 4 2 12 15 15 15 18 20 21 21 20 20 20 20 20 19 20 21 23 23 25 25 25 24 27 30 29 24 27 28 28 37 31 32 32
6 7 12 6 12 11 4 3 4 6 6 5 6 2 3 7 14 16 18 18 20 22 24 22 22 20 19 19 19 20 22 22 25 25 26 28 29 31 31 31 25 21 24 26 33 35 32 32 31
5 12 5 7 15 7 10 11 4 10 16 14 10 2 1 8 14 17 18 21 23 19 25 25 24 21 20 19 19 19 22 23 21 23 26 30 32 33 30 28 25 23 25 26 29 31 31 25 24
6 7 12 7 9 6 9 9 11 13 16 17 15 9 5 9 14 19 23 24 21 21 25 24 24 23 21 19 21 20 23 24 24 25 26 29 30 32 29 26 24 24 27 30 31 29 27 25 24
7 5 7 11 14 12 13 18 17 16 13 19 10 9 14 12 17 23 24 20 20 22 22 25 25 25 22 21 21 21 21 24 23 24 27 27 29 31 29 25 26 27 25 36 36 36 36 29 26
5 15 15 7 12 9 14 21 9 7 14 15 10 14 13 14 18 17 20 27 26 26 24 26 27 26 25 24 23 21 21 22 24 25 27 26 27 28 27 25 31 31 28 32 38 39 34 26 22
4 7 10 10 10 8 3 19 16 16 18 18 19 14 13 14 12 20 28 28 30 28 23 29 29 27 28 26 24 22 21 22 23 24 26 26 23 20 20 22 30 29 33 34 37 38 33 22 21
5 3 5 1 13 9 11 26 4 7 9 14 14 11 10 12 13 20 22 26 22 24 25 27 30 30 28 27 26 24 22 22 22 21 21 22 21 19 16 17 27 32 35 37 42 42 35 25 22
2 8 5 3 7 4 15 21 7 1 2 5 6 7 6 10 10 16 19 22 23 26 25 27 29 32 30 28 26 24 23 23 21 21 20 21 20 18 18 17 23 32 32 34 36 35 35 26 20
9 7 5 6 2 7 14 20 13 11 9 9 11 12 12 12 16 17 15 19 23 25 26 27 28 30 31 28 25 22 22 22 19 20 20 20 22 22 23 20 23 26 29 31 30 33 30 29 22
6 4 6 2 5 8 16 21 16 12 15 14 14 15 16 17 18 19 20 18 18 22 26 29 30 32 32 31 29 27 25 24 20 18 20 21 25 26 26 23 23 28 30 31 34 34 32 25 21
8 10 10 6 8 7 14 26 18 12 15 20 20 19 18 18 17 16 18 15 19 24 28 30 32 33 31 30 27 19 24 24 23 20 19 20 22 27 34 31 28 29 28 27 34 33 28 23 32
8 12 8 10 5 7 12 25 22 14 22 22 20 20 21 21 20 18 13 18 18 25 32 35 36 34 31 30 27 22 19 16 21 21 20 21 20 25 28 32 33 35 35 33 36 36 33 23 28
12 8 7 5 3 5 2 9 9 3 7 12 16 16 17 18 19 18 16 13 22 28 25 29 32 33 34 35 31 27 21 15 21 18 19 17 21 20 21 28 34 36 37 36 35 38 34 31 29
4 5 6 5 6 3 6 7 2 12 12 14 14 16 17 19 19 20 20 23 22 22 27 29 31 30 32 36 31 27 19 16 13 15 15 15 17 19 15 20 35 34 36 38 40 33 34 31 32
8 6 2 2 3 5 11 8 3 3 5 23 18 17 19 16 15 18 21 17 17 21 26 30 32 31 31 33 33 31 22 18 14 13 14 13 15 17 17 23 28 33 38 37 39 43 36 30 30
3 5 2 2 3 4 1 7 11 16 10 10 14 17 19 16 15 13 14 13 18 24 29 31 34 32 32 31 32 28 20 18 15 14 14 11 14 17 19 26 30 32 30 32 36 40 42 39 35
7 4 3 4 3 1 2 6 3 5 4 7 14 16 17 20 17 15 11 13 19 25 29 30 32 31 31 31 30 24 20 17 14 14 13 12 14 14 18 18 26 29 31 31 35 38 43 35 34
3 3 1 2 3 1 4 5 5 4 8 14 17 20 22 23 20 18 13 13 18 25 29 29 29 28 29 29 26 22 21 18 15 14 12 12 13 12 13 18 24 24 26 32 33 34 31 33 35
2 6 3 1 2 3 4 5 5 8 10 12 16 19 22 23 22 13 11 9 17 19 21 23 25 25 25 25 26 21 20 18 16 14 15 14 15 12 12 13 15 18 24 27 28 26 30 30 29
3 3 3 1 2 1 3 1 7 11 9 10 11 12 16 20 19 11 9 7 12 15 19 19 22 22 24 24 23 20 19 19 18 16 16 16 16 16 15 15 15 17 21 23 26 26 25 28 29
3 4 3 2 4 2 3 5 3 9 10 13 11 13 16 18 18 10 7 7 10 13 16 18 21 21 22 21 19 18 18 17 18 17 17 18 18 19 17 19 20 18 20 22 20 22 24 27 28

GFSSGP_925_spd_102.txt.gz
Wind_Speed
11 6 5 7 6 6 11 7 2 7 5 4 5 6 9 7 2 3 4 12 10 15 14 15 16 20 19 17 15 15 16 21 25 25 25 26 25 25 24 24 24 21 20 20 21 21 21 21 23
11 8 6 2 7 11 10 8 10 7 5 3 5 6 6 5 1 3 11 12 13 14 14 15 17 20 20 18 17 16 18 19 22 23 24 26 25 25 24 22 23 21 21 21 20 19 21 22 25
12 9 5 5 9 15 9 7 5 2 3 6 6 6 2 2 4 8 6 17 15 14 14 15 18 20 21 20 19 18 18 19 21 22 24 25 26 25 23 22 18 20 20 18 17 18 19 23 25
11 7 4 10 17 11 11 4 5 4 3 6 6 7 3 2 6 12 12 17 16 15 15 16 17 20 21 21 20 19 18 19 20 22 24 26 26 21 19 17 15 14 15 17 16 17 21 24 26
9 4 11 14 22 18 10 5 6 3 1 2 6 9 3 5 7 10 16 18 17 15 14 15 17 19 21 20 19 19 19 19 19 20 23 26 25 25 25 17 22 22 13 14 15 17 20 25 27
8 6 12 18 21 10 13 12 11 11 8 7 8 11 8 4 11 12 15 18 15 15 14 14 19 19 20 20 20 19 18 18 19 21 21 21 23 27 23 31 25 20 13 16 19 18 18 24 27
16 12 20 20 18 14 10 10 12 12 9 7 5 8 5 7 10 12 14 17 15 15 14 14 15 16 18 17 19 19 19 18 18 18 19 20 24 25 27 25 25 14 23 23 24 24 20 22 22
11 12 23 20 17 22 13 9 8 12 5 3 3 5 8 5 7 11 14 15 15 15 14 14 15 15 15 15 17 18 18 19 20 21 21 23 25 27 32 22 24 23 27 28 25 26 28 26 21
9 12 18 20 17 14 5 11 9 2 6 3 2 4 5 6 8 12 15 16 16 16 16 15 16 15 15 15 15 18 18 18 20 21 22 23 21 24 20 22 24 26 27 25 25 25 23 21 27
15 16 26 17 13 7 8 9 7 8 12 10 7 5 1 2 5 15 16 19 20 19 19 17 16 16 14 13 13 16 16 19 20 20 20 21 21 20 20 21 25 27 27 21 23 20 22 23 24
15 25 16 12 15 18 17 16 13 14 14 13 10 6 8 5 7 13 19 20 20 17 16 18 18 17 16 15 14 17 20 20 19 22 18 21 19 19 21 20 22 23 23 22 22 22 25 28 27
17 21 21 16 16 15 17 17 18 16 18 16 14 13 12 14 11 13 16 21 20 20 19 19 19 18 18 15 15 14 20 20 21 22 21 23 19 21 25 21 23 22 17 20 21 29 29 31 26
23 21 16 16 20 20 18 21 21 22 15 20 17 14 15 15 15 16 18 18 22 23 23 23 21 20 19 18 15 14 19 20 18 21 23 24 20 22 30 26 26 19 19 21 26 33 28 26 24
8 22 21 19 17 18 20 22 21 14 16 23 17 16 17 16 17 17 16 20 24 25 24 23 23 22 20 19 17 15 14 15 18 21 25 26 20 25 28 25 20 20 15 23 31 33 31 26 23
18 19 17 16 14 13 10 23 26 20 20 23 22 19 19 18 21 17 21 21 24 23 23 25 24 23 22 20 18 16 15 15 16 21 22 24 26 20 21 23 22 22 20 25 34 36 35 29 23
17 18 19 18 20 22 19 26 10 1 9 14 14 11 13 17 20 22 21 21 20 21 24 25 25 24 23 22 19 18 16 16 17 17 21 22 22 18 16 17 22 21 22 30 30 37 34 31 25
13 15 17 14 12 13 21 19 16 5 10 13 11 12 10 11 12 18 19 19 18 20 22 25 27 27 25 21 19 18 17 16 17 16 17 18 19 19 17 16 21 22 26 33 37 35 38 25 23
15 15 18 15 13 16 19 20 15 12 12 12 12 11 12 13 14 17 16 15 15 17 20 23 27 26 25 25 20 18 17 16 16 17 16 17 18 18 17 13 14 23 28 30 32 36 35 30 21
16 16 17 10 4 12 16 19 18 16 15 17 16 18 20 21 20 24 22 18 16 16 21 25 27 28 27 26 24 21 18 21 16 19 15 17 17 18 18 16 17 23 28 28 30 31 33 28 22
18 16 15 12 11 14 19 21 19 19 21 21 23 24 24 22 21 21 26 24 20 19 21 24 29 31 31 29 26 19 19 17 17 17 15 16 18 21 21 25 22 23 23 29 34 27 27 20 25
20 19 14 13 11 16 18 22 19 12 19 22 23 22 21 21 22 22 22 28 25 22 23 27 30 31 31 29 25 19 18 12 14 16 19 19 17 22 28 25 26 26 26 28 30 33 32 20 28
18 16 14 12 8 7 2 5 10 6 4 7 6 9 11 13 15 19 20 21 26 25 23 25 27 31 31 31 29 28 25 19 20 19 16 19 17 18 26 30 27 31 29 29 30 31 33 26 26
14 6 11 10 10 10 13 7 2 6 8 2 9 10 9 11 13 17 19 22 27 26 21 23 26 31 32 34 30 28 22 18 15 17 16 18 19 20 19 24 35 33 34 33 34 29 30 30 28
9 9 6 4 5 7 14 11 5 2 6 7 7 10 11 12 12 12 14 20 24 26 20 23 28 33 34 34 32 29 25 19 16 18 18 17 17 19 20 19 28 33 36 34 36 36 34 29 30
11 12 5 5 4 5 3 7 9 3 3 5 9 12 12 14 14 13 13 11 19 22 24 25 29 33 34 34 34 29 25 20 17 17 16 16 15 17 19 20 22 32 33 34 35 36 39 36 32
14 13 4 7 5 4 6 6 4 3 2 5 9 11 14 17 17 18 15 10 14 18 22 26 30 31 32 32 32 27 24 19 16 16 14 14 13 14 14 20 24 23 31 31 32 34 36 34 31
10 8 1 2 1 3 5 5 8 3 5 5 11 15 18 20 17 22 16 11 11 15 19 22 25 27 27 29 28 27 23 19 17 15 14 12 12 10 12 15 23 26 26 25 26 28 32 32 37
5 9 4 4 5 5 5 4 4 8 13 12 14 16 19 19 19 20 17 13 8 12 16 19 20 22 23 25 25 25 23 20 17 16 15 15 13 11 11 15 15 19 27 25 23 25 29 31 31
6 5 2 0 2 2 1 5 5 10 14 15 15 14 16 16 18 18 19 13 2 8 14 17 19 21 24 23 23 24 22 20 18 16 16 15 15 13 12 12 12 17 21 24 26 25 25 27 25
3 5 4 3 5 2 0 3 4 11 15 14 15 14 14 13 17 18 17 16 5 5 12 15 18 18 20 22 22 21 22 20 18 16 16 16 16 15 14 13 12 13 14 16 18 19 19 23 24

GFSSGP_925_spd_105.txt.gz
Wind_Speed
12 9 10 11 8 8 17 17 8 3 4 5 6 5 7 3 1 3 7 9 14 14 14 16 17 18 16 15 14 13 13 17 18 18 18 19 19 18 19 19 19 18 17 15 16 14 15 15 17
13 12 12 9 9 14 14 17 7 10 7 3 5 3 6 6 5 9 10 11 15 14 13 14 17 17 17 16 14 13 13 15 18 20 19 21 20 20 20 20 19 17 14 14 16 15 15 16 18
17 14 9 7 16 17 16 5 6 4 7 8 7 9 8 4 5 8 13 17 15 13 12 14 16 18 18 16 14 13 14 15 17 20 20 22 22 21 19 22 19 15 13 12 12 13 15 18 20
15 11 9 13 21 20 22 11 6 5 8 10 10 8 3 2 7 8 16 17 15 12 12 13 15 18 18 16 15 13 14 15 17 19 20 22 22 19 21 21 20 17 15 14 13 10 12 18 20
20 10 13 18 24 25 11 7 7 8 3 6 11 10 4 6 5 12 18 16 15 13 12 12 15 18 19 17 16 15 14 15 16 18 19 22 21 21 20 23 23 22 18 16 16 14 15 18 20
9 12 16 18 24 22 21 10 10 12 9 7 8 13 5 10 10 11 17 17 14 14 13 11 17 18 18 17 16 15 15 15 17 19 19 19 21 23 24 22 22 24 22 20 17 15 16 18 20
18 15 21 24 22 19 18 11 15 15 16 16 10 11 11 11 11 14 15 16 14 14 13 13 15 16 18 17 17 17 16 16 16 18 18 19 24 25 26 25 22 20 21 20 22 19 20 21 23
15 15 27 23 20 23 13 11 13 17 18 2 4 9 11 10 7 9 15 17 15 15 14 14 15 15 14 14 18 18 17 17 16 16 19 21 23 25 27 23 22 21 16 21 19 19 18 20 17
20 18 22 27 24 20 7 8 12 14 18 9 10 15 10 3 6 12 16 17 17 16 15 15 15 15 15 15 15 18 18 17 17 18 19 21 21 24 23 23 21 23 17 21 19 19 19 16 15
21 18 31 21 20 15 12 10 12 11 14 11 11 4 5 3 6 15 17 18 20 18 17 16 16 16 15 15 14 14 15 15 16 17 18 19 19 19 21 22 19 20 20 21 19 17 22 23 22
25 29 23 22 23 11 13 15 13 16 17 16 20 14 16 9 10 11 19 20 21 20 19 19 18 17 16 15 14 14 16 17 17 18 19 21 21 20 22 20 19 19 23 20 16 21 25 23 24
30 30 26 27 23 13 20 20 23 20 19 18 17 13 11 14 12 12 15 21 23 23 22 21 19 19 17 15 15 15 14 15 16 15 18 19 18 19 19 19 18 20 21 21 19 22 26 21 24
31 27 26 24 23 21 20 24 21 22 17 16 19 21 17 17 17 19 19 21 22 24 23 23 21 20 19 17 13 14 14 15 17 14 16 17 17 17 17 16 15 18 19 18 19 24 26 25 29
26 28 26 24 21 20 24 25 22 23 20 21 23 23 21 22 21 22 22 22 23 24 24 23 23 22 20 19 15 14 13 14 15 15 16 18 19 17 17 16 17 19 20 20 19 24 27 27 31
27 23 21 21 27 24 22 29 30 23 22 22 22 23 22 22 23 22 25 23 23 23 23 24 23 24 23 21 18 16 14 13 15 20 15 17 18 18 17 19 22 21 18 16 20 22 28 29 30
17 25 24 24 21 20 18 29 21 21 24 28 24 24 22 24 23 28 28 25 25 23 22 24 24 25 25 22 20 18 16 15 12 15 16 18 18 18 18 18 19 18 19 19 22 26 32 30 27
24 21 27 26 25 23 27 28 23 27 21 15 14 17 18 17 20 24 27 29 27 24 22 24 25 25 26 24 21 19 17 17 15 16 16 17 19 20 19 17 16 17 16 20 25 30 34 30 29
23 24 22 23 19 21 21 25 22 19 11 14 15 16 16 16 15 18 23 26 26 23 21 24 26 26 26 24 22 20 17 15 16 16 16 17 18 21 19 16 15 15 18 20 27 27 30 32 30
22 20 21 16 20 19 22 20 20 19 20 19 19 17 17 17 16 21 23 24 23 19 20 23 27 28 27 27 27 25 21 19 18 15 16 17 17 18 21 16 17 17 19 23 29 28 31 23 31
22 19 17 15 17 8 15 21 21 21 21 21 20 20 21 21 21 20 23 24 25 23 21 25 27 28 30 27 27 24 19 19 18 17 18 17 17 18 17 16 15 17 18 21 27 24 23 16 28
19 19 19 17 12 14 14 22 23 29 25 22 21 19 19 18 18 18 19 25 27 25 24 24 27 30 30 27 25 21 19 14 19 18 18 20 19 19 17 18 16 17 19 24 26 28 22 22 21
19 20 21 18 14 14 13 13 14 8 9 8 4 3 7 9 10 13 16 20 26 28 26 27 27 29 31 29 28 29 26 21 20 20 18 20 19 19 18 19 22 19 21 24 26 28 25 24 21
17 18 19 16 16 15 20 9 17 5 11 12 4 3 5 7 9 11 14 21 26 29 28 27 28 30 31 32 31 30 25 22 18 20 18 20 20 18 18 22 21 22 24 25 26 27 24 27 26
21 11 11 13 12 14 18 16 11 13 5 5 4 2 4 5 9 12 13 16 23 27 31 28 28 30 33 33 35 31 28 24 22 21 18 19 19 20 19 22 27 29 28 26 29 28 28 26 25
17 16 8 9 10 11 10 13 10 13 8 3 1 3 7 9 12 14 18 17 17 23 28 26 30 32 33 34 35 32 29 25 22 21 20 19 19 19 20 20 22 29 33 31 31 32 31 32 28
19 17 7 11 13 13 11 8 3 15 6 3 2 5 5 11 13 15 18 20 17 20 26 30 29 30 33 33 34 32 29 25 22 21 19 18 19 19 18 20 21 23 31 28 31 32 36 31 31
17 15 18 6 9 4 9 9 9 8 8 3 10 11 12 14 16 17 18 19 27 19 23 23 24 28 30 29 30 29 27 25 22 21 17 17 15 18 19 18 21 25 26 29 31 31 31 34 32
14 14 6 6 4 6 9 9 11 3 8 6 8 12 14 16 16 16 17 20 29 28 14 16 22 24 22 23 26 24 26 25 21 20 19 16 15 16 17 16 16 18 24 27 27 26 28 29 30
6 10 5 5 3 4 2 6 11 9 9 10 11 13 14 15 15 14 16 25 31 36 7 13 16 18 23 24 23 23 24 23 21 19 19 17 18 16 15 16 13 22 23 23 24 23 24 27 26
14 11 10 5 5 1 4 4 6 8 9 12 14 12 13 13 14 14 16 23 29 34 9 8 10 14 21 23 24 25 21 23 22 20 19 18 20 17 15 15 15 15 17 21 23 23 24 24 25

GFSSGP_925_spd_108.txt.gz
Wind_Speed
12 11 9 14 6 8 15 19 21 16 2 2 8 3 3 12 10 5 16 17 24 20 20 17 16 17 16 14 13 13 14 15 14 13 13 14 14 14 14 13 14 12 10 12 11 11 11 11 11
11 13 15 7 9 13 15 22 21 9 10 11 4 3 3 2 18 13 13 18 21 19 19 17 17 17 16 15 14 12 12 14 14 14 15 15 15 15 14 15 15 13 11 10 10 11 12 11 13
14 17 8 6 13 16 17 24 10 9 13 5 3 4 4 1 11 10 25 21 23 19 17 15 18 18 17 16 13 12 11 12 14 15 15 17 16 16 15 16 16 15 13 13 12 11 11 13 14
8 6 7 12 22 20 26 24 13 4 8 6 8 6 4 14 7 13 20 20 20 19 17 13 16 18 17 15 13 12 11 12 14 15 15 17 17 16 17 19 18 15 15 16 16 15 14 15 16
17 8 11 17 23 24 23 22 3 9 1 9 11 12 5 12 7 24 21 18 20 19 16 14 15 17 16 15 14 12 11 12 13 14 15 17 18 18 19 20 19 17 16 16 16 15 14 16 16
8 9 15 18 24 24 21 22 17 7 8 6 8 13 6 17 14 21 21 18 20 16 13 15 16 16 16 15 14 13 12 13 14 15 15 15 19 19 20 20 21 19 17 16 16 16 15 14 14
16 12 20 24 24 23 21 20 14 11 13 13 8 10 10 17 20 20 21 19 19 18 13 12 18 17 16 16 15 14 13 13 13 16 15 14 17 20 21 22 21 20 18 17 15 14 13 11 11
13 13 26 23 20 25 22 19 6 11 15 13 3 5 5 5 22 23 23 19 18 17 14 11 15 17 18 17 16 16 14 13 13 14 16 16 17 20 22 22 21 20 20 18 15 14 14 15 14
22 16 20 26 25 22 20 21 7 6 13 16 11 9 9 4 10 16 21 22 18 17 17 16 16 14 14 13 17 16 15 14 14 15 16 17 18 21 22 24 22 20 19 17 16 16 17 18 18
22 17 33 22 22 21 24 23 6 6 15 16 11 6 9 6 8 13 16 17 22 20 20 20 19 19 17 16 13 16 16 17 17 16 16 19 20 19 23 24 21 21 22 15 18 18 20 19 22
28 29 23 25 25 25 25 20 8 15 12 13 11 10 12 11 12 11 17 23 22 23 21 21 21 21 20 16 17 14 15 14 15 15 17 19 19 19 21 21 23 21 19 17 19 19 21 21 24
28 33 28 28 24 24 22 22 15 16 14 15 13 14 17 15 10 10 12 20 27 28 26 24 24 21 23 18 22 18 20 20 19 19 19 19 20 19 19 20 19 20 18 20 21 22 22 22 21
31 30 29 27 24 25 23 24 19 21 17 18 14 15 15 9 12 15 17 20 21 28 30 28 26 26 24 22 22 19 17 16 16 16 18 20 21 20 22 20 19 19 19 22 22 20 23 24 23
28 29 29 27 27 25 24 24 18 20 18 18 16 15 17 16 16 14 18 19 24 22 33 35 30 29 26 28 19 19 20 17 20 17 17 19 20 19 18 18 19 15 20 22 24 25 24 25 25
27 29 29 27 29 26 23 26 28 19 20 21 22 19 19 21 20 18 25 23 24 23 23 38 36 29 28 25 22 20 19 19 17 19 16 18 19 19 17 17 17 18 21 24 21 20 22 24 24
26 26 24 29 25 24 22 35 23 22 23 23 23 20 18 21 22 26 25 29 25 26 23 36 35 33 28 27 25 23 21 21 20 19 20 16 20 17 17 19 20 21 21 21 21 22 22 22 23
22 22 30 28 26 25 22 32 24 19 20 21 22 22 22 20 22 23 26 27 26 24 25 37 38 35 33 27 26 24 22 22 18 14 21 19 18 19 19 19 19 20 20 21 20 21 22 23 25
23 26 24 25 23 26 27 29 22 21 24 20 22 16 11 16 20 21 24 27 27 25 25 35 37 36 35 28 25 24 22 23 19 20 20 19 19 20 20 18 17 17 19 21 21 21 22 25 25
24 25 25 23 26 25 28 27 25 18 19 17 14 10 10 12 8 14 13 21 26 26 31 26 34 35 33 30 27 25 25 24 23 18 21 21 19 20 21 19 19 16 20 21 20 21 24 24 29
29 27 26 21 25 16 16 22 18 22 19 17 17 17 16 11 11 12 14 21 25 24 21 16 31 32 31 28 27 24 23 23 23 22 20 20 20 20 20 20 20 22 18 20 20 23 18 17 27
27 27 21 20 20 17 16 15 16 17 18 18 18 16 14 14 17 16 15 20 18 23 17 19 20 31 30 27 24 22 22 21 20 22 23 26 20 21 18 18 22 20 20 20 21 26 22 11 24
23 24 21 20 14 11 16 13 17 23 24 26 18 14 12 5 6 6 7 7 11 14 18 26 26 27 31 30 27 29 25 21 21 22 23 22 24 20 21 19 22 20 20 18 21 26 25 21 20
22 14 12 12 13 16 19 12 13 10 12 14 11 11 7 6 6 7 8 12 17 21 19 20 32 31 32 37 31 31 24 22 22 21 25 23 23 24 18 22 22 21 22 21 22 26 25 24 23
14 4 8 10 12 14 21 16 11 12 10 16 13 8 5 6 12 13 18 22 17 17 26 24 24 32 33 39 38 31 29 25 23 25 24 25 22 22 24 23 26 23 23 23 23 24 24 29 21
11 12 3 7 7 12 18 15 13 10 13 15 11 11 11 11 12 14 16 17 26 25 31 27 25 28 34 38 38 34 31 27 26 27 26 25 23 24 27 25 26 26 24 25 24 25 26 24 26
19 17 6 8 9 11 18 9 14 16 12 9 12 11 14 12 12 13 14 15 22 28 32 32 25 24 31 30 34 35 28 29 24 28 25 24 25 24 26 24 25 31 28 27 28 29 28 28 28
20 19 19 4 7 2 7 8 10 13 13 9 10 10 12 13 13 14 15 20 25 27 33 36 34 23 29 29 32 31 29 27 24 27 24 24 27 26 23 23 24 29 30 29 30 29 29 29 32
7 11 8 5 5 3 10 10 9 9 8 12 15 14 15 16 16 15 15 21 26 28 33 46 26 24 26 23 32 29 28 27 24 27 24 22 26 25 24 25 22 25 28 31 30 28 27 29 27
2 7 5 8 7 2 4 4 9 4 4 16 17 16 16 17 15 15 15 23 25 28 34 36 20 4 9 18 24 24 26 28 22 24 21 20 24 23 21 21 19 22 27 29 30 28 27 28 28
12 7 15 2 5 4 3 3 14 17 19 19 19 17 18 19 17 15 15 21 25 30 33 33 29 17 13 10 12 20 20 23 20 21 19 20 19 18 19 19 20 18 22 28 27 27 26 25 25

GFSSGP_925_spd_111.txt.gz
Wind_Speed
7 6 6 3 2 3 5 9 17 20 8 2 4 10 5 3 4 5 14 25 29 29 27 23 20 19 18 18 17 16 15 13 12 12 13 14 14 15 15 15 15 14 12 12 12 10 9 10 11
7 4 4 2 3 3 6 18 20 18 7 2 7 7 8 2 6 14 12 25 24 27 26 23 20 19 18 17 17 15 15 14 13 13 13 14 14 14 15 15 15 14 14 13 13 12 10 12 12
9 4 3 4 4 10 6 15 8 11 3 3 3 6 3 4 8 9 30 24 24 25 23 22 21 19 18 17 15 15 14 14 14 13 14 15 15 15 16 16 16 14 14 13 12 12 11 12 13
6 2 3 2 12 9 20 18 11 9 4 3 4 6 6 15 9 21 33 25 22 21 21 22 21 20 18 16 15 14 13 14 14 14 14 15 16 15 16 17 17 15 13 13 12 12 11 12 13
5 1 3 5 11 12 19 23 14 16 8 5 3 1 6 4 35 39 36 29 28 23 19 22 21 21 19 17 14 13 13 13 14 14 14 16 16 16 16 18 18 15 13 13 13 12 11 12 13
2 2 2 13 19 16 17 22 18 14 8 2 3 3 5 25 35 36 35 34 27 25 22 22 21 21 20 17 16 14 13 13 14 15 15 16 17 17 16 18 17 16 15 14 13 12 11 12 11
6 2 7 9 13 16 20 18 16 15 10 5 6 2 4 10 37 34 36 33 28 24 22 23 23 21 20 18 16 15 15 14 15 16 16 15 18 17 17 18 18 16 15 15 14 13 11 11 11
4 3 13 15 13 22 20 20 13 8 8 5 8 5 3 3 36 33 33 31 26 22 19 23 24 23 22 20 17 16 15 15 14 17 17 15 16 17 18 18 19 17 16 16 15 14 13 13 15
2 7 17 25 17 17 14 16 13 7 3 1 4 5 8 30 32 30 31 30 25 21 19 20 23 23 23 21 19 18 16 16 15 16 18 17 17 18 20 20 20 19 18 17 17 15 15 16 17
7 7 33 3 15 17 19 20 18 4 4 3 3 7 18 21 22 18 16 18 24 24 22 20 22 23 22 22 21 20 19 18 18 18 19 19 19 20 21 21 21 19 19 18 18 16 16 18 19
9 21 23 15 20 22 22 21 13 5 5 7 10 10 11 8 12 13 21 28 28 29 23 22 22 22 23 22 20 21 21 20 20 19 19 20 20 20 22 22 23 21 20 20 18 18 20 21 19
17 28 24 21 19 19 19 10 13 6 10 6 5 12 10 10 10 10 16 24 29 34 32 28 24 24 25 23 22 20 22 21 22 21 20 20 21 21 20 23 24 25 25 23 20 22 23 22 19
23 28 19 22 23 28 26 26 19 17 11 6 7 4 6 8 7 21 27 28 33 33 37 36 33 31 30 26 24 23 23 23 22 21 22 22 23 24 23 22 23 24 25 23 24 25 26 23 20
11 19 21 19 22 24 25 27 10 18 10 9 7 7 6 6 8 8 11 23 30 36 38 42 41 39 36 29 28 27 24 25 24 23 25 23 22 25 24 23 22 19 20 23 26 28 27 25 22
20 21 20 23 23 25 19 21 30 9 7 9 9 9 8 8 9 9 17 18 18 31 41 43 45 43 40 34 30 33 29 26 27 24 23 18 20 23 24 22 23 24 23 23 27 26 24 23 24
17 17 19 29 25 21 16 28 23 10 9 11 10 9 9 10 11 19 24 22 27 27 36 45 45 47 43 41 33 32 29 29 28 28 24 21 21 21 23 23 23 23 22 26 28 27 25 24 23
10 17 20 24 12 15 15 26 12 11 11 16 16 14 14 13 11 23 27 31 31 33 26 42 42 45 46 42 40 33 30 29 25 24 28 24 24 23 23 24 24 23 21 23 26 26 25 22 23
13 14 15 20 11 19 20 29 11 10 15 21 11 12 14 20 17 23 32 34 34 31 26 43 43 47 47 42 38 33 28 29 30 28 27 29 25 26 24 24 25 25 23 25 25 24 26 23 23
17 16 18 16 19 20 16 26 19 15 20 17 15 11 17 12 12 25 30 36 35 33 20 38 38 37 36 35 33 34 33 34 32 30 26 29 28 27 27 25 23 24 26 25 25 26 25 23 21
19 20 22 24 21 16 15 18 15 22 20 21 15 11 9 7 6 3 2 9 15 22 22 33 38 40 39 34 33 30 34 32 30 28 27 27 28 26 28 27 26 26 26 24 24 24 20 21 24
20 21 21 20 21 19 12 18 18 13 18 8 10 7 8 10 9 7 6 4 8 16 23 28 36 38 35 32 29 24 26 25 27 28 28 30 28 26 27 29 28 27 26 26 25 25 25 18 24
19 18 22 22 18 7 4 6 14 15 17 8 8 6 4 8 9 9 11 12 17 14 16 9 41 41 41 40 36 35 30 21 25 28 32 29 26 27 28 30 29 28 27 25 26 26 26 21 17
19 20 19 9 11 4 5 7 7 8 10 16 18 11 10 13 14 13 13 17 23 28 29 28 9 33 38 44 42 39 30 31 27 26 30 30 32 24 31 30 27 27 25 23 24 25 27 26 17
20 11 5 5 2 6 13 6 6 4 7 9 18 17 16 15 15 15 18 25 27 30 31 29 28 11 33 41 42 39 35 30 26 30 30 32 31 33 28 29 28 25 23 24 24 24 26 27 24
12 8 3 1 2 5 6 5 10 10 16 19 19 17 16 16 16 17 19 17 27 30 31 30 27 29 18 42 41 40 38 36 35 35 29 28 31 32 33 30 29 27 24 24 24 25 28 26 25
6 9 5 5 4 2 4 8 10 8 24 19 18 19 19 19 17 18 19 20 26 30 31 32 33 31 29 33 41 37 35 33 34 34 32 33 31 28 33 33 30 29 25 23 25 26 26 29 28
6 9 7 3 1 2 5 3 3 8 20 20 18 21 19 18 17 18 17 20 23 26 29 31 34 33 30 24 40 35 35 34 31 35 35 35 33 32 31 33 31 27 26 24 26 26 29 28 32
7 6 5 3 2 4 6 6 2 11 15 19 22 19 20 18 16 13 12 20 24 26 28 30 30 32 30 23 37 37 38 39 35 32 35 34 33 32 30 32 33 30 28 28 28 29 27 29 30
5 4 5 2 2 2 2 3 7 7 12 17 19 21 17 15 14 15 16 25 25 27 28 31 34 35 32 8 31 36 34 36 33 29 36 33 32 32 30 31 31 31 30 29 30 27 28 31 27
4 2 6 2 3 2 2 4 14 16 19 19 20 17 16 16 17 17 18 25 27 26 28 30 31 34 33 23 6 27 31 30 32 28 29 29 31 31 30 28 25 24 27 29 30 30 27 27 27

GFSSGP_925_spd_114.txt.gz
Wind_Speed
5 2 0 4 3 4 4 8 5 10 8 5 8 4 6 3 4 5 4 23 27 34 32 27 25 24 23 23 21 19 18 17 16 16 17 17 18 19 20 20 18 17 16 16 14 12 11 10 10
3 3 3 2 4 1 6 7 16 9 12 14 8 3 2 2 3 8 12 22 33 34 31 28 25 24 23 23 21 18 17 16 15 16 16 17 18 18 18 18 17 16 16 15 13 11 10 11 11
6 1 3 4 5 7 6 9 6 6 11 8 6 3 5 7 5 13 22 35 33 32 30 28 26 25 23 22 21 18 16 15 15 16 16 17 17 17 17 17 17 16 16 15 13 12 12 13 14
4 4 3 2 13 8 10 12 5 15 16 10 5 2 3 6 20 17 37 34 33 31 29 28 28 25 24 22 21 19 17 17 16 16 17 17 17 17 17 16 16 16 15 13 11 11 12 14 15
2 3 2 5 11 7 11 12 8 14 11 13 7 3 5 9 20 41 36 36 35 32 29 29 28 26 25 22 21 20 19 19 18 18 18 17 17 16 16 16 16 14 13 13 12 13 13 14 15
2 3 1 9 20 6 8 13 10 9 13 13 7 4 6 14 35 37 40 38 33 33 31 29 26 26 25 24 21 21 19 19 18 18 18 19 18 17 16 17 16 14 13 13 13 13 13 14 15
6 3 7 9 5 6 8 6 11 10 10 9 6 8 3 13 31 39 37 36 34 33 32 30 27 25 24 24 23 21 20 18 19 19 18 20 19 18 17 18 16 14 14 14 14 13 13 14 15
3 3 5 9 13 16 6 10 3 6 9 14 10 7 7 8 26 33 34 34 34 32 32 31 28 27 25 24 23 22 21 19 18 20 19 19 20 19 19 19 19 17 15 15 14 14 13 14 15
3 2 16 19 7 8 10 7 5 3 9 7 2 5 10 25 31 31 29 26 29 29 30 30 30 28 26 25 24 22 21 20 18 19 19 18 20 21 20 20 20 18 17 16 16 15 14 13 13
6 7 26 3 13 12 8 15 18 6 7 8 3 5 22 30 28 24 21 19 21 26 27 29 29 29 27 26 25 25 23 23 21 20 20 20 20 21 21 20 20 19 19 17 17 16 15 14 16
6 24 24 17 4 9 14 18 7 7 16 9 8 10 14 20 20 20 23 31 35 33 28 28 29 29 29 28 27 26 26 24 23 22 22 22 22 22 22 22 22 22 21 21 19 19 18 17 19
10 23 17 24 13 13 19 6 16 8 10 9 5 10 13 17 17 17 21 24 25 33 33 31 28 30 30 29 29 29 28 27 26 25 24 24 24 24 25 25 25 24 25 23 23 22 19 19 19
17 24 18 19 16 21 21 28 25 24 11 13 10 7 8 9 16 25 32 34 32 31 34 36 35 34 32 31 30 30 30 29 28 27 26 26 26 27 26 27 27 27 27 26 24 23 22 22 21
7 13 19 18 24 21 20 24 14 30 6 13 12 11 11 10 11 10 19 25 29 35 37 37 37 37 36 35 33 31 30 30 28 28 28 27 27 27 27 27 27 28 29 29 27 26 25 25 24
9 17 22 23 19 14 10 21 25 30 9 13 14 9 10 12 10 10 21 27 30 32 41 40 41 39 38 38 36 33 32 29 29 28 28 27 27 27 29 28 28 27 28 28 27 26 26 26 24
12 7 10 19 10 14 9 25 30 18 15 15 13 10 8 9 9 18 19 18 26 36 31 38 38 42 42 41 39 36 35 33 31 29 29 29 28 27 29 29 28 26 25 26 27 28 28 28 26
6 15 19 22 4 12 12 27 31 17 16 20 14 11 10 8 9 18 23 26 27 27 38 38 41 43 44 42 40 38 37 35 33 30 31 31 28 26 29 30 28 28 28 28 28 30 29 27 27
18 10 13 14 2 10 17 23 24 9 10 18 15 9 9 8 12 16 23 29 30 30 26 38 44 46 45 36 35 35 38 36 34 33 31 30 29 27 28 28 27 28 28 28 28 28 26 27 26
13 15 21 18 14 11 17 19 23 13 17 18 12 9 10 11 12 20 32 31 33 33 26 33 41 41 36 33 31 30 39 41 37 37 34 33 32 30 28 29 28 30 29 28 28 29 27 24 23
16 18 23 22 24 15 15 15 9 13 12 9 15 12 11 6 7 10 19 24 16 13 18 31 40 41 43 39 39 30 29 32 35 35 32 32 34 32 31 31 31 32 30 29 30 30 20 20 25
19 19 17 22 19 20 14 16 15 19 13 16 17 14 13 14 6 9 14 19 22 28 23 15 31 43 42 40 31 30 29 20 26 33 35 35 35 35 34 33 33 32 32 30 28 30 28 18 22
15 21 19 20 12 9 6 7 9 10 11 12 9 7 6 13 14 11 11 16 22 24 24 22 5 19 31 39 35 35 33 24 32 32 38 38 34 34 34 33 33 33 32 31 31 29 28 23 18
17 21 20 13 11 4 7 3 7 8 8 7 8 15 16 15 14 14 13 16 18 23 24 23 19 5 17 24 32 41 32 32 30 32 37 38 36 34 34 33 34 34 33 31 31 29 28 29 20
4 7 11 1 3 7 7 8 5 4 11 4 18 16 16 14 13 13 15 17 21 22 23 25 24 18 9 13 28 28 26 24 26 29 31 35 37 36 34 33 33 34 34 32 30 27 29 28 25
5 3 3 1 2 5 5 9 10 13 17 20 18 15 15 14 15 17 20 18 26 29 28 23 25 26 20 14 20 29 35 37 38 35 33 31 31 34 33 34 35 36 33 29 26 26 26 28 26
4 9 5 6 4 4 5 6 1 15 15 17 19 16 16 19 16 17 18 18 24 27 29 29 27 21 23 21 19 31 32 37 37 36 30 33 34 35 38 34 35 34 31 26 25 25 24 26 27
5 6 7 4 3 3 3 5 13 17 20 20 18 19 19 17 16 17 17 22 25 27 27 27 27 28 25 21 25 30 31 34 34 37 36 34 34 35 38 38 35 32 30 27 26 26 26 27 27
11 5 2 2 3 2 2 6 5 12 14 18 17 19 18 18 17 20 20 26 30 30 29 28 26 25 27 28 21 28 36 39 38 37 36 35 34 32 34 35 36 33 33 29 28 26 26 25 27
0 4 4 4 3 1 1 4 7 9 9 12 12 18 18 18 17 19 18 27 27 28 28 29 29 29 31 32 28 13 29 30 38 39 38 38 35 34 32 35 34 33 31 29 29 28 27 26 28
1 2 4 4 1 3 3 3 5 9 6 13 12 18 18 15 16 17 17 23 25 28 30 31 31 32 32 33 30 20 10 23 32 33 37 36 36 35 33 34 33 31 28 32 30 30 29 30 27

GFSSGP_925_spd_117.txt.gz
Wind_Speed
3 1 2 4 3 4 4 7 3 6 7 1 4 6 7 2 5 5 4 21 30 40 36 32 31 29 28 26 24 22 21 20 19 19 19 20 21 21 21 20 20 19 17 17 15 13 12 12 12
1 1 3 2 4 2 6 7 10 9 6 12 9 4 3 4 2 3 12 17 34 41 38 33 30 30 29 27 25 23 21 20 19 19 19 19 20 20 20 20 18 17 16 15 14 12 12 12 12
4 2 3 4 3 8 6 7 6 5 8 5 7 2 3 4 1 9 6 26 40 39 37 34 30 29 29 27 26 24 22 21 20 19 19 19 19 20 19 18 17 17 16 14 13 11 12 13 14
5 4 3 2 11 7 5 1 3 8 8 4 1 8 4 8 10 11 29 34 38 38 36 34 31 28 27 27 25 24 23 21 20 20 19 19 19 19 19 18 17 16 14 13 12 12 14 14 15
3 3 2 5 8 5 2 8 3 6 6 10 4 8 3 2 7 23 36 39 40 38 35 33 32 30 28 27 26 25 24 22 20 20 19 19 19 19 18 18 17 15 14 13 12 12 14 15 16
3 3 1 9 17 3 2 12 6 9 12 12 7 4 5 7 20 34 36 38 38 39 35 33 31 30 28 27 26 25 24 23 22 22 21 19 19 18 18 18 17 15 13 12 12 13 14 15 15
4 3 6 8 4 2 5 7 6 9 12 11 5 7 1 4 24 35 34 34 35 34 34 34 32 30 28 26 26 25 24 24 23 22 23 21 19 18 18 19 17 15 14 14 13 13 14 15 16
4 2 5 5 11 13 7 4 4 7 8 4 3 6 5 6 22 26 30 31 31 33 34 34 32 31 29 26 25 24 23 24 24 23 23 23 21 20 18 19 18 16 16 16 14 13 14 15 15
3 3 17 8 4 5 4 0 4 4 6 5 4 6 8 29 27 24 23 23 28 31 33 34 34 31 30 28 26 23 22 22 23 24 24 24 23 22 20 20 20 18 17 17 16 15 15 15 14
5 5 9 4 8 10 6 10 8 8 9 8 8 9 8 26 29 22 19 19 24 30 35 35 34 33 30 29 27 25 23 23 24 25 26 25 24 24 22 21 20 20 19 18 17 17 16 16 15
6 23 5 8 5 4 3 8 3 7 19 6 9 12 7 13 18 19 23 31 41 39 37 37 36 33 32 31 30 28 27 26 25 25 25 26 25 24 23 22 22 22 21 21 19 19 19 17 16
10 11 7 13 18 15 10 6 9 10 22 6 7 3 2 11 18 16 20 25 25 34 41 39 37 36 34 32 32 31 30 29 28 27 26 26 26 25 25 24 24 24 24 23 22 22 20 18 16
14 11 14 15 17 15 13 15 12 26 29 9 15 13 9 9 14 25 31 29 26 30 35 39 39 38 37 35 34 33 32 32 31 29 28 28 28 28 26 25 26 26 26 25 25 23 22 21 19
9 19 21 22 19 10 14 21 8 38 10 12 13 14 12 11 12 12 14 18 25 31 34 38 39 39 37 37 37 36 35 33 31 30 30 30 29 29 28 28 28 28 28 27 26 24 24 22 21
6 15 18 21 11 12 5 19 24 30 7 18 15 19 11 13 18 15 26 25 32 31 35 40 40 39 39 40 39 38 38 36 34 33 31 31 30 29 29 29 29 30 29 27 26 24 24 23 22
7 6 9 3 11 10 9 23 29 17 10 20 14 17 10 15 13 23 33 36 34 29 28 35 34 39 40 41 41 40 39 37 37 35 33 32 31 29 29 30 30 30 30 29 28 27 25 24 24
4 12 14 23 7 12 11 17 21 7 16 20 19 14 14 13 10 21 27 36 41 43 36 34 37 39 41 39 38 36 37 37 36 34 33 32 31 29 29 30 30 29 29 29 29 28 27 26 24
10 8 11 12 10 11 18 17 20 13 14 18 17 18 19 16 17 22 29 31 36 40 42 44 42 42 43 35 31 33 32 33 34 35 35 33 33 31 30 30 29 29 29 29 29 29 26 25 23
13 15 19 18 18 21 19 22 20 19 11 15 18 17 11 15 13 22 29 28 21 24 35 37 38 40 34 31 33 30 32 36 37 36 36 35 34 34 31 30 29 30 31 31 29 28 26 24 24
16 15 18 20 23 14 17 23 24 14 18 18 14 12 11 13 13 7 17 15 12 10 3 27 34 40 42 36 39 30 32 32 37 35 34 33 35 35 34 31 30 31 31 30 30 30 18 19 25
15 17 20 18 22 14 15 18 20 22 18 19 16 15 10 11 8 11 15 19 22 22 17 1 28 31 34 35 29 23 24 20 24 30 35 37 36 36 34 32 30 32 33 31 30 29 25 18 22
18 12 15 16 15 13 2 11 11 13 18 16 14 10 15 13 13 14 14 15 20 21 20 20 9 12 20 25 23 24 28 22 31 36 41 43 39 37 36 34 33 33 34 34 32 31 28 22 17
16 11 11 20 15 9 17 4 6 9 5 8 14 14 17 15 14 14 12 14 18 21 24 24 18 12 7 16 26 29 23 20 11 19 31 39 41 40 40 37 35 35 35 34 30 28 30 30 22
11 3 7 13 6 5 15 8 5 5 9 14 17 17 17 15 14 14 16 16 20 23 26 25 24 20 10 1 8 24 27 23 18 21 24 29 33 38 39 40 39 37 37 36 34 32 29 31 27
5 3 3 3 1 5 7 7 7 14 17 16 16 17 16 15 14 14 13 13 19 22 25 24 24 23 19 12 8 11 25 31 32 26 29 25 29 33 41 41 40 38 37 36 33 32 30 29 26
7 7 4 3 3 4 8 3 5 15 16 14 17 16 17 18 16 16 16 18 21 22 24 25 25 25 24 20 16 13 18 25 33 35 35 35 33 39 39 36 38 38 36 34 33 32 30 28 27
4 6 10 4 6 2 5 7 14 16 12 13 20 18 18 18 16 17 18 22 24 26 26 25 26 24 27 27 22 20 18 24 33 35 34 34 34 35 39 39 39 39 36 33 33 29 25 26 26
7 1 1 1 3 5 4 6 7 13 15 11 15 14 13 15 16 16 17 23 26 27 26 28 28 25 25 29 27 25 25 23 34 34 37 38 37 36 38 37 36 35 36 33 32 28 26 25 25
2 2 5 3 1 2 2 4 6 11 12 12 11 14 16 14 15 15 15 24 27 30 32 31 33 31 31 31 30 27 25 17 28 30 36 38 34 37 38 38 34 33 35 34 33 28 26 26 25
3 5 4 3 3 2 3 3 4 7 9 10 13 12 12 13 14 15 17 24 26 28 30 32 32 31 30 28 28 28 27 18 19 29 34 31 33 36 38 36 33 32 31 33 32 29 28 27 27

GFSSGP_925_spd_120.txt.gz
Wind_Speed
1 1 1 5 3 5 4 7 4 3 3 2 1 3 6 4 6 5 10 25 29 32 37 35 35 32 31 29 27 26 25 24 25 26 25 25 24 23 22 21 20 19 17 17 16 15 14 14 13
2 3 4 3 4 2 5 6 6 8 6 10 7 2 3 7 4 2 10 16 26 38 38 37 35 33 31 30 28 26 25 24 24 25 25 24 24 23 21 21 20 18 17 15 14 14 13 13 13
4 3 3 4 4 7 6 6 6 6 8 4 7 3 4 4 2 6 9 21 29 39 38 37 35 33 31 30 28 27 26 25 24 25 24 24 24 23 22 20 19 17 16 14 12 13 12 13 13
2 5 4 4 8 7 7 5 4 7 6 2 1 9 7 5 3 10 13 26 35 40 40 37 35 33 31 30 29 27 26 25 24 24 24 23 23 23 22 20 18 18 16 15 13 12 13 12 13
4 3 1 3 5 5 5 7 2 5 5 3 4 8 7 9 4 9 21 29 39 40 39 36 34 32 31 29 29 27 26 25 25 25 24 24 23 22 21 19 19 18 16 14 13 14 13 13 13
3 3 1 5 5 3 4 7 4 4 5 13 5 3 5 7 4 11 25 33 38 40 37 35 32 31 30 29 29 27 26 25 25 25 25 25 23 22 21 20 19 18 18 15 14 14 14 14 15
4 3 5 2 1 2 3 3 4 5 7 9 5 4 5 7 10 15 22 29 32 36 35 34 33 30 29 28 28 27 26 25 25 26 26 25 24 23 22 21 20 18 16 15 15 15 15 15 15
4 3 1 2 1 5 6 3 3 5 6 4 2 4 6 4 8 22 21 26 28 31 33 34 34 32 30 29 27 26 26 25 25 25 25 25 24 23 23 22 20 18 16 16 16 16 16 16 15
3 2 3 5 5 2 5 3 5 2 5 4 4 5 8 23 16 20 20 20 23 28 33 34 33 32 32 30 28 26 25 25 25 24 24 24 25 24 22 22 21 19 17 17 16 16 17 16 15
3 3 6 7 4 1 6 7 11 7 7 6 9 6 13 1 15 17 19 20 24 30 35 36 34 34 33 31 30 28 27 27 27 26 25 25 25 24 23 22 21 19 18 17 16 16 17 17 16
3 7 3 2 2 5 1 8 5 10 3 6 7 9 4 5 7 10 17 27 41 36 36 39 38 35 34 33 31 30 28 29 28 27 26 25 25 24 23 23 22 21 19 18 18 18 19 17 16
6 6 3 4 7 7 6 7 10 18 10 6 10 12 5 4 7 9 16 19 26 36 39 41 40 38 36 33 30 30 30 30 30 29 27 26 26 25 25 25 25 24 22 21 20 20 19 18 16
5 4 8 7 10 10 10 9 15 28 17 17 12 14 16 9 10 21 25 21 15 23 33 39 40 40 38 35 30 28 28 32 31 30 29 28 28 28 27 26 25 25 24 23 22 22 21 20 18
5 11 11 6 9 7 13 18 8 8 2 11 10 12 14 13 12 19 21 23 24 26 32 38 42 41 40 38 35 32 30 30 29 31 32 31 29 28 28 27 27 27 27 26 25 24 23 22 21
5 15 17 8 2 4 7 17 16 17 12 16 17 15 16 16 14 16 28 29 33 34 31 37 43 42 41 41 39 36 35 32 32 31 31 32 31 30 29 29 28 28 27 26 25 24 22 22 22
5 5 8 2 11 7 1 28 13 8 8 15 16 16 13 19 11 25 30 32 33 31 33 38 38 42 42 42 40 38 37 35 33 32 31 32 32 30 29 29 29 29 27 27 26 24 21 22 22
0 10 9 22 1 12 8 17 17 12 13 18 14 14 11 16 10 22 28 33 35 36 35 33 37 41 43 42 39 38 36 35 34 33 33 33 32 31 30 30 29 28 28 28 27 26 24 23 23
4 7 6 14 5 15 20 18 24 26 21 12 16 16 13 15 20 23 28 30 38 35 38 39 41 41 42 35 31 35 36 36 35 36 36 35 33 32 30 30 29 28 29 29 28 27 24 23 22
8 13 16 17 20 23 15 15 18 25 25 13 17 10 10 13 16 2 7 6 4 13 17 24 28 36 35 31 30 27 31 34 36 37 36 36 34 33 32 31 29 29 31 30 27 26 24 22 21
12 12 17 18 20 18 18 17 17 22 27 18 19 18 15 12 3 9 13 14 16 12 10 8 20 27 32 31 33 25 27 24 28 33 34 35 33 32 33 33 31 31 31 30 27 28 20 20 23
14 11 14 14 19 15 15 17 13 20 14 19 19 10 10 7 8 10 12 14 19 19 16 14 10 24 34 33 25 18 18 18 24 28 34 37 37 36 37 36 34 31 32 30 31 28 26 17 21
11 6 13 15 10 8 6 11 19 15 13 13 12 13 13 13 11 12 13 11 18 21 16 13 10 4 20 28 26 27 23 18 23 27 31 40 44 43 41 37 36 35 33 32 31 29 28 22 17
10 8 13 14 10 12 16 5 6 11 5 10 13 14 16 14 12 14 13 18 23 23 18 17 14 9 5 16 23 28 23 25 22 29 31 32 26 32 34 36 35 34 33 29 33 32 31 30 21
7 7 12 9 5 7 16 8 3 9 7 11 13 16 16 16 15 15 19 22 23 22 21 22 18 15 10 7 7 14 23 25 26 22 27 28 33 33 35 37 37 37 36 34 31 31 33 32 31
4 4 4 3 1 6 3 4 7 13 14 13 13 14 15 16 15 15 16 15 22 23 24 24 22 22 19 12 6 1 5 12 29 30 25 24 23 28 30 30 37 39 39 35 33 32 32 31 29
5 6 3 4 3 8 9 2 5 8 12 13 12 14 15 16 14 15 16 17 20 23 24 24 21 19 22 20 15 10 10 14 16 25 26 29 33 32 25 35 40 36 37 36 34 35 33 34 32
2 5 11 7 7 6 2 3 3 16 16 15 15 14 13 15 15 15 16 20 20 23 23 22 23 24 25 23 18 15 15 15 20 25 23 27 34 35 33 40 34 34 34 36 37 36 36 35 32
12 3 1 1 4 3 4 3 5 14 15 14 16 14 14 12 14 14 14 20 21 23 23 26 26 25 26 27 24 20 20 18 21 26 26 31 34 34 37 39 37 35 34 35 37 36 35 34 31
2 3 4 4 5 1 2 3 6 9 11 12 13 13 13 13 12 12 13 20 23 24 27 28 29 29 31 29 27 27 27 24 19 16 24 26 30 32 37 35 33 36 34 37 36 36 35 34 30
4 5 5 3 4 2 3 3 5 8 11 11 12 14 15 13 17 13 16 26 26 26 30 33 33 30 29 29 29 29 30 30 26 18 14 23 26 30 35 35 31 30 35 35 36 36 35 35 32

GFSSGP_925_spd_123.txt.gz
Wind_Speed
2 2 3 3 2 1 2 5 1 4 3 1 5 5 10 7 5 3 7 12 14 32 37 35 33 32 30 28 28 28 28 28 28 29 29 29 28 27 24 24 22 20 17 17 16 14 14 13 12
3 3 3 3 2 3 4 4 8 8 4 9 9 2 3 5 7 9 3 15 23 33 37 36 35 33 31 28 27 27 26 27 29 29 30 28 27 25 24 24 22 20 18 17 16 14 14 13 12
4 2 1 1 3 7 4 5 5 4 6 4 5 3 4 4 3 5 5 18 25 31 37 37 37 34 31 29 27 26 26 26 28 29 28 27 26 25 24 23 22 20 18 16 15 14 13 12 12
2 2 3 3 8 5 4 1 2 7 5 2 2 10 5 3 4 7 5 16 23 27 31 37 37 35 32 29 27 26 26 27 27 28 27 26 26 25 24 23 21 20 18 16 15 15 14 13 11
4 2 3 1 5 5 6 6 10 10 7 7 2 7 8 5 9 6 7 16 22 29 31 36 36 34 32 30 28 26 26 26 27 27 27 26 26 25 24 23 21 19 18 17 14 15 15 14 13
2 1 2 4 6 4 5 11 4 7 8 10 4 4 4 8 12 7 9 14 19 25 29 34 35 33 32 30 29 27 26 26 26 26 26 26 25 25 24 22 22 20 17 15 15 16 15 15 14
2 2 3 2 4 4 6 4 7 13 10 7 3 5 3 10 15 10 7 16 23 26 29 30 32 31 30 30 29 28 28 27 26 26 25 25 24 24 23 22 22 21 18 15 16 16 15 15 15
3 1 2 3 6 9 5 3 3 4 8 5 2 2 5 15 18 8 9 13 20 25 28 31 30 30 31 30 29 28 28 28 27 26 25 24 23 23 22 22 21 20 18 16 17 17 16 15 15
3 3 6 7 9 6 3 7 1 7 10 7 7 7 10 15 12 3 5 10 14 22 26 29 32 31 30 30 30 28 27 27 27 26 25 24 22 22 21 21 21 20 18 17 17 17 16 15 14
4 3 6 5 6 6 7 7 15 8 14 13 11 3 14 18 8 7 10 14 19 23 29 29 29 29 28 27 28 28 27 27 27 28 28 25 22 21 20 21 21 19 18 17 17 17 17 16 17
1 5 3 2 4 8 7 14 9 14 15 9 18 22 21 25 22 15 13 16 17 14 18 24 27 28 28 22 23 28 23 27 28 28 29 28 25 23 21 20 19 18 19 18 18 18 18 18 16
4 2 4 6 8 10 13 12 14 16 21 16 23 26 24 22 22 22 18 20 20 16 21 22 21 23 25 21 21 24 24 25 29 31 31 30 29 26 24 22 23 18 18 18 18 17 20 19 16
7 3 5 9 12 14 16 18 19 22 20 24 23 21 20 17 18 24 23 24 22 22 21 24 24 25 27 26 24 22 26 23 27 29 31 31 30 30 27 24 25 22 21 20 21 20 20 19 18
4 11 12 11 15 13 17 17 7 9 18 18 23 24 22 22 20 28 24 21 23 26 25 24 27 27 27 26 25 25 28 29 26 29 32 31 30 31 31 28 27 27 24 23 20 22 21 18 18
6 16 19 13 3 4 14 23 11 7 14 15 17 20 23 21 26 24 29 26 26 26 27 29 33 29 29 29 26 28 25 28 28 27 31 33 30 28 30 30 28 27 26 24 22 22 21 17 19
8 8 6 4 14 7 12 27 16 18 19 24 23 21 22 26 22 29 29 30 25 26 26 31 33 36 32 31 27 25 25 25 27 28 28 33 31 29 29 28 29 27 27 27 26 25 21 16 15
1 12 16 16 9 16 5 28 4 26 24 25 22 22 23 24 24 28 27 30 27 26 29 30 33 35 41 34 29 25 24 28 28 30 30 32 33 31 30 28 27 27 26 27 26 24 22 20 18
12 15 18 18 7 17 22 28 30 24 24 24 22 21 21 24 27 26 26 28 26 23 27 32 33 38 37 29 25 23 23 24 26 31 30 30 33 32 29 27 27 27 27 27 26 22 24 18 16
16 18 22 25 27 18 21 22 28 27 22 25 24 21 23 24 24 17 9 9 7 11 18 25 25 26 27 27 28 26 30 28 29 27 27 30 29 32 32 30 28 28 29 30 29 26 23 21 21
11 13 22 21 20 14 19 23 26 28 28 23 20 23 22 23 20 9 10 10 9 5 1 12 18 25 28 29 30 24 25 24 28 27 27 31 33 36 34 36 34 33 29 26 28 28 18 18 23
14 15 17 16 23 25 16 15 8 20 21 9 11 13 12 12 10 9 12 14 12 12 10 2 12 19 24 27 24 21 14 18 23 27 28 30 28 32 35 35 33 36 34 29 29 29 22 15 21
16 9 12 14 14 8 8 13 17 15 13 13 12 12 13 13 12 12 12 14 17 16 12 9 6 7 14 23 23 26 24 21 24 25 26 25 29 29 33 37 33 30 32 29 29 29 27 19 16
7 5 12 14 14 14 15 7 5 14 16 13 13 13 11 12 12 13 13 16 18 18 15 12 11 13 7 12 17 22 25 22 20 23 23 30 29 33 33 32 34 34 32 29 31 29 29 29 20
3 8 12 9 6 5 4 3 3 8 11 13 12 12 12 12 12 12 17 17 20 21 20 18 17 17 14 10 6 7 16 19 17 19 21 22 25 30 35 36 36 33 30 29 32 29 27 28 28
5 4 3 2 3 5 8 6 4 11 13 11 14 14 13 12 12 13 15 16 21 24 24 21 23 22 18 14 10 7 3 4 7 18 20 20 22 27 34 38 37 38 33 38 33 32 29 30 29
6 4 2 4 4 11 11 5 4 7 11 13 12 12 14 12 12 13 15 18 21 25 27 26 25 22 19 19 17 14 11 9 9 11 12 19 26 29 26 35 36 37 40 33 34 33 32 31 31
2 5 3 4 8 6 1 2 5 15 14 14 16 14 17 15 13 16 18 20 22 24 26 27 24 22 20 21 18 21 13 13 14 17 20 16 25 25 25 32 34 36 33 32 35 34 35 33 33
14 1 1 2 4 4 2 3 6 14 15 16 17 18 17 17 18 15 15 22 24 25 25 27 26 24 26 33 30 20 22 19 17 16 17 21 22 26 22 26 26 25 26 31 31 33 33 32 32
3 4 5 3 3 3 4 3 6 10 12 14 14 15 16 16 16 16 14 24 26 26 27 27 27 30 30 29 21 18 21 19 18 16 16 15 18 24 26 25 24 24 25 28 33 33 32 33 32
2 4 9 4 3 1 1 3 7 9 11 14 14 14 14 14 15 13 20 25 29 30 29 30 32 34 30 28 28 29 29 29 27 26 23 19 11 18 22 24 24 24 24 27 33 33 31 33 33

GFSSGP_925_spd_126.txt.gz
Wind_Speed
2 2 3 6 6 5 5 4 2 6 3 2 1 7 13 11 9 9 2 6 4 19 23 32 33 33 32 29 26 25 25 26 26 27 26 27 26 25 24 23 21 20 18 18 16 13 12 11 12
2 3 5 2 6 7 6 8 8 2 4 6 10 7 8 9 4 10 11 6 9 22 24 26 33 33 32 30 28 26 25 25 27 27 27 26 26 25 23 22 21 19 18 18 15 13 12 12 11
4 5 5 4 6 11 5 1 2 3 2 6 5 3 6 4 8 11 12 5 11 21 24 25 34 33 32 31 28 26 25 25 27 28 27 26 25 24 23 22 21 19 18 17 15 13 12 12 11
6 6 4 7 13 6 4 1 2 7 9 1 4 13 5 2 12 16 18 5 14 19 21 23 34 32 31 30 29 27 25 26 28 28 27 25 24 23 22 22 20 19 17 17 15 14 13 12 11
5 4 9 11 14 10 10 12 11 11 9 8 7 7 7 5 13 17 10 4 14 18 20 22 33 32 31 29 28 27 25 26 27 27 26 25 24 23 22 21 20 18 16 15 15 14 13 12 12
6 4 9 13 14 7 12 13 11 11 9 10 9 8 4 1 22 20 11 4 10 15 17 19 32 32 30 29 28 26 26 26 26 26 25 25 24 23 22 21 19 18 16 15 14 15 13 13 13
10 8 14 14 13 11 12 9 11 13 13 8 7 9 5 11 22 18 11 4 8 14 15 19 23 29 29 29 27 26 26 26 25 25 25 25 24 23 22 21 19 18 15 13 14 15 14 13 13
5 5 13 12 12 14 6 10 10 13 10 6 2 1 4 13 19 17 11 6 8 13 16 19 22 22 22 24 26 25 26 25 25 25 24 24 23 23 22 20 20 18 16 14 15 15 15 14 13
3 7 11 15 12 12 2 10 9 6 14 7 9 15 13 13 20 17 14 7 9 13 16 18 21 21 20 19 21 25 25 25 25 24 24 23 19 20 20 19 19 19 16 15 15 15 15 14 13
7 9 10 8 8 10 8 10 15 14 15 14 15 3 11 21 21 22 21 14 11 15 17 19 21 21 20 19 19 21 20 21 22 21 21 20 19 19 18 19 20 18 16 14 15 15 15 14 11
2 9 8 9 5 6 10 13 15 19 22 18 20 22 22 30 31 25 24 21 16 14 17 19 21 22 24 23 21 22 22 22 22 22 21 21 19 19 20 18 18 17 16 13 14 14 13 13 12
9 6 9 10 9 13 16 19 20 22 26 23 23 25 25 22 21 25 23 23 20 13 18 21 23 23 24 23 24 22 23 24 24 23 23 23 21 20 20 19 20 19 18 17 16 15 15 14 13
12 9 6 8 14 15 17 21 24 24 23 24 20 20 21 20 20 27 27 25 22 21 18 23 25 26 25 25 23 24 24 23 22 23 25 24 22 21 21 20 20 20 18 19 18 17 16 15 14
5 10 15 15 15 19 18 18 11 9 18 15 17 20 20 22 22 24 26 26 23 22 20 23 28 28 27 27 25 24 24 22 22 22 25 29 24 22 22 21 20 21 19 19 19 18 16 16 15
8 17 16 10 2 8 13 20 16 10 8 16 19 23 26 26 30 27 27 27 25 25 23 22 27 31 31 29 27 25 24 24 24 23 24 31 27 24 22 22 20 22 19 20 19 18 17 16 15
10 10 5 7 9 6 6 18 13 10 11 24 27 23 24 26 27 30 30 28 27 26 27 25 26 32 34 31 29 27 25 25 23 23 22 24 28 25 24 22 22 19 23 20 20 20 17 18 17
7 9 12 10 5 13 5 25 12 22 25 24 24 24 23 24 25 30 30 30 30 28 27 27 27 31 34 33 29 27 24 22 24 23 24 24 26 26 23 22 22 21 22 25 22 19 18 18 18
14 17 16 16 6 15 21 29 21 21 21 23 23 22 23 23 23 29 32 30 27 28 28 29 28 30 34 32 30 27 25 24 24 23 23 22 24 26 26 21 22 27 21 23 23 20 21 18 18
14 16 21 17 13 16 17 24 27 24 19 19 18 18 20 23 25 28 28 22 18 23 19 24 29 30 32 34 33 30 30 29 26 25 23 23 24 26 28 24 26 30 25 25 23 25 20 17 15
12 16 20 17 5 15 20 25 26 16 16 18 16 17 18 20 20 21 22 19 17 18 16 19 25 31 32 34 35 34 31 29 28 25 25 26 26 25 29 27 25 26 23 22 24 24 16 17 18
13 15 18 22 19 17 11 19 13 14 12 16 18 20 19 18 19 18 18 17 15 16 16 17 17 22 30 32 32 30 26 23 23 25 26 28 28 27 27 28 27 25 26 24 26 27 23 16 20
13 7 11 13 14 12 13 13 20 10 13 19 17 18 19 19 17 16 16 17 16 17 15 13 13 15 13 30 28 31 30 25 24 23 23 24 27 28 30 29 29 28 25 25 24 25 24 18 17
5 6 10 11 14 16 10 9 6 16 17 22 20 19 18 18 17 16 15 16 16 18 16 14 13 6 6 7 18 24 24 23 18 18 17 22 22 27 29 29 30 31 28 25 26 24 29 24 22
8 9 12 11 8 6 2 6 8 11 16 18 20 19 20 20 16 16 20 17 17 19 19 15 12 12 10 8 10 15 14 15 14 11 12 14 21 24 30 29 30 31 30 31 32 31 31 27 26
4 6 3 3 5 6 5 11 6 14 15 14 19 19 19 19 18 15 17 18 20 20 20 18 16 17 16 16 15 14 8 6 7 5 2 11 17 19 26 28 28 32 35 34 33 37 39 36 32
3 6 5 5 5 11 5 2 4 8 12 16 15 17 19 21 18 18 16 20 21 22 22 20 20 19 21 19 17 16 14 10 7 5 2 7 5 15 20 24 31 33 34 34 31 29 31 33 34
2 6 2 8 10 6 3 5 3 14 15 14 17 19 18 18 18 17 19 22 22 22 23 22 22 22 26 24 19 20 18 16 12 10 7 7 9 13 17 24 27 32 31 32 31 31 32 30 33
12 7 4 5 4 5 3 3 6 14 15 14 17 17 18 17 18 17 20 24 27 24 22 25 27 27 30 24 23 20 21 19 16 13 11 14 13 13 21 22 23 27 30 32 31 32 30 30 32
5 9 8 5 6 4 5 5 6 9 11 13 14 15 16 17 17 16 22 28 26 27 28 29 29 28 26 27 29 23 24 22 18 21 23 21 17 15 17 24 24 23 27 30 30 29 28 30 32
8 11 12 5 4 4 2 3 7 8 10 11 13 14 15 14 15 15 24 26 29 33 33 33 32 31 30 27 27 31 34 33 30 32 29 25 22 16 12 10 19 24 26 23 25 28 27 29 30

GFSSGP_925_spd_129.txt.gz
Wind_Speed
5 6 8 8 6 7 13 6 6 4 5 6 4 5 11 12 9 7 7 15 6 5 17 31 28 26 24 22 20 21 22 23 23 22 21 20 20 20 19 19 18 16 14 13 11 11 9 7 8
7 5 8 6 7 12 10 11 7 2 9 5 6 8 8 9 6 7 13 19 10 8 15 24 30 29 26 24 23 23 22 22 21 21 21 21 21 20 19 17 17 15 14 13 11 10 9 8 8
5 8 9 5 12 13 11 7 4 8 1 4 5 2 4 7 14 13 21 19 9 10 16 22 31 30 28 25 24 23 22 23 22 22 22 22 22 20 18 17 16 15 14 14 10 10 9 9 8
7 7 6 10 17 13 7 6 3 5 7 1 3 10 4 5 8 15 20 12 4 9 14 22 29 30 29 27 25 23 22 22 23 23 23 23 22 21 19 17 16 14 14 13 12 10 10 9 8
12 7 12 14 17 17 4 10 12 11 10 7 8 11 5 2 10 17 17 9 1 8 13 15 26 29 29 27 25 23 22 21 23 23 24 24 22 20 19 18 16 15 14 13 12 11 9 8 8
8 6 13 14 17 14 5 8 11 10 11 10 9 8 5 8 14 16 14 11 1 7 9 9 23 28 28 26 25 23 21 21 22 24 24 24 22 20 19 18 16 15 13 12 11 10 10 8 8
13 12 16 18 18 15 6 10 12 12 12 9 8 10 7 11 14 16 13 10 2 6 8 7 15 21 25 24 23 22 21 21 23 24 23 22 21 20 19 19 17 15 13 12 11 11 10 9 9
9 10 19 16 14 15 7 6 9 13 10 6 5 5 4 12 12 16 15 8 4 5 9 10 15 17 18 20 22 22 22 23 23 23 22 21 20 19 19 19 18 16 14 11 10 10 11 9 9
8 9 13 16 14 9 4 5 9 13 10 12 6 9 15 15 15 19 17 17 4 4 10 13 17 19 19 18 20 23 22 22 23 22 21 20 16 17 17 17 17 17 14 12 11 11 10 11 9
8 11 15 9 11 12 12 12 14 15 16 13 12 12 6 16 22 22 21 17 16 10 11 16 18 20 21 20 19 20 20 21 20 18 18 18 17 16 17 16 18 17 15 13 12 12 12 11 8
8 13 14 12 9 9 13 16 17 20 20 18 21 21 20 22 26 24 23 21 18 17 11 17 20 20 22 22 22 20 22 21 22 21 20 20 19 20 19 18 18 16 16 12 13 14 12 12 14
8 13 7 12 12 12 16 19 19 20 22 22 22 19 20 20 17 20 20 21 21 19 16 15 21 23 23 24 24 21 24 24 23 23 23 22 21 20 20 19 18 20 17 16 15 14 14 14 11
15 15 9 9 12 15 18 19 21 22 21 19 18 14 17 18 18 21 24 23 22 22 19 17 20 24 26 26 24 23 24 24 25 25 26 25 23 22 21 20 18 20 18 19 17 17 17 15 14
9 11 15 16 16 16 17 16 15 17 17 14 14 15 18 19 22 26 26 28 25 24 23 21 20 24 27 28 27 25 24 24 23 22 23 28 25 22 20 23 21 22 20 19 19 19 16 16 17
8 14 16 17 4 9 12 15 12 8 17 13 14 18 23 23 25 24 25 28 30 28 26 24 20 24 28 29 29 27 26 27 25 26 26 29 27 24 22 22 23 22 20 19 21 19 16 16 14
14 15 12 10 5 12 6 17 14 11 12 20 23 19 20 23 22 25 24 25 28 32 28 27 26 24 29 30 30 31 28 27 27 26 27 28 32 26 24 21 22 24 18 20 19 19 17 18 16
15 9 8 14 8 7 9 18 15 17 17 20 19 19 18 19 20 24 25 24 27 29 31 30 27 30 29 32 32 32 29 29 29 26 27 28 32 29 22 27 25 20 21 22 21 19 19 17 17
14 16 15 16 12 14 18 20 17 17 20 18 16 16 19 21 24 32 34 34 27 26 28 24 28 31 27 31 35 33 31 30 28 28 27 26 28 33 27 24 25 26 22 22 22 22 23 17 17
12 13 14 14 12 14 17 21 20 19 9 16 16 18 20 22 27 33 35 34 34 26 25 28 27 35 33 31 32 34 32 30 30 30 29 28 27 32 35 28 25 26 25 25 24 25 22 19 17
10 14 15 13 7 11 19 21 17 11 13 12 17 18 20 21 22 27 30 33 33 31 25 26 28 32 36 28 32 36 32 33 32 32 32 34 32 31 34 32 26 26 25 23 24 27 20 21 20
10 12 13 15 15 19 19 18 13 4 16 18 19 20 20 21 22 23 27 29 31 28 27 30 31 29 35 37 28 36 32 31 31 31 30 33 32 31 30 33 28 26 27 25 27 27 24 19 20
9 8 12 13 11 10 10 14 8 11 14 19 20 20 21 21 20 20 24 27 28 27 25 25 28 25 26 25 31 37 35 28 31 28 29 28 29 29 26 27 28 26 26 26 24 28 27 22 17
5 9 12 14 14 14 14 7 10 9 16 21 20 20 20 19 19 18 23 28 27 25 25 24 24 21 21 20 23 26 37 29 29 30 28 26 26 26 25 26 27 29 28 27 24 29 30 29 22
9 12 15 11 8 8 3 5 6 7 11 16 18 20 19 19 19 19 26 28 28 27 27 24 22 19 18 15 22 12 28 28 13 8 23 19 16 22 21 21 25 26 26 24 28 25 30 29 28
7 11 5 6 7 10 8 9 6 9 11 13 16 17 19 20 19 19 21 26 29 29 28 24 21 19 17 13 24 24 14 6 8 7 29 11 12 16 18 23 25 23 24 24 25 27 29 34 29
6 5 6 6 7 12 18 3 5 6 11 13 12 15 18 21 20 20 23 27 28 30 27 26 21 20 19 17 24 28 27 24 17 10 13 6 9 5 10 16 16 27 25 27 28 28 31 29 31
3 6 7 8 16 10 2 4 3 10 13 11 15 17 17 18 19 21 28 29 26 29 28 26 22 21 20 23 26 30 29 25 25 19 10 9 7 7 5 6 14 17 21 29 31 29 29 31 29
11 1 4 6 5 7 3 4 4 13 14 14 13 14 18 17 18 20 24 29 29 30 26 26 24 23 21 25 30 30 29 25 24 21 20 15 12 9 10 9 12 13 14 21 24 28 29 30 27
5 9 8 11 9 5 8 4 5 7 9 12 12 13 13 15 16 16 22 27 28 29 26 28 27 26 26 30 28 30 26 26 18 22 19 17 19 20 15 13 9 7 13 14 14 25 29 28 27
4 9 11 8 8 7 6 2 5 4 8 11 12 14 14 12 13 14 21 24 28 27 33 32 32 33 29 31 33 31 26 24 24 28 31 30 25 23 22 20 20 20 14 11 9 15 26 29 28